<?xml version="1.0" encoding="UTF-8" standalone="no" ?>
<gpx xmlns="http://www.topografix.com/GPX/1/1" xmlns:xsi="http://www.w3.org/2001/XMLSchema-instance" xsi:schemaLocation="http://www.topografix.com/GPX/1/1 http://www.topografix.com/GPX/1/1/gpx.xsd" version="1.1" creator="VisuGPX - https://www.visugpx.com">
  <metadata>
    <name>Sortie au Sud de Montbéliard</name>
  </metadata>
  <trk>
    <name><![CDATA[Vélo du matin]]></name>
    <trkseg>
      <trkpt lat="47.51807" lon="6.77496">
        <ele>389</ele>
        <time>2021-12-20T08:27:05Z</time>
      </trkpt>
      <trkpt lat="47.51786" lon="6.77493">
        <ele>390.1</ele>
        <time>2021-12-20T08:27:11Z</time>
      </trkpt>
      <trkpt lat="47.51759" lon="6.77486">
        <ele>391</ele>
        <time>2021-12-20T08:27:17Z</time>
      </trkpt>
      <trkpt lat="47.5174" lon="6.7748">
        <ele>391.1</ele>
        <time>2021-12-20T08:27:22Z</time>
      </trkpt>
      <trkpt lat="47.51732" lon="6.77486">
        <ele>391.1</ele>
        <time>2021-12-20T08:27:27Z</time>
      </trkpt>
      <trkpt lat="47.51722" lon="6.77514">
        <ele>391.4</ele>
        <time>2021-12-20T08:27:33Z</time>
      </trkpt>
      <trkpt lat="47.51712" lon="6.7756">
        <ele>391.7</ele>
        <time>2021-12-20T08:27:40Z</time>
      </trkpt>
      <trkpt lat="47.5169" lon="6.77541">
        <ele>390.9</ele>
        <time>2021-12-20T08:27:45Z</time>
      </trkpt>
      <trkpt lat="47.51664" lon="6.7751">
        <ele>389.8</ele>
        <time>2021-12-20T08:27:50Z</time>
      </trkpt>
      <trkpt lat="47.51636" lon="6.77476">
        <ele>388.1</ele>
        <time>2021-12-20T08:27:55Z</time>
      </trkpt>
      <trkpt lat="47.51604" lon="6.77438">
        <ele>386.1</ele>
        <time>2021-12-20T08:28:00Z</time>
      </trkpt>
      <trkpt lat="47.51568" lon="6.77395">
        <ele>383.3</ele>
        <time>2021-12-20T08:28:05Z</time>
      </trkpt>
      <trkpt lat="47.51531" lon="6.77353">
        <ele>379.7</ele>
        <time>2021-12-20T08:28:10Z</time>
      </trkpt>
      <trkpt lat="47.51501" lon="6.77319">
        <ele>377</ele>
        <time>2021-12-20T08:28:15Z</time>
      </trkpt>
      <trkpt lat="47.51486" lon="6.77284">
        <ele>376</ele>
        <time>2021-12-20T08:28:20Z</time>
      </trkpt>
      <trkpt lat="47.51485" lon="6.77233">
        <ele>375.3</ele>
        <time>2021-12-20T08:28:25Z</time>
      </trkpt>
      <trkpt lat="47.51472" lon="6.77199">
        <ele>374.3</ele>
        <time>2021-12-20T08:28:30Z</time>
      </trkpt>
      <trkpt lat="47.51436" lon="6.77214">
        <ele>373.7</ele>
        <time>2021-12-20T08:28:35Z</time>
      </trkpt>
      <trkpt lat="47.51402" lon="6.77231">
        <ele>374.8</ele>
        <time>2021-12-20T08:28:40Z</time>
      </trkpt>
      <trkpt lat="47.51375" lon="6.77245">
        <ele>376.7</ele>
        <time>2021-12-20T08:28:45Z</time>
      </trkpt>
      <trkpt lat="47.51354" lon="6.77262">
        <ele>378.7</ele>
        <time>2021-12-20T08:28:50Z</time>
      </trkpt>
      <trkpt lat="47.51337" lon="6.77277">
        <ele>380.3</ele>
        <time>2021-12-20T08:28:55Z</time>
      </trkpt>
      <trkpt lat="47.51323" lon="6.77281">
        <ele>381.3</ele>
        <time>2021-12-20T08:29:00Z</time>
      </trkpt>
      <trkpt lat="47.51305" lon="6.77279">
        <ele>382.2</ele>
        <time>2021-12-20T08:29:05Z</time>
      </trkpt>
      <trkpt lat="47.51286" lon="6.77271">
        <ele>383</ele>
        <time>2021-12-20T08:29:10Z</time>
      </trkpt>
      <trkpt lat="47.51268" lon="6.7726">
        <ele>383.5</ele>
        <time>2021-12-20T08:29:15Z</time>
      </trkpt>
      <trkpt lat="47.5125" lon="6.7724">
        <ele>383.5</ele>
        <time>2021-12-20T08:29:20Z</time>
      </trkpt>
      <trkpt lat="47.51234" lon="6.77207">
        <ele>382.9</ele>
        <time>2021-12-20T08:29:25Z</time>
      </trkpt>
      <trkpt lat="47.51216" lon="6.77172">
        <ele>382.2</ele>
        <time>2021-12-20T08:29:30Z</time>
      </trkpt>
      <trkpt lat="47.51195" lon="6.7713">
        <ele>380.7</ele>
        <time>2021-12-20T08:29:35Z</time>
      </trkpt>
      <trkpt lat="47.51171" lon="6.77082">
        <ele>379.3</ele>
        <time>2021-12-20T08:29:40Z</time>
      </trkpt>
      <trkpt lat="47.51138" lon="6.77047">
        <ele>378.4</ele>
        <time>2021-12-20T08:29:45Z</time>
      </trkpt>
      <trkpt lat="47.51103" lon="6.77016">
        <ele>377.8</ele>
        <time>2021-12-20T08:29:50Z</time>
      </trkpt>
      <trkpt lat="47.51062" lon="6.76982">
        <ele>377.6</ele>
        <time>2021-12-20T08:29:56Z</time>
      </trkpt>
      <trkpt lat="47.5103" lon="6.76956">
        <ele>377.9</ele>
        <time>2021-12-20T08:30:01Z</time>
      </trkpt>
      <trkpt lat="47.51001" lon="6.76935">
        <ele>378.5</ele>
        <time>2021-12-20T08:30:06Z</time>
      </trkpt>
      <trkpt lat="47.50977" lon="6.76912">
        <ele>378.9</ele>
        <time>2021-12-20T08:30:11Z</time>
      </trkpt>
      <trkpt lat="47.50953" lon="6.7689">
        <ele>379.3</ele>
        <time>2021-12-20T08:30:16Z</time>
      </trkpt>
      <trkpt lat="47.5093" lon="6.76866">
        <ele>380</ele>
        <time>2021-12-20T08:30:21Z</time>
      </trkpt>
      <trkpt lat="47.50913" lon="6.76834">
        <ele>381</ele>
        <time>2021-12-20T08:30:26Z</time>
      </trkpt>
      <trkpt lat="47.50898" lon="6.768">
        <ele>382.1</ele>
        <time>2021-12-20T08:30:31Z</time>
      </trkpt>
      <trkpt lat="47.50886" lon="6.76767">
        <ele>383.3</ele>
        <time>2021-12-20T08:30:36Z</time>
      </trkpt>
      <trkpt lat="47.50876" lon="6.76736">
        <ele>384.5</ele>
        <time>2021-12-20T08:30:41Z</time>
      </trkpt>
      <trkpt lat="47.50866" lon="6.76704">
        <ele>385.8</ele>
        <time>2021-12-20T08:30:46Z</time>
      </trkpt>
      <trkpt lat="47.50855" lon="6.76674">
        <ele>387.2</ele>
        <time>2021-12-20T08:30:51Z</time>
      </trkpt>
      <trkpt lat="47.50843" lon="6.76646">
        <ele>388.2</ele>
        <time>2021-12-20T08:30:56Z</time>
      </trkpt>
      <trkpt lat="47.50831" lon="6.76622">
        <ele>389.6</ele>
        <time>2021-12-20T08:31:01Z</time>
      </trkpt>
      <trkpt lat="47.50821" lon="6.76597">
        <ele>390.8</ele>
        <time>2021-12-20T08:31:06Z</time>
      </trkpt>
      <trkpt lat="47.50816" lon="6.76567">
        <ele>391.4</ele>
        <time>2021-12-20T08:31:11Z</time>
      </trkpt>
      <trkpt lat="47.50808" lon="6.76539">
        <ele>391.7</ele>
        <time>2021-12-20T08:31:16Z</time>
      </trkpt>
      <trkpt lat="47.50807" lon="6.7651">
        <ele>391.4</ele>
        <time>2021-12-20T08:31:21Z</time>
      </trkpt>
      <trkpt lat="47.50799" lon="6.76466">
        <ele>390.2</ele>
        <time>2021-12-20T08:31:26Z</time>
      </trkpt>
      <trkpt lat="47.50787" lon="6.76409">
        <ele>386.8</ele>
        <time>2021-12-20T08:31:31Z</time>
      </trkpt>
      <trkpt lat="47.5076" lon="6.76337">
        <ele>380.5</ele>
        <time>2021-12-20T08:31:36Z</time>
      </trkpt>
      <trkpt lat="47.5073" lon="6.76257">
        <ele>375.9</ele>
        <time>2021-12-20T08:31:41Z</time>
      </trkpt>
      <trkpt lat="47.50715" lon="6.76173">
        <ele>373.2</ele>
        <time>2021-12-20T08:31:46Z</time>
      </trkpt>
      <trkpt lat="47.50716" lon="6.76094">
        <ele>371.3</ele>
        <time>2021-12-20T08:31:51Z</time>
      </trkpt>
      <trkpt lat="47.5072" lon="6.76014">
        <ele>368.3</ele>
        <time>2021-12-20T08:31:56Z</time>
      </trkpt>
      <trkpt lat="47.50727" lon="6.75932">
        <ele>364.5</ele>
        <time>2021-12-20T08:32:01Z</time>
      </trkpt>
      <trkpt lat="47.50728" lon="6.75845">
        <ele>358.9</ele>
        <time>2021-12-20T08:32:06Z</time>
      </trkpt>
      <trkpt lat="47.50726" lon="6.75751">
        <ele>352.7</ele>
        <time>2021-12-20T08:32:11Z</time>
      </trkpt>
      <trkpt lat="47.50724" lon="6.75633">
        <ele>345.1</ele>
        <time>2021-12-20T08:32:17Z</time>
      </trkpt>
      <trkpt lat="47.50718" lon="6.75544">
        <ele>340</ele>
        <time>2021-12-20T08:32:22Z</time>
      </trkpt>
      <trkpt lat="47.50701" lon="6.75469">
        <ele>336.5</ele>
        <time>2021-12-20T08:32:27Z</time>
      </trkpt>
      <trkpt lat="47.50671" lon="6.75407">
        <ele>332.4</ele>
        <time>2021-12-20T08:32:32Z</time>
      </trkpt>
      <trkpt lat="47.50617" lon="6.75391">
        <ele>328.4</ele>
        <time>2021-12-20T08:32:37Z</time>
      </trkpt>
      <trkpt lat="47.50562" lon="6.75384">
        <ele>326.4</ele>
        <time>2021-12-20T08:32:42Z</time>
      </trkpt>
      <trkpt lat="47.50513" lon="6.75359">
        <ele>325.3</ele>
        <time>2021-12-20T08:32:47Z</time>
      </trkpt>
      <trkpt lat="47.50497" lon="6.75298">
        <ele>325</ele>
        <time>2021-12-20T08:32:52Z</time>
      </trkpt>
      <trkpt lat="47.50492" lon="6.7523">
        <ele>324</ele>
        <time>2021-12-20T08:32:57Z</time>
      </trkpt>
      <trkpt lat="47.50492" lon="6.75171">
        <ele>325</ele>
        <time>2021-12-20T08:33:02Z</time>
      </trkpt>
      <trkpt lat="47.50513" lon="6.75145">
        <ele>326.8</ele>
        <time>2021-12-20T08:33:07Z</time>
      </trkpt>
      <trkpt lat="47.50518" lon="6.75116">
        <ele>329.4</ele>
        <time>2021-12-20T08:33:12Z</time>
      </trkpt>
      <trkpt lat="47.50515" lon="6.75091">
        <ele>331.6</ele>
        <time>2021-12-20T08:33:17Z</time>
      </trkpt>
      <trkpt lat="47.50514" lon="6.75067">
        <ele>333.6</ele>
        <time>2021-12-20T08:33:22Z</time>
      </trkpt>
      <trkpt lat="47.50514" lon="6.7504">
        <ele>335.8</ele>
        <time>2021-12-20T08:33:27Z</time>
      </trkpt>
      <trkpt lat="47.50517" lon="6.75013">
        <ele>338.1</ele>
        <time>2021-12-20T08:33:32Z</time>
      </trkpt>
      <trkpt lat="47.50519" lon="6.7499">
        <ele>339.9</ele>
        <time>2021-12-20T08:33:37Z</time>
      </trkpt>
      <trkpt lat="47.50523" lon="6.74967">
        <ele>341.7</ele>
        <time>2021-12-20T08:33:42Z</time>
      </trkpt>
      <trkpt lat="47.50528" lon="6.74944">
        <ele>343.4</ele>
        <time>2021-12-20T08:33:47Z</time>
      </trkpt>
      <trkpt lat="47.50525" lon="6.74918">
        <ele>345.2</ele>
        <time>2021-12-20T08:33:52Z</time>
      </trkpt>
      <trkpt lat="47.50517" lon="6.74893">
        <ele>346.9</ele>
        <time>2021-12-20T08:33:57Z</time>
      </trkpt>
      <trkpt lat="47.50505" lon="6.7487">
        <ele>348.7</ele>
        <time>2021-12-20T08:34:02Z</time>
      </trkpt>
      <trkpt lat="47.50486" lon="6.74841">
        <ele>351.2</ele>
        <time>2021-12-20T08:34:09Z</time>
      </trkpt>
      <trkpt lat="47.50471" lon="6.74829">
        <ele>352.8</ele>
        <time>2021-12-20T08:34:14Z</time>
      </trkpt>
      <trkpt lat="47.50454" lon="6.74818">
        <ele>353.9</ele>
        <time>2021-12-20T08:34:19Z</time>
      </trkpt>
      <trkpt lat="47.5044" lon="6.74801">
        <ele>354.7</ele>
        <time>2021-12-20T08:34:24Z</time>
      </trkpt>
      <trkpt lat="47.50426" lon="6.74776">
        <ele>355</ele>
        <time>2021-12-20T08:34:29Z</time>
      </trkpt>
      <trkpt lat="47.50418" lon="6.74745">
        <ele>355.3</ele>
        <time>2021-12-20T08:34:34Z</time>
      </trkpt>
      <trkpt lat="47.5041" lon="6.74716">
        <ele>355.5</ele>
        <time>2021-12-20T08:34:39Z</time>
      </trkpt>
      <trkpt lat="47.50407" lon="6.74678">
        <ele>355.8</ele>
        <time>2021-12-20T08:34:44Z</time>
      </trkpt>
      <trkpt lat="47.50404" lon="6.74639">
        <ele>356.2</ele>
        <time>2021-12-20T08:34:49Z</time>
      </trkpt>
      <trkpt lat="47.50398" lon="6.74602">
        <ele>356.7</ele>
        <time>2021-12-20T08:34:54Z</time>
      </trkpt>
      <trkpt lat="47.50394" lon="6.74564">
        <ele>356.9</ele>
        <time>2021-12-20T08:34:59Z</time>
      </trkpt>
      <trkpt lat="47.50385" lon="6.74523">
        <ele>356.6</ele>
        <time>2021-12-20T08:35:04Z</time>
      </trkpt>
      <trkpt lat="47.50367" lon="6.74483">
        <ele>355.9</ele>
        <time>2021-12-20T08:35:09Z</time>
      </trkpt>
      <trkpt lat="47.5034" lon="6.74447">
        <ele>354.3</ele>
        <time>2021-12-20T08:35:14Z</time>
      </trkpt>
      <trkpt lat="47.50312" lon="6.74412">
        <ele>353.4</ele>
        <time>2021-12-20T08:35:19Z</time>
      </trkpt>
      <trkpt lat="47.50286" lon="6.74381">
        <ele>353.1</ele>
        <time>2021-12-20T08:35:24Z</time>
      </trkpt>
      <trkpt lat="47.50262" lon="6.74363">
        <ele>353.6</ele>
        <time>2021-12-20T08:35:29Z</time>
      </trkpt>
      <trkpt lat="47.50248" lon="6.74328">
        <ele>354.9</ele>
        <time>2021-12-20T08:35:34Z</time>
      </trkpt>
      <trkpt lat="47.5023" lon="6.74301">
        <ele>356</ele>
        <time>2021-12-20T08:35:39Z</time>
      </trkpt>
      <trkpt lat="47.50211" lon="6.74275">
        <ele>357.3</ele>
        <time>2021-12-20T08:35:44Z</time>
      </trkpt>
      <trkpt lat="47.50194" lon="6.74249">
        <ele>358.6</ele>
        <time>2021-12-20T08:35:49Z</time>
      </trkpt>
      <trkpt lat="47.5018" lon="6.74223">
        <ele>359.8</ele>
        <time>2021-12-20T08:35:54Z</time>
      </trkpt>
      <trkpt lat="47.50169" lon="6.74194">
        <ele>360.6</ele>
        <time>2021-12-20T08:35:59Z</time>
      </trkpt>
      <trkpt lat="47.50158" lon="6.74162">
        <ele>360.6</ele>
        <time>2021-12-20T08:36:04Z</time>
      </trkpt>
      <trkpt lat="47.50144" lon="6.74122">
        <ele>359.6</ele>
        <time>2021-12-20T08:36:09Z</time>
      </trkpt>
      <trkpt lat="47.50125" lon="6.74077">
        <ele>357.7</ele>
        <time>2021-12-20T08:36:14Z</time>
      </trkpt>
      <trkpt lat="47.50103" lon="6.74019">
        <ele>355.2</ele>
        <time>2021-12-20T08:36:19Z</time>
      </trkpt>
      <trkpt lat="47.50085" lon="6.73948">
        <ele>352.8</ele>
        <time>2021-12-20T08:36:24Z</time>
      </trkpt>
      <trkpt lat="47.50076" lon="6.7387">
        <ele>350.3</ele>
        <time>2021-12-20T08:36:29Z</time>
      </trkpt>
      <trkpt lat="47.50069" lon="6.73794">
        <ele>348.4</ele>
        <time>2021-12-20T08:36:34Z</time>
      </trkpt>
      <trkpt lat="47.50063" lon="6.73721">
        <ele>347</ele>
        <time>2021-12-20T08:36:39Z</time>
      </trkpt>
      <trkpt lat="47.50062" lon="6.73654">
        <ele>345.9</ele>
        <time>2021-12-20T08:36:44Z</time>
      </trkpt>
      <trkpt lat="47.50066" lon="6.73548">
        <ele>344.9</ele>
        <time>2021-12-20T08:36:52Z</time>
      </trkpt>
      <trkpt lat="47.50076" lon="6.73489">
        <ele>344.8</ele>
        <time>2021-12-20T08:36:57Z</time>
      </trkpt>
      <trkpt lat="47.50089" lon="6.73439">
        <ele>345.1</ele>
        <time>2021-12-20T08:37:02Z</time>
      </trkpt>
      <trkpt lat="47.50103" lon="6.73395">
        <ele>345.2</ele>
        <time>2021-12-20T08:37:07Z</time>
      </trkpt>
      <trkpt lat="47.50117" lon="6.73352">
        <ele>345.1</ele>
        <time>2021-12-20T08:37:12Z</time>
      </trkpt>
      <trkpt lat="47.50132" lon="6.73308">
        <ele>344.9</ele>
        <time>2021-12-20T08:37:17Z</time>
      </trkpt>
      <trkpt lat="47.50147" lon="6.73263">
        <ele>344.6</ele>
        <time>2021-12-20T08:37:22Z</time>
      </trkpt>
      <trkpt lat="47.50163" lon="6.73218">
        <ele>344</ele>
        <time>2021-12-20T08:37:27Z</time>
      </trkpt>
      <trkpt lat="47.50175" lon="6.73173">
        <ele>342.6</ele>
        <time>2021-12-20T08:37:32Z</time>
      </trkpt>
      <trkpt lat="47.50185" lon="6.73127">
        <ele>341.9</ele>
        <time>2021-12-20T08:37:37Z</time>
      </trkpt>
      <trkpt lat="47.5015" lon="6.73114">
        <ele>340.1</ele>
        <time>2021-12-20T08:37:42Z</time>
      </trkpt>
      <trkpt lat="47.50108" lon="6.73115">
        <ele>338.2</ele>
        <time>2021-12-20T08:37:47Z</time>
      </trkpt>
      <trkpt lat="47.50071" lon="6.73088">
        <ele>337.6</ele>
        <time>2021-12-20T08:37:52Z</time>
      </trkpt>
      <trkpt lat="47.5004" lon="6.73056">
        <ele>337.4</ele>
        <time>2021-12-20T08:37:57Z</time>
      </trkpt>
      <trkpt lat="47.50011" lon="6.73022">
        <ele>337.3</ele>
        <time>2021-12-20T08:38:02Z</time>
      </trkpt>
      <trkpt lat="47.49987" lon="6.7298">
        <ele>337.3</ele>
        <time>2021-12-20T08:38:07Z</time>
      </trkpt>
      <trkpt lat="47.4996" lon="6.72957">
        <ele>337.9</ele>
        <time>2021-12-20T08:38:12Z</time>
      </trkpt>
      <trkpt lat="47.4993" lon="6.72947">
        <ele>339</ele>
        <time>2021-12-20T08:38:17Z</time>
      </trkpt>
      <trkpt lat="47.49904" lon="6.72938">
        <ele>339.9</ele>
        <time>2021-12-20T08:38:22Z</time>
      </trkpt>
      <trkpt lat="47.49886" lon="6.72919">
        <ele>340.8</ele>
        <time>2021-12-20T08:38:27Z</time>
      </trkpt>
      <trkpt lat="47.49867" lon="6.72901">
        <ele>341.9</ele>
        <time>2021-12-20T08:38:32Z</time>
      </trkpt>
      <trkpt lat="47.49845" lon="6.72893">
        <ele>343.1</ele>
        <time>2021-12-20T08:38:37Z</time>
      </trkpt>
      <trkpt lat="47.49825" lon="6.72886">
        <ele>344.2</ele>
        <time>2021-12-20T08:38:42Z</time>
      </trkpt>
      <trkpt lat="47.49804" lon="6.72879">
        <ele>345.4</ele>
        <time>2021-12-20T08:38:47Z</time>
      </trkpt>
      <trkpt lat="47.49782" lon="6.72873">
        <ele>346.6</ele>
        <time>2021-12-20T08:38:52Z</time>
      </trkpt>
      <trkpt lat="47.49758" lon="6.72869">
        <ele>347.5</ele>
        <time>2021-12-20T08:38:58Z</time>
      </trkpt>
      <trkpt lat="47.49737" lon="6.72863">
        <ele>348.3</ele>
        <time>2021-12-20T08:39:03Z</time>
      </trkpt>
      <trkpt lat="47.49715" lon="6.72859">
        <ele>348.9</ele>
        <time>2021-12-20T08:39:08Z</time>
      </trkpt>
      <trkpt lat="47.49694" lon="6.72869">
        <ele>349.3</ele>
        <time>2021-12-20T08:39:13Z</time>
      </trkpt>
      <trkpt lat="47.4968" lon="6.72899">
        <ele>349</ele>
        <time>2021-12-20T08:39:18Z</time>
      </trkpt>
      <trkpt lat="47.49666" lon="6.72931">
        <ele>348.3</ele>
        <time>2021-12-20T08:39:23Z</time>
      </trkpt>
      <trkpt lat="47.49647" lon="6.72968">
        <ele>347.1</ele>
        <time>2021-12-20T08:39:28Z</time>
      </trkpt>
      <trkpt lat="47.49612" lon="6.7299">
        <ele>346.2</ele>
        <time>2021-12-20T08:39:33Z</time>
      </trkpt>
      <trkpt lat="47.49577" lon="6.72999">
        <ele>347.5</ele>
        <time>2021-12-20T08:39:38Z</time>
      </trkpt>
      <trkpt lat="47.49553" lon="6.73005">
        <ele>349.3</ele>
        <time>2021-12-20T08:39:43Z</time>
      </trkpt>
      <trkpt lat="47.49538" lon="6.73012">
        <ele>350.2</ele>
        <time>2021-12-20T08:39:48Z</time>
      </trkpt>
      <trkpt lat="47.49527" lon="6.73027">
        <ele>351.2</ele>
        <time>2021-12-20T08:39:53Z</time>
      </trkpt>
      <trkpt lat="47.49519" lon="6.73043">
        <ele>352.6</ele>
        <time>2021-12-20T08:39:58Z</time>
      </trkpt>
      <trkpt lat="47.49509" lon="6.73058">
        <ele>353.8</ele>
        <time>2021-12-20T08:40:03Z</time>
      </trkpt>
      <trkpt lat="47.495" lon="6.73073">
        <ele>354.8</ele>
        <time>2021-12-20T08:40:08Z</time>
      </trkpt>
      <trkpt lat="47.4949" lon="6.73092">
        <ele>356</ele>
        <time>2021-12-20T08:40:13Z</time>
      </trkpt>
      <trkpt lat="47.49479" lon="6.73109">
        <ele>357.2</ele>
        <time>2021-12-20T08:40:18Z</time>
      </trkpt>
      <trkpt lat="47.4947" lon="6.73125">
        <ele>358.4</ele>
        <time>2021-12-20T08:40:23Z</time>
      </trkpt>
      <trkpt lat="47.49461" lon="6.73141">
        <ele>359.5</ele>
        <time>2021-12-20T08:40:28Z</time>
      </trkpt>
      <trkpt lat="47.49453" lon="6.73159">
        <ele>360.8</ele>
        <time>2021-12-20T08:40:33Z</time>
      </trkpt>
      <trkpt lat="47.49445" lon="6.73177">
        <ele>361.9</ele>
        <time>2021-12-20T08:40:38Z</time>
      </trkpt>
      <trkpt lat="47.49437" lon="6.73195">
        <ele>363</ele>
        <time>2021-12-20T08:40:43Z</time>
      </trkpt>
      <trkpt lat="47.49429" lon="6.73213">
        <ele>364.1</ele>
        <time>2021-12-20T08:40:48Z</time>
      </trkpt>
      <trkpt lat="47.49419" lon="6.7323">
        <ele>365.3</ele>
        <time>2021-12-20T08:40:53Z</time>
      </trkpt>
      <trkpt lat="47.49412" lon="6.73247">
        <ele>366.4</ele>
        <time>2021-12-20T08:40:58Z</time>
      </trkpt>
      <trkpt lat="47.49399" lon="6.73253">
        <ele>367.7</ele>
        <time>2021-12-20T08:41:03Z</time>
      </trkpt>
      <trkpt lat="47.49386" lon="6.73244">
        <ele>369</ele>
        <time>2021-12-20T08:41:08Z</time>
      </trkpt>
      <trkpt lat="47.49383" lon="6.73224">
        <ele>369.9</ele>
        <time>2021-12-20T08:41:13Z</time>
      </trkpt>
      <trkpt lat="47.49383" lon="6.73203">
        <ele>370.8</ele>
        <time>2021-12-20T08:41:18Z</time>
      </trkpt>
      <trkpt lat="47.49386" lon="6.73182">
        <ele>371.7</ele>
        <time>2021-12-20T08:41:23Z</time>
      </trkpt>
      <trkpt lat="47.49388" lon="6.73162">
        <ele>372.5</ele>
        <time>2021-12-20T08:41:28Z</time>
      </trkpt>
      <trkpt lat="47.49387" lon="6.7314">
        <ele>373.3</ele>
        <time>2021-12-20T08:41:33Z</time>
      </trkpt>
      <trkpt lat="47.49382" lon="6.7312">
        <ele>374.2</ele>
        <time>2021-12-20T08:41:38Z</time>
      </trkpt>
      <trkpt lat="47.49375" lon="6.73099">
        <ele>375.2</ele>
        <time>2021-12-20T08:41:43Z</time>
      </trkpt>
      <trkpt lat="47.49365" lon="6.7308">
        <ele>376.3</ele>
        <time>2021-12-20T08:41:48Z</time>
      </trkpt>
      <trkpt lat="47.49356" lon="6.73062">
        <ele>377.3</ele>
        <time>2021-12-20T08:41:53Z</time>
      </trkpt>
      <trkpt lat="47.49347" lon="6.73043">
        <ele>378.4</ele>
        <time>2021-12-20T08:41:58Z</time>
      </trkpt>
      <trkpt lat="47.49338" lon="6.73024">
        <ele>379.5</ele>
        <time>2021-12-20T08:42:03Z</time>
      </trkpt>
      <trkpt lat="47.49328" lon="6.73007">
        <ele>380.6</ele>
        <time>2021-12-20T08:42:08Z</time>
      </trkpt>
      <trkpt lat="47.49319" lon="6.7299">
        <ele>381.6</ele>
        <time>2021-12-20T08:42:13Z</time>
      </trkpt>
      <trkpt lat="47.49309" lon="6.72976">
        <ele>382.6</ele>
        <time>2021-12-20T08:42:18Z</time>
      </trkpt>
      <trkpt lat="47.49298" lon="6.72962">
        <ele>383.9</ele>
        <time>2021-12-20T08:42:24Z</time>
      </trkpt>
      <trkpt lat="47.49284" lon="6.72955">
        <ele>385.3</ele>
        <time>2021-12-20T08:42:31Z</time>
      </trkpt>
      <trkpt lat="47.4927" lon="6.72954">
        <ele>386.5</ele>
        <time>2021-12-20T08:42:36Z</time>
      </trkpt>
      <trkpt lat="47.49253" lon="6.72954">
        <ele>387.8</ele>
        <time>2021-12-20T08:42:43Z</time>
      </trkpt>
      <trkpt lat="47.49234" lon="6.72955">
        <ele>388.6</ele>
        <time>2021-12-20T08:42:49Z</time>
      </trkpt>
      <trkpt lat="47.49216" lon="6.72958">
        <ele>388.6</ele>
        <time>2021-12-20T08:42:54Z</time>
      </trkpt>
      <trkpt lat="47.49205" lon="6.72977">
        <ele>387.7</ele>
        <time>2021-12-20T08:42:59Z</time>
      </trkpt>
      <trkpt lat="47.49199" lon="6.73001">
        <ele>387.5</ele>
        <time>2021-12-20T08:43:04Z</time>
      </trkpt>
      <trkpt lat="47.49196" lon="6.7303">
        <ele>387.3</ele>
        <time>2021-12-20T08:43:09Z</time>
      </trkpt>
      <trkpt lat="47.49193" lon="6.73071">
        <ele>386.9</ele>
        <time>2021-12-20T08:43:14Z</time>
      </trkpt>
      <trkpt lat="47.4919" lon="6.73109">
        <ele>386.4</ele>
        <time>2021-12-20T08:43:19Z</time>
      </trkpt>
      <trkpt lat="47.49175" lon="6.73175">
        <ele>385</ele>
        <time>2021-12-20T08:43:27Z</time>
      </trkpt>
      <trkpt lat="47.49153" lon="6.73217">
        <ele>383.2</ele>
        <time>2021-12-20T08:43:32Z</time>
      </trkpt>
      <trkpt lat="47.49128" lon="6.73271">
        <ele>380.4</ele>
        <time>2021-12-20T08:43:37Z</time>
      </trkpt>
      <trkpt lat="47.4911" lon="6.73333">
        <ele>379.1</ele>
        <time>2021-12-20T08:43:42Z</time>
      </trkpt>
      <trkpt lat="47.49092" lon="6.73381">
        <ele>378.8</ele>
        <time>2021-12-20T08:43:47Z</time>
      </trkpt>
      <trkpt lat="47.49066" lon="6.73423">
        <ele>378.8</ele>
        <time>2021-12-20T08:43:52Z</time>
      </trkpt>
      <trkpt lat="47.49056" lon="6.73465">
        <ele>379.1</ele>
        <time>2021-12-20T08:43:57Z</time>
      </trkpt>
      <trkpt lat="47.49043" lon="6.73486">
        <ele>379.6</ele>
        <time>2021-12-20T08:44:02Z</time>
      </trkpt>
      <trkpt lat="47.49018" lon="6.73503">
        <ele>380</ele>
        <time>2021-12-20T08:44:07Z</time>
      </trkpt>
      <trkpt lat="47.4899" lon="6.73521">
        <ele>379.7</ele>
        <time>2021-12-20T08:44:12Z</time>
      </trkpt>
      <trkpt lat="47.48962" lon="6.7355">
        <ele>379.6</ele>
        <time>2021-12-20T08:44:17Z</time>
      </trkpt>
      <trkpt lat="47.48941" lon="6.73576">
        <ele>379.7</ele>
        <time>2021-12-20T08:44:22Z</time>
      </trkpt>
      <trkpt lat="47.48912" lon="6.73602">
        <ele>379.4</ele>
        <time>2021-12-20T08:44:27Z</time>
      </trkpt>
      <trkpt lat="47.48897" lon="6.73613">
        <ele>379.3</ele>
        <time>2021-12-20T08:44:32Z</time>
      </trkpt>
      <trkpt lat="47.48877" lon="6.73613">
        <ele>379.2</ele>
        <time>2021-12-20T08:44:37Z</time>
      </trkpt>
      <trkpt lat="47.48846" lon="6.73604">
        <ele>377.7</ele>
        <time>2021-12-20T08:44:42Z</time>
      </trkpt>
      <trkpt lat="47.48817" lon="6.73587">
        <ele>375.9</ele>
        <time>2021-12-20T08:44:47Z</time>
      </trkpt>
      <trkpt lat="47.48785" lon="6.73574">
        <ele>374.2</ele>
        <time>2021-12-20T08:44:52Z</time>
      </trkpt>
      <trkpt lat="47.48747" lon="6.73553">
        <ele>372.6</ele>
        <time>2021-12-20T08:44:57Z</time>
      </trkpt>
      <trkpt lat="47.48708" lon="6.73529">
        <ele>371.6</ele>
        <time>2021-12-20T08:45:02Z</time>
      </trkpt>
      <trkpt lat="47.48676" lon="6.73495">
        <ele>370.3</ele>
        <time>2021-12-20T08:45:07Z</time>
      </trkpt>
      <trkpt lat="47.48644" lon="6.73461">
        <ele>368.6</ele>
        <time>2021-12-20T08:45:12Z</time>
      </trkpt>
      <trkpt lat="47.48603" lon="6.73427">
        <ele>364.4</ele>
        <time>2021-12-20T08:45:17Z</time>
      </trkpt>
      <trkpt lat="47.48554" lon="6.73406">
        <ele>360.6</ele>
        <time>2021-12-20T08:45:22Z</time>
      </trkpt>
      <trkpt lat="47.48506" lon="6.73388">
        <ele>356.8</ele>
        <time>2021-12-20T08:45:27Z</time>
      </trkpt>
      <trkpt lat="47.48456" lon="6.73361">
        <ele>352.9</ele>
        <time>2021-12-20T08:45:32Z</time>
      </trkpt>
      <trkpt lat="47.48391" lon="6.73309">
        <ele>348</ele>
        <time>2021-12-20T08:45:39Z</time>
      </trkpt>
      <trkpt lat="47.48358" lon="6.73302">
        <ele>345.9</ele>
        <time>2021-12-20T08:45:44Z</time>
      </trkpt>
      <trkpt lat="47.48334" lon="6.73287">
        <ele>343</ele>
        <time>2021-12-20T08:45:49Z</time>
      </trkpt>
      <trkpt lat="47.48308" lon="6.73289">
        <ele>341.2</ele>
        <time>2021-12-20T08:45:54Z</time>
      </trkpt>
      <trkpt lat="47.48297" lon="6.73325">
        <ele>337</ele>
        <time>2021-12-20T08:45:59Z</time>
      </trkpt>
      <trkpt lat="47.48289" lon="6.7336">
        <ele>332</ele>
        <time>2021-12-20T08:46:04Z</time>
      </trkpt>
      <trkpt lat="47.48274" lon="6.73407">
        <ele>326.7</ele>
        <time>2021-12-20T08:46:09Z</time>
      </trkpt>
      <trkpt lat="47.48238" lon="6.73435">
        <ele>319.3</ele>
        <time>2021-12-20T08:46:14Z</time>
      </trkpt>
      <trkpt lat="47.48207" lon="6.73462">
        <ele>313.9</ele>
        <time>2021-12-20T08:46:19Z</time>
      </trkpt>
      <trkpt lat="47.48197" lon="6.73492">
        <ele>312.2</ele>
        <time>2021-12-20T08:46:24Z</time>
      </trkpt>
      <trkpt lat="47.48201" lon="6.73522">
        <ele>312.5</ele>
        <time>2021-12-20T08:46:29Z</time>
      </trkpt>
      <trkpt lat="47.48206" lon="6.73553">
        <ele>312.7</ele>
        <time>2021-12-20T08:46:34Z</time>
      </trkpt>
      <trkpt lat="47.48209" lon="6.73594">
        <ele>312.7</ele>
        <time>2021-12-20T08:46:39Z</time>
      </trkpt>
      <trkpt lat="47.48216" lon="6.73643">
        <ele>312.8</ele>
        <time>2021-12-20T08:46:44Z</time>
      </trkpt>
      <trkpt lat="47.48216" lon="6.73693">
        <ele>312.4</ele>
        <time>2021-12-20T08:46:49Z</time>
      </trkpt>
      <trkpt lat="47.48216" lon="6.73745">
        <ele>311.8</ele>
        <time>2021-12-20T08:46:54Z</time>
      </trkpt>
      <trkpt lat="47.48221" lon="6.73795">
        <ele>311.1</ele>
        <time>2021-12-20T08:46:59Z</time>
      </trkpt>
      <trkpt lat="47.4823" lon="6.73846">
        <ele>310.4</ele>
        <time>2021-12-20T08:47:04Z</time>
      </trkpt>
      <trkpt lat="47.48239" lon="6.73894">
        <ele>310</ele>
        <time>2021-12-20T08:47:09Z</time>
      </trkpt>
      <trkpt lat="47.48248" lon="6.73942">
        <ele>309.8</ele>
        <time>2021-12-20T08:47:14Z</time>
      </trkpt>
      <trkpt lat="47.48258" lon="6.73987">
        <ele>309.8</ele>
        <time>2021-12-20T08:47:19Z</time>
      </trkpt>
      <trkpt lat="47.48267" lon="6.74031">
        <ele>309.8</ele>
        <time>2021-12-20T08:47:24Z</time>
      </trkpt>
      <trkpt lat="47.48278" lon="6.74074">
        <ele>310</ele>
        <time>2021-12-20T08:47:29Z</time>
      </trkpt>
      <trkpt lat="47.4829" lon="6.74114">
        <ele>310.2</ele>
        <time>2021-12-20T08:47:34Z</time>
      </trkpt>
      <trkpt lat="47.48301" lon="6.74154">
        <ele>310.4</ele>
        <time>2021-12-20T08:47:39Z</time>
      </trkpt>
      <trkpt lat="47.48312" lon="6.74197">
        <ele>310.6</ele>
        <time>2021-12-20T08:47:44Z</time>
      </trkpt>
      <trkpt lat="47.4831" lon="6.74241">
        <ele>310.9</ele>
        <time>2021-12-20T08:47:49Z</time>
      </trkpt>
      <trkpt lat="47.48298" lon="6.7429">
        <ele>311.1</ele>
        <time>2021-12-20T08:47:55Z</time>
      </trkpt>
      <trkpt lat="47.48288" lon="6.74329">
        <ele>311.3</ele>
        <time>2021-12-20T08:48:00Z</time>
      </trkpt>
      <trkpt lat="47.48283" lon="6.7437">
        <ele>311.2</ele>
        <time>2021-12-20T08:48:05Z</time>
      </trkpt>
      <trkpt lat="47.48286" lon="6.74413">
        <ele>311.1</ele>
        <time>2021-12-20T08:48:10Z</time>
      </trkpt>
      <trkpt lat="47.48289" lon="6.74457">
        <ele>311.1</ele>
        <time>2021-12-20T08:48:15Z</time>
      </trkpt>
      <trkpt lat="47.48296" lon="6.74501">
        <ele>310.8</ele>
        <time>2021-12-20T08:48:20Z</time>
      </trkpt>
      <trkpt lat="47.48303" lon="6.74543">
        <ele>310.6</ele>
        <time>2021-12-20T08:48:25Z</time>
      </trkpt>
      <trkpt lat="47.48309" lon="6.74586">
        <ele>310.9</ele>
        <time>2021-12-20T08:48:30Z</time>
      </trkpt>
      <trkpt lat="47.48321" lon="6.74622">
        <ele>311.5</ele>
        <time>2021-12-20T08:48:35Z</time>
      </trkpt>
      <trkpt lat="47.4833" lon="6.74656">
        <ele>312</ele>
        <time>2021-12-20T08:48:40Z</time>
      </trkpt>
      <trkpt lat="47.48337" lon="6.74688">
        <ele>312.7</ele>
        <time>2021-12-20T08:48:45Z</time>
      </trkpt>
      <trkpt lat="47.48344" lon="6.74722">
        <ele>313.4</ele>
        <time>2021-12-20T08:48:50Z</time>
      </trkpt>
      <trkpt lat="47.4835" lon="6.74755">
        <ele>314.2</ele>
        <time>2021-12-20T08:48:55Z</time>
      </trkpt>
      <trkpt lat="47.48355" lon="6.74788">
        <ele>314.8</ele>
        <time>2021-12-20T08:49:00Z</time>
      </trkpt>
      <trkpt lat="47.48357" lon="6.74823">
        <ele>315.4</ele>
        <time>2021-12-20T08:49:05Z</time>
      </trkpt>
      <trkpt lat="47.48354" lon="6.74855">
        <ele>316</ele>
        <time>2021-12-20T08:49:10Z</time>
      </trkpt>
      <trkpt lat="47.48348" lon="6.74888">
        <ele>316.6</ele>
        <time>2021-12-20T08:49:15Z</time>
      </trkpt>
      <trkpt lat="47.48341" lon="6.74919">
        <ele>317.5</ele>
        <time>2021-12-20T08:49:20Z</time>
      </trkpt>
      <trkpt lat="47.48335" lon="6.74948">
        <ele>318.4</ele>
        <time>2021-12-20T08:49:25Z</time>
      </trkpt>
      <trkpt lat="47.4833" lon="6.74976">
        <ele>319.2</ele>
        <time>2021-12-20T08:49:30Z</time>
      </trkpt>
      <trkpt lat="47.48323" lon="6.75002">
        <ele>320</ele>
        <time>2021-12-20T08:49:35Z</time>
      </trkpt>
      <trkpt lat="47.48316" lon="6.75027">
        <ele>320.9</ele>
        <time>2021-12-20T08:49:40Z</time>
      </trkpt>
      <trkpt lat="47.48311" lon="6.75052">
        <ele>321.8</ele>
        <time>2021-12-20T08:49:45Z</time>
      </trkpt>
      <trkpt lat="47.48306" lon="6.75077">
        <ele>322.5</ele>
        <time>2021-12-20T08:49:50Z</time>
      </trkpt>
      <trkpt lat="47.48309" lon="6.75103">
        <ele>323.7</ele>
        <time>2021-12-20T08:49:55Z</time>
      </trkpt>
      <trkpt lat="47.48324" lon="6.75117">
        <ele>325.9</ele>
        <time>2021-12-20T08:50:00Z</time>
      </trkpt>
      <trkpt lat="47.4834" lon="6.75125">
        <ele>328.2</ele>
        <time>2021-12-20T08:50:05Z</time>
      </trkpt>
      <trkpt lat="47.48346" lon="6.75142">
        <ele>329.1</ele>
        <time>2021-12-20T08:50:10Z</time>
      </trkpt>
      <trkpt lat="47.48349" lon="6.75163">
        <ele>330.1</ele>
        <time>2021-12-20T08:50:15Z</time>
      </trkpt>
      <trkpt lat="47.48354" lon="6.75182">
        <ele>331</ele>
        <time>2021-12-20T08:50:20Z</time>
      </trkpt>
      <trkpt lat="47.48359" lon="6.75202">
        <ele>331.9</ele>
        <time>2021-12-20T08:50:25Z</time>
      </trkpt>
      <trkpt lat="47.48367" lon="6.75244">
        <ele>333.8</ele>
        <time>2021-12-20T08:50:34Z</time>
      </trkpt>
      <trkpt lat="47.48373" lon="6.75266">
        <ele>335.1</ele>
        <time>2021-12-20T08:50:39Z</time>
      </trkpt>
      <trkpt lat="47.4838" lon="6.75284">
        <ele>336.4</ele>
        <time>2021-12-20T08:50:44Z</time>
      </trkpt>
      <trkpt lat="47.48391" lon="6.75296">
        <ele>337.9</ele>
        <time>2021-12-20T08:50:49Z</time>
      </trkpt>
      <trkpt lat="47.48402" lon="6.75307">
        <ele>339.5</ele>
        <time>2021-12-20T08:50:54Z</time>
      </trkpt>
      <trkpt lat="47.48412" lon="6.75316">
        <ele>341</ele>
        <time>2021-12-20T08:50:59Z</time>
      </trkpt>
      <trkpt lat="47.48422" lon="6.75326">
        <ele>342.3</ele>
        <time>2021-12-20T08:51:04Z</time>
      </trkpt>
      <trkpt lat="47.48438" lon="6.75345">
        <ele>344.1</ele>
        <time>2021-12-20T08:51:13Z</time>
      </trkpt>
      <trkpt lat="47.48445" lon="6.75359">
        <ele>344.7</ele>
        <time>2021-12-20T08:51:18Z</time>
      </trkpt>
      <trkpt lat="47.48447" lon="6.75378">
        <ele>345.1</ele>
        <time>2021-12-20T08:51:23Z</time>
      </trkpt>
      <trkpt lat="47.48449" lon="6.75401">
        <ele>345.4</ele>
        <time>2021-12-20T08:51:28Z</time>
      </trkpt>
      <trkpt lat="47.48449" lon="6.75432">
        <ele>345.6</ele>
        <time>2021-12-20T08:51:33Z</time>
      </trkpt>
      <trkpt lat="47.48447" lon="6.75467">
        <ele>345.8</ele>
        <time>2021-12-20T08:51:38Z</time>
      </trkpt>
      <trkpt lat="47.48445" lon="6.75502">
        <ele>345.9</ele>
        <time>2021-12-20T08:51:43Z</time>
      </trkpt>
      <trkpt lat="47.48442" lon="6.75536">
        <ele>345.8</ele>
        <time>2021-12-20T08:51:48Z</time>
      </trkpt>
      <trkpt lat="47.48433" lon="6.75569">
        <ele>345.3</ele>
        <time>2021-12-20T08:51:53Z</time>
      </trkpt>
      <trkpt lat="47.48409" lon="6.75591">
        <ele>344.5</ele>
        <time>2021-12-20T08:51:58Z</time>
      </trkpt>
      <trkpt lat="47.48385" lon="6.75604">
        <ele>345.4</ele>
        <time>2021-12-20T08:52:03Z</time>
      </trkpt>
      <trkpt lat="47.48368" lon="6.75609">
        <ele>346.7</ele>
        <time>2021-12-20T08:52:08Z</time>
      </trkpt>
      <trkpt lat="47.48355" lon="6.75617">
        <ele>347.8</ele>
        <time>2021-12-20T08:52:13Z</time>
      </trkpt>
      <trkpt lat="47.48343" lon="6.75625">
        <ele>348.8</ele>
        <time>2021-12-20T08:52:18Z</time>
      </trkpt>
      <trkpt lat="47.48331" lon="6.75631">
        <ele>349.8</ele>
        <time>2021-12-20T08:52:23Z</time>
      </trkpt>
      <trkpt lat="47.48319" lon="6.75638">
        <ele>350.8</ele>
        <time>2021-12-20T08:52:28Z</time>
      </trkpt>
      <trkpt lat="47.48306" lon="6.75648">
        <ele>351.9</ele>
        <time>2021-12-20T08:52:33Z</time>
      </trkpt>
      <trkpt lat="47.48294" lon="6.7566">
        <ele>353</ele>
        <time>2021-12-20T08:52:38Z</time>
      </trkpt>
      <trkpt lat="47.48283" lon="6.75672">
        <ele>353.8</ele>
        <time>2021-12-20T08:52:43Z</time>
      </trkpt>
      <trkpt lat="47.48265" lon="6.75682">
        <ele>354.2</ele>
        <time>2021-12-20T08:52:48Z</time>
      </trkpt>
      <trkpt lat="47.48248" lon="6.757">
        <ele>352.4</ele>
        <time>2021-12-20T08:52:53Z</time>
      </trkpt>
      <trkpt lat="47.4822" lon="6.75735">
        <ele>349.8</ele>
        <time>2021-12-20T08:52:58Z</time>
      </trkpt>
      <trkpt lat="47.48183" lon="6.75783">
        <ele>345.7</ele>
        <time>2021-12-20T08:53:03Z</time>
      </trkpt>
      <trkpt lat="47.48147" lon="6.75845">
        <ele>341.1</ele>
        <time>2021-12-20T08:53:08Z</time>
      </trkpt>
      <trkpt lat="47.48117" lon="6.7591">
        <ele>337.1</ele>
        <time>2021-12-20T08:53:13Z</time>
      </trkpt>
      <trkpt lat="47.4809" lon="6.75973">
        <ele>333.2</ele>
        <time>2021-12-20T08:53:18Z</time>
      </trkpt>
      <trkpt lat="47.48069" lon="6.76031">
        <ele>329.5</ele>
        <time>2021-12-20T08:53:23Z</time>
      </trkpt>
      <trkpt lat="47.48053" lon="6.7608">
        <ele>327</ele>
        <time>2021-12-20T08:53:28Z</time>
      </trkpt>
      <trkpt lat="47.48027" lon="6.7609">
        <ele>324.4</ele>
        <time>2021-12-20T08:53:33Z</time>
      </trkpt>
      <trkpt lat="47.48036" lon="6.76046">
        <ele>321.9</ele>
        <time>2021-12-20T08:53:38Z</time>
      </trkpt>
      <trkpt lat="47.48024" lon="6.76017">
        <ele>319.6</ele>
        <time>2021-12-20T08:53:43Z</time>
      </trkpt>
      <trkpt lat="47.48008" lon="6.76033">
        <ele>317.8</ele>
        <time>2021-12-20T08:53:48Z</time>
      </trkpt>
      <trkpt lat="47.47992" lon="6.76073">
        <ele>315.6</ele>
        <time>2021-12-20T08:53:53Z</time>
      </trkpt>
      <trkpt lat="47.47965" lon="6.76111">
        <ele>313.1</ele>
        <time>2021-12-20T08:53:58Z</time>
      </trkpt>
      <trkpt lat="47.47939" lon="6.76143">
        <ele>311.6</ele>
        <time>2021-12-20T08:54:03Z</time>
      </trkpt>
      <trkpt lat="47.47931" lon="6.76158">
        <ele>311.4</ele>
        <time>2021-12-20T08:54:08Z</time>
      </trkpt>
      <trkpt lat="47.4793" lon="6.76162">
        <ele>311.3</ele>
        <time>2021-12-20T08:54:13Z</time>
      </trkpt>
      <trkpt lat="47.47942" lon="6.76217">
        <ele>311.5</ele>
        <time>2021-12-20T08:54:50Z</time>
      </trkpt>
      <trkpt lat="47.47962" lon="6.7624">
        <ele>311.8</ele>
        <time>2021-12-20T08:54:55Z</time>
      </trkpt>
      <trkpt lat="47.47982" lon="6.76263">
        <ele>312</ele>
        <time>2021-12-20T08:55:00Z</time>
      </trkpt>
      <trkpt lat="47.47999" lon="6.76289">
        <ele>312.3</ele>
        <time>2021-12-20T08:55:05Z</time>
      </trkpt>
      <trkpt lat="47.48016" lon="6.76318">
        <ele>312.7</ele>
        <time>2021-12-20T08:55:10Z</time>
      </trkpt>
      <trkpt lat="47.48032" lon="6.76348">
        <ele>313</ele>
        <time>2021-12-20T08:55:15Z</time>
      </trkpt>
      <trkpt lat="47.48048" lon="6.76381">
        <ele>313</ele>
        <time>2021-12-20T08:55:20Z</time>
      </trkpt>
      <trkpt lat="47.48062" lon="6.76418">
        <ele>313</ele>
        <time>2021-12-20T08:55:25Z</time>
      </trkpt>
      <trkpt lat="47.48084" lon="6.76445">
        <ele>313.1</ele>
        <time>2021-12-20T08:55:30Z</time>
      </trkpt>
      <trkpt lat="47.48098" lon="6.76476">
        <ele>313.3</ele>
        <time>2021-12-20T08:55:35Z</time>
      </trkpt>
      <trkpt lat="47.48101" lon="6.76504">
        <ele>313.5</ele>
        <time>2021-12-20T08:55:40Z</time>
      </trkpt>
      <trkpt lat="47.48089" lon="6.7652">
        <ele>313.6</ele>
        <time>2021-12-20T08:55:45Z</time>
      </trkpt>
      <trkpt lat="47.48065" lon="6.7654">
        <ele>313.8</ele>
        <time>2021-12-20T08:55:50Z</time>
      </trkpt>
      <trkpt lat="47.48041" lon="6.7656">
        <ele>313.9</ele>
        <time>2021-12-20T08:55:55Z</time>
      </trkpt>
      <trkpt lat="47.48018" lon="6.7658">
        <ele>314</ele>
        <time>2021-12-20T08:56:00Z</time>
      </trkpt>
      <trkpt lat="47.4799" lon="6.76596">
        <ele>313.9</ele>
        <time>2021-12-20T08:56:05Z</time>
      </trkpt>
      <trkpt lat="47.4796" lon="6.76615">
        <ele>313.3</ele>
        <time>2021-12-20T08:56:10Z</time>
      </trkpt>
      <trkpt lat="47.47928" lon="6.76636">
        <ele>312.1</ele>
        <time>2021-12-20T08:56:15Z</time>
      </trkpt>
      <trkpt lat="47.47895" lon="6.76668">
        <ele>311.1</ele>
        <time>2021-12-20T08:56:20Z</time>
      </trkpt>
      <trkpt lat="47.47874" lon="6.76715">
        <ele>310.9</ele>
        <time>2021-12-20T08:56:25Z</time>
      </trkpt>
      <trkpt lat="47.47855" lon="6.76757">
        <ele>311.2</ele>
        <time>2021-12-20T08:56:30Z</time>
      </trkpt>
      <trkpt lat="47.47836" lon="6.76794">
        <ele>311.5</ele>
        <time>2021-12-20T08:56:35Z</time>
      </trkpt>
      <trkpt lat="47.4781" lon="6.76807">
        <ele>311.9</ele>
        <time>2021-12-20T08:56:40Z</time>
      </trkpt>
      <trkpt lat="47.47783" lon="6.76796">
        <ele>312.1</ele>
        <time>2021-12-20T08:56:45Z</time>
      </trkpt>
      <trkpt lat="47.47759" lon="6.76789">
        <ele>312.3</ele>
        <time>2021-12-20T08:56:50Z</time>
      </trkpt>
      <trkpt lat="47.47728" lon="6.76779">
        <ele>312</ele>
        <time>2021-12-20T08:56:55Z</time>
      </trkpt>
      <trkpt lat="47.47696" lon="6.76752">
        <ele>311.3</ele>
        <time>2021-12-20T08:57:00Z</time>
      </trkpt>
      <trkpt lat="47.4766" lon="6.76729">
        <ele>311.2</ele>
        <time>2021-12-20T08:57:05Z</time>
      </trkpt>
      <trkpt lat="47.47627" lon="6.76711">
        <ele>311.3</ele>
        <time>2021-12-20T08:57:10Z</time>
      </trkpt>
      <trkpt lat="47.47594" lon="6.76692">
        <ele>311.5</ele>
        <time>2021-12-20T08:57:15Z</time>
      </trkpt>
      <trkpt lat="47.47564" lon="6.76672">
        <ele>311.8</ele>
        <time>2021-12-20T08:57:20Z</time>
      </trkpt>
      <trkpt lat="47.47538" lon="6.76643">
        <ele>312.2</ele>
        <time>2021-12-20T08:57:25Z</time>
      </trkpt>
      <trkpt lat="47.47518" lon="6.76613">
        <ele>312.6</ele>
        <time>2021-12-20T08:57:30Z</time>
      </trkpt>
      <trkpt lat="47.47498" lon="6.76581">
        <ele>312.9</ele>
        <time>2021-12-20T08:57:35Z</time>
      </trkpt>
      <trkpt lat="47.47476" lon="6.76549">
        <ele>313</ele>
        <time>2021-12-20T08:57:40Z</time>
      </trkpt>
      <trkpt lat="47.47452" lon="6.76517">
        <ele>312.9</ele>
        <time>2021-12-20T08:57:45Z</time>
      </trkpt>
      <trkpt lat="47.47424" lon="6.76498">
        <ele>312.7</ele>
        <time>2021-12-20T08:57:50Z</time>
      </trkpt>
      <trkpt lat="47.47395" lon="6.76507">
        <ele>312.8</ele>
        <time>2021-12-20T08:57:55Z</time>
      </trkpt>
      <trkpt lat="47.47366" lon="6.76511">
        <ele>313</ele>
        <time>2021-12-20T08:58:00Z</time>
      </trkpt>
      <trkpt lat="47.47341" lon="6.76512">
        <ele>313.4</ele>
        <time>2021-12-20T08:58:05Z</time>
      </trkpt>
      <trkpt lat="47.47316" lon="6.76515">
        <ele>314</ele>
        <time>2021-12-20T08:58:10Z</time>
      </trkpt>
      <trkpt lat="47.47293" lon="6.76517">
        <ele>314.8</ele>
        <time>2021-12-20T08:58:15Z</time>
      </trkpt>
      <trkpt lat="47.47271" lon="6.76518">
        <ele>315.6</ele>
        <time>2021-12-20T08:58:20Z</time>
      </trkpt>
      <trkpt lat="47.4725" lon="6.76523">
        <ele>316.3</ele>
        <time>2021-12-20T08:58:25Z</time>
      </trkpt>
      <trkpt lat="47.47229" lon="6.76526">
        <ele>317</ele>
        <time>2021-12-20T08:58:30Z</time>
      </trkpt>
      <trkpt lat="47.47208" lon="6.76529">
        <ele>317.7</ele>
        <time>2021-12-20T08:58:35Z</time>
      </trkpt>
      <trkpt lat="47.47187" lon="6.76528">
        <ele>318.3</ele>
        <time>2021-12-20T08:58:40Z</time>
      </trkpt>
      <trkpt lat="47.47163" lon="6.76532">
        <ele>319.2</ele>
        <time>2021-12-20T08:58:45Z</time>
      </trkpt>
      <trkpt lat="47.47142" lon="6.76534">
        <ele>319.9</ele>
        <time>2021-12-20T08:58:50Z</time>
      </trkpt>
      <trkpt lat="47.47121" lon="6.76536">
        <ele>320.6</ele>
        <time>2021-12-20T08:58:55Z</time>
      </trkpt>
      <trkpt lat="47.47101" lon="6.76538">
        <ele>321.4</ele>
        <time>2021-12-20T08:59:00Z</time>
      </trkpt>
      <trkpt lat="47.47078" lon="6.76541">
        <ele>322.2</ele>
        <time>2021-12-20T08:59:05Z</time>
      </trkpt>
      <trkpt lat="47.47058" lon="6.76543">
        <ele>323</ele>
        <time>2021-12-20T08:59:10Z</time>
      </trkpt>
      <trkpt lat="47.47036" lon="6.76541">
        <ele>323.5</ele>
        <time>2021-12-20T08:59:15Z</time>
      </trkpt>
      <trkpt lat="47.47014" lon="6.76537">
        <ele>324.1</ele>
        <time>2021-12-20T08:59:20Z</time>
      </trkpt>
      <trkpt lat="47.46993" lon="6.76531">
        <ele>324.7</ele>
        <time>2021-12-20T08:59:25Z</time>
      </trkpt>
      <trkpt lat="47.46972" lon="6.76521">
        <ele>325.3</ele>
        <time>2021-12-20T08:59:30Z</time>
      </trkpt>
      <trkpt lat="47.46951" lon="6.76509">
        <ele>326</ele>
        <time>2021-12-20T08:59:35Z</time>
      </trkpt>
      <trkpt lat="47.46931" lon="6.76496">
        <ele>326.6</ele>
        <time>2021-12-20T08:59:40Z</time>
      </trkpt>
      <trkpt lat="47.46912" lon="6.7648">
        <ele>327.2</ele>
        <time>2021-12-20T08:59:45Z</time>
      </trkpt>
      <trkpt lat="47.46893" lon="6.76465">
        <ele>327.8</ele>
        <time>2021-12-20T08:59:50Z</time>
      </trkpt>
      <trkpt lat="47.46874" lon="6.76451">
        <ele>328.4</ele>
        <time>2021-12-20T08:59:55Z</time>
      </trkpt>
      <trkpt lat="47.46853" lon="6.7644">
        <ele>329.1</ele>
        <time>2021-12-20T09:00:00Z</time>
      </trkpt>
      <trkpt lat="47.46832" lon="6.76433">
        <ele>329.8</ele>
        <time>2021-12-20T09:00:05Z</time>
      </trkpt>
      <trkpt lat="47.46812" lon="6.76429">
        <ele>330.5</ele>
        <time>2021-12-20T09:00:10Z</time>
      </trkpt>
      <trkpt lat="47.46793" lon="6.76427">
        <ele>331.2</ele>
        <time>2021-12-20T09:00:15Z</time>
      </trkpt>
      <trkpt lat="47.46775" lon="6.76434">
        <ele>331.6</ele>
        <time>2021-12-20T09:00:20Z</time>
      </trkpt>
      <trkpt lat="47.46743" lon="6.76446">
        <ele>332.3</ele>
        <time>2021-12-20T09:00:27Z</time>
      </trkpt>
      <trkpt lat="47.46725" lon="6.76455">
        <ele>332.8</ele>
        <time>2021-12-20T09:00:32Z</time>
      </trkpt>
      <trkpt lat="47.46703" lon="6.76465">
        <ele>333.6</ele>
        <time>2021-12-20T09:00:37Z</time>
      </trkpt>
      <trkpt lat="47.46682" lon="6.76474">
        <ele>334.4</ele>
        <time>2021-12-20T09:00:42Z</time>
      </trkpt>
      <trkpt lat="47.46663" lon="6.76486">
        <ele>335.1</ele>
        <time>2021-12-20T09:00:47Z</time>
      </trkpt>
      <trkpt lat="47.46642" lon="6.76496">
        <ele>335.8</ele>
        <time>2021-12-20T09:00:52Z</time>
      </trkpt>
      <trkpt lat="47.46622" lon="6.76506">
        <ele>336.4</ele>
        <time>2021-12-20T09:00:57Z</time>
      </trkpt>
      <trkpt lat="47.466" lon="6.76517">
        <ele>337.2</ele>
        <time>2021-12-20T09:01:02Z</time>
      </trkpt>
      <trkpt lat="47.46578" lon="6.76527">
        <ele>338.1</ele>
        <time>2021-12-20T09:01:07Z</time>
      </trkpt>
      <trkpt lat="47.46556" lon="6.76533">
        <ele>339</ele>
        <time>2021-12-20T09:01:12Z</time>
      </trkpt>
      <trkpt lat="47.46536" lon="6.76536">
        <ele>340</ele>
        <time>2021-12-20T09:01:17Z</time>
      </trkpt>
      <trkpt lat="47.46517" lon="6.76538">
        <ele>341.3</ele>
        <time>2021-12-20T09:01:22Z</time>
      </trkpt>
      <trkpt lat="47.465" lon="6.76536">
        <ele>342.4</ele>
        <time>2021-12-20T09:01:27Z</time>
      </trkpt>
      <trkpt lat="47.46481" lon="6.76533">
        <ele>343.6</ele>
        <time>2021-12-20T09:01:32Z</time>
      </trkpt>
      <trkpt lat="47.46461" lon="6.76527">
        <ele>344.9</ele>
        <time>2021-12-20T09:01:39Z</time>
      </trkpt>
      <trkpt lat="47.46439" lon="6.76522">
        <ele>346.3</ele>
        <time>2021-12-20T09:01:44Z</time>
      </trkpt>
      <trkpt lat="47.46417" lon="6.76519">
        <ele>347.6</ele>
        <time>2021-12-20T09:01:50Z</time>
      </trkpt>
      <trkpt lat="47.46397" lon="6.76518">
        <ele>348.5</ele>
        <time>2021-12-20T09:01:55Z</time>
      </trkpt>
      <trkpt lat="47.46379" lon="6.76518">
        <ele>349.3</ele>
        <time>2021-12-20T09:02:00Z</time>
      </trkpt>
      <trkpt lat="47.46356" lon="6.76523">
        <ele>350.2</ele>
        <time>2021-12-20T09:02:06Z</time>
      </trkpt>
      <trkpt lat="47.46338" lon="6.76529">
        <ele>351</ele>
        <time>2021-12-20T09:02:11Z</time>
      </trkpt>
      <trkpt lat="47.4632" lon="6.76539">
        <ele>351.7</ele>
        <time>2021-12-20T09:02:16Z</time>
      </trkpt>
      <trkpt lat="47.46302" lon="6.76552">
        <ele>352.4</ele>
        <time>2021-12-20T09:02:21Z</time>
      </trkpt>
      <trkpt lat="47.46286" lon="6.76564">
        <ele>353</ele>
        <time>2021-12-20T09:02:26Z</time>
      </trkpt>
      <trkpt lat="47.4627" lon="6.76577">
        <ele>353.7</ele>
        <time>2021-12-20T09:02:31Z</time>
      </trkpt>
      <trkpt lat="47.46253" lon="6.76591">
        <ele>354.4</ele>
        <time>2021-12-20T09:02:36Z</time>
      </trkpt>
      <trkpt lat="47.46235" lon="6.76604">
        <ele>355.1</ele>
        <time>2021-12-20T09:02:41Z</time>
      </trkpt>
      <trkpt lat="47.46216" lon="6.76618">
        <ele>355.9</ele>
        <time>2021-12-20T09:02:46Z</time>
      </trkpt>
      <trkpt lat="47.46196" lon="6.76633">
        <ele>356.5</ele>
        <time>2021-12-20T09:02:51Z</time>
      </trkpt>
      <trkpt lat="47.46176" lon="6.76644">
        <ele>357.2</ele>
        <time>2021-12-20T09:02:56Z</time>
      </trkpt>
      <trkpt lat="47.46155" lon="6.76655">
        <ele>357.7</ele>
        <time>2021-12-20T09:03:01Z</time>
      </trkpt>
      <trkpt lat="47.46133" lon="6.76665">
        <ele>358.3</ele>
        <time>2021-12-20T09:03:06Z</time>
      </trkpt>
      <trkpt lat="47.46111" lon="6.76673">
        <ele>358.9</ele>
        <time>2021-12-20T09:03:11Z</time>
      </trkpt>
      <trkpt lat="47.4609" lon="6.7668">
        <ele>359.6</ele>
        <time>2021-12-20T09:03:16Z</time>
      </trkpt>
      <trkpt lat="47.46068" lon="6.76684">
        <ele>360.3</ele>
        <time>2021-12-20T09:03:21Z</time>
      </trkpt>
      <trkpt lat="47.46047" lon="6.76689">
        <ele>361</ele>
        <time>2021-12-20T09:03:26Z</time>
      </trkpt>
      <trkpt lat="47.46026" lon="6.76694">
        <ele>361.8</ele>
        <time>2021-12-20T09:03:31Z</time>
      </trkpt>
      <trkpt lat="47.46008" lon="6.76694">
        <ele>362.4</ele>
        <time>2021-12-20T09:03:36Z</time>
      </trkpt>
      <trkpt lat="47.45987" lon="6.767">
        <ele>363.1</ele>
        <time>2021-12-20T09:03:41Z</time>
      </trkpt>
      <trkpt lat="47.45964" lon="6.76704">
        <ele>363.9</ele>
        <time>2021-12-20T09:03:46Z</time>
      </trkpt>
      <trkpt lat="47.45944" lon="6.76714">
        <ele>364.8</ele>
        <time>2021-12-20T09:03:51Z</time>
      </trkpt>
      <trkpt lat="47.45922" lon="6.7672">
        <ele>365.6</ele>
        <time>2021-12-20T09:03:56Z</time>
      </trkpt>
      <trkpt lat="47.45886" lon="6.76725">
        <ele>367</ele>
        <time>2021-12-20T09:04:04Z</time>
      </trkpt>
      <trkpt lat="47.45861" lon="6.76727">
        <ele>368</ele>
        <time>2021-12-20T09:04:09Z</time>
      </trkpt>
      <trkpt lat="47.45841" lon="6.76726">
        <ele>368.8</ele>
        <time>2021-12-20T09:04:14Z</time>
      </trkpt>
      <trkpt lat="47.4582" lon="6.76726">
        <ele>369.6</ele>
        <time>2021-12-20T09:04:19Z</time>
      </trkpt>
      <trkpt lat="47.45799" lon="6.76725">
        <ele>370.4</ele>
        <time>2021-12-20T09:04:24Z</time>
      </trkpt>
      <trkpt lat="47.45783" lon="6.76725">
        <ele>370.9</ele>
        <time>2021-12-20T09:04:29Z</time>
      </trkpt>
      <trkpt lat="47.45765" lon="6.76725">
        <ele>371.5</ele>
        <time>2021-12-20T09:04:34Z</time>
      </trkpt>
      <trkpt lat="47.45745" lon="6.76724">
        <ele>372.1</ele>
        <time>2021-12-20T09:04:39Z</time>
      </trkpt>
      <trkpt lat="47.45728" lon="6.76725">
        <ele>372.8</ele>
        <time>2021-12-20T09:04:44Z</time>
      </trkpt>
      <trkpt lat="47.45707" lon="6.76725">
        <ele>373.6</ele>
        <time>2021-12-20T09:04:49Z</time>
      </trkpt>
      <trkpt lat="47.45688" lon="6.76727">
        <ele>374.3</ele>
        <time>2021-12-20T09:04:54Z</time>
      </trkpt>
      <trkpt lat="47.45661" lon="6.76729">
        <ele>375.4</ele>
        <time>2021-12-20T09:04:59Z</time>
      </trkpt>
      <trkpt lat="47.45638" lon="6.76733">
        <ele>376.4</ele>
        <time>2021-12-20T09:05:04Z</time>
      </trkpt>
      <trkpt lat="47.45616" lon="6.76739">
        <ele>377.1</ele>
        <time>2021-12-20T09:05:09Z</time>
      </trkpt>
      <trkpt lat="47.45595" lon="6.76742">
        <ele>377.8</ele>
        <time>2021-12-20T09:05:14Z</time>
      </trkpt>
      <trkpt lat="47.45575" lon="6.76746">
        <ele>378.5</ele>
        <time>2021-12-20T09:05:19Z</time>
      </trkpt>
      <trkpt lat="47.45556" lon="6.76751">
        <ele>379.2</ele>
        <time>2021-12-20T09:05:24Z</time>
      </trkpt>
      <trkpt lat="47.45538" lon="6.76759">
        <ele>379.8</ele>
        <time>2021-12-20T09:05:29Z</time>
      </trkpt>
      <trkpt lat="47.45518" lon="6.76764">
        <ele>380.5</ele>
        <time>2021-12-20T09:05:34Z</time>
      </trkpt>
      <trkpt lat="47.45494" lon="6.7677">
        <ele>381.3</ele>
        <time>2021-12-20T09:05:39Z</time>
      </trkpt>
      <trkpt lat="47.4547" lon="6.76776">
        <ele>382</ele>
        <time>2021-12-20T09:05:44Z</time>
      </trkpt>
      <trkpt lat="47.4544" lon="6.76783">
        <ele>383</ele>
        <time>2021-12-20T09:05:49Z</time>
      </trkpt>
      <trkpt lat="47.45413" lon="6.76788">
        <ele>383.8</ele>
        <time>2021-12-20T09:05:54Z</time>
      </trkpt>
      <trkpt lat="47.45388" lon="6.76794">
        <ele>384.4</ele>
        <time>2021-12-20T09:05:59Z</time>
      </trkpt>
      <trkpt lat="47.45367" lon="6.76797">
        <ele>384.9</ele>
        <time>2021-12-20T09:06:04Z</time>
      </trkpt>
      <trkpt lat="47.45364" lon="6.76793">
        <ele>385</ele>
        <time>2021-12-20T09:06:09Z</time>
      </trkpt>
      <trkpt lat="47.4533" lon="6.7679">
        <ele>385.4</ele>
        <time>2021-12-20T09:06:15Z</time>
      </trkpt>
      <trkpt lat="47.45274" lon="6.76773">
        <ele>385.6</ele>
        <time>2021-12-20T09:07:55Z</time>
      </trkpt>
      <trkpt lat="47.4525" lon="6.76753">
        <ele>385.9</ele>
        <time>2021-12-20T09:08:00Z</time>
      </trkpt>
      <trkpt lat="47.45246" lon="6.76747">
        <ele>385.9</ele>
        <time>2021-12-20T09:08:05Z</time>
      </trkpt>
      <trkpt lat="47.45224" lon="6.7675">
        <ele>385.6</ele>
        <time>2021-12-20T09:08:11Z</time>
      </trkpt>
      <trkpt lat="47.45183" lon="6.76829">
        <ele>382.4</ele>
        <time>2021-12-20T09:08:24Z</time>
      </trkpt>
      <trkpt lat="47.45161" lon="6.76878">
        <ele>380.3</ele>
        <time>2021-12-20T09:08:29Z</time>
      </trkpt>
      <trkpt lat="47.4514" lon="6.7693">
        <ele>378.3</ele>
        <time>2021-12-20T09:08:34Z</time>
      </trkpt>
      <trkpt lat="47.45117" lon="6.76982">
        <ele>376.4</ele>
        <time>2021-12-20T09:08:39Z</time>
      </trkpt>
      <trkpt lat="47.45094" lon="6.77035">
        <ele>374.7</ele>
        <time>2021-12-20T09:08:44Z</time>
      </trkpt>
      <trkpt lat="47.45077" lon="6.77091">
        <ele>373.5</ele>
        <time>2021-12-20T09:08:49Z</time>
      </trkpt>
      <trkpt lat="47.45065" lon="6.77148">
        <ele>372.3</ele>
        <time>2021-12-20T09:08:54Z</time>
      </trkpt>
      <trkpt lat="47.45058" lon="6.77207">
        <ele>370.9</ele>
        <time>2021-12-20T09:08:59Z</time>
      </trkpt>
      <trkpt lat="47.45045" lon="6.77236">
        <ele>370.2</ele>
        <time>2021-12-20T09:09:04Z</time>
      </trkpt>
      <trkpt lat="47.45029" lon="6.77225">
        <ele>373.4</ele>
        <time>2021-12-20T09:09:09Z</time>
      </trkpt>
      <trkpt lat="47.45021" lon="6.77211">
        <ele>375</ele>
        <time>2021-12-20T09:09:14Z</time>
      </trkpt>
      <trkpt lat="47.45014" lon="6.77196">
        <ele>376.5</ele>
        <time>2021-12-20T09:09:19Z</time>
      </trkpt>
      <trkpt lat="47.45006" lon="6.77183">
        <ele>378</ele>
        <time>2021-12-20T09:09:24Z</time>
      </trkpt>
      <trkpt lat="47.44996" lon="6.77176">
        <ele>379.3</ele>
        <time>2021-12-20T09:09:29Z</time>
      </trkpt>
      <trkpt lat="47.44989" lon="6.77167">
        <ele>380.5</ele>
        <time>2021-12-20T09:09:34Z</time>
      </trkpt>
      <trkpt lat="47.44981" lon="6.77161">
        <ele>381.6</ele>
        <time>2021-12-20T09:09:39Z</time>
      </trkpt>
      <trkpt lat="47.44975" lon="6.77153">
        <ele>382.7</ele>
        <time>2021-12-20T09:09:44Z</time>
      </trkpt>
      <trkpt lat="47.44967" lon="6.77145">
        <ele>383.8</ele>
        <time>2021-12-20T09:09:49Z</time>
      </trkpt>
      <trkpt lat="47.44957" lon="6.77137">
        <ele>385.2</ele>
        <time>2021-12-20T09:09:54Z</time>
      </trkpt>
      <trkpt lat="47.44948" lon="6.77132">
        <ele>386.3</ele>
        <time>2021-12-20T09:09:59Z</time>
      </trkpt>
      <trkpt lat="47.44939" lon="6.77126">
        <ele>387.4</ele>
        <time>2021-12-20T09:10:04Z</time>
      </trkpt>
      <trkpt lat="47.4493" lon="6.77123">
        <ele>388.4</ele>
        <time>2021-12-20T09:10:09Z</time>
      </trkpt>
      <trkpt lat="47.44922" lon="6.77117">
        <ele>389.2</ele>
        <time>2021-12-20T09:10:14Z</time>
      </trkpt>
      <trkpt lat="47.44914" lon="6.7711">
        <ele>390.3</ele>
        <time>2021-12-20T09:10:19Z</time>
      </trkpt>
      <trkpt lat="47.44904" lon="6.77104">
        <ele>391.3</ele>
        <time>2021-12-20T09:10:24Z</time>
      </trkpt>
      <trkpt lat="47.44895" lon="6.77099">
        <ele>392.3</ele>
        <time>2021-12-20T09:10:29Z</time>
      </trkpt>
      <trkpt lat="47.44885" lon="6.77094">
        <ele>393.2</ele>
        <time>2021-12-20T09:10:34Z</time>
      </trkpt>
      <trkpt lat="47.44876" lon="6.77087">
        <ele>393.9</ele>
        <time>2021-12-20T09:10:39Z</time>
      </trkpt>
      <trkpt lat="47.44865" lon="6.77081">
        <ele>394.8</ele>
        <time>2021-12-20T09:10:44Z</time>
      </trkpt>
      <trkpt lat="47.44854" lon="6.77075">
        <ele>395.7</ele>
        <time>2021-12-20T09:10:49Z</time>
      </trkpt>
      <trkpt lat="47.44844" lon="6.7707">
        <ele>396.6</ele>
        <time>2021-12-20T09:10:54Z</time>
      </trkpt>
      <trkpt lat="47.44836" lon="6.77064">
        <ele>397.5</ele>
        <time>2021-12-20T09:10:59Z</time>
      </trkpt>
      <trkpt lat="47.44826" lon="6.77059">
        <ele>398.5</ele>
        <time>2021-12-20T09:11:04Z</time>
      </trkpt>
      <trkpt lat="47.44816" lon="6.77053">
        <ele>399.6</ele>
        <time>2021-12-20T09:11:09Z</time>
      </trkpt>
      <trkpt lat="47.44806" lon="6.77046">
        <ele>400.8</ele>
        <time>2021-12-20T09:11:14Z</time>
      </trkpt>
      <trkpt lat="47.44796" lon="6.77039">
        <ele>401.8</ele>
        <time>2021-12-20T09:11:19Z</time>
      </trkpt>
      <trkpt lat="47.44788" lon="6.7703">
        <ele>402.8</ele>
        <time>2021-12-20T09:11:24Z</time>
      </trkpt>
      <trkpt lat="47.44778" lon="6.7702">
        <ele>404</ele>
        <time>2021-12-20T09:11:29Z</time>
      </trkpt>
      <trkpt lat="47.4477" lon="6.77008">
        <ele>405.1</ele>
        <time>2021-12-20T09:11:34Z</time>
      </trkpt>
      <trkpt lat="47.44761" lon="6.76997">
        <ele>406.2</ele>
        <time>2021-12-20T09:11:39Z</time>
      </trkpt>
      <trkpt lat="47.44752" lon="6.76986">
        <ele>407.3</ele>
        <time>2021-12-20T09:11:44Z</time>
      </trkpt>
      <trkpt lat="47.44744" lon="6.76975">
        <ele>408.4</ele>
        <time>2021-12-20T09:11:49Z</time>
      </trkpt>
      <trkpt lat="47.44733" lon="6.76964">
        <ele>409.6</ele>
        <time>2021-12-20T09:11:54Z</time>
      </trkpt>
      <trkpt lat="47.44723" lon="6.76953">
        <ele>410.6</ele>
        <time>2021-12-20T09:11:59Z</time>
      </trkpt>
      <trkpt lat="47.44714" lon="6.76939">
        <ele>411.6</ele>
        <time>2021-12-20T09:12:04Z</time>
      </trkpt>
      <trkpt lat="47.44704" lon="6.76926">
        <ele>412.6</ele>
        <time>2021-12-20T09:12:09Z</time>
      </trkpt>
      <trkpt lat="47.44695" lon="6.76914">
        <ele>413.4</ele>
        <time>2021-12-20T09:12:14Z</time>
      </trkpt>
      <trkpt lat="47.44685" lon="6.76901">
        <ele>414.1</ele>
        <time>2021-12-20T09:12:19Z</time>
      </trkpt>
      <trkpt lat="47.44674" lon="6.76888">
        <ele>414.8</ele>
        <time>2021-12-20T09:12:24Z</time>
      </trkpt>
      <trkpt lat="47.44663" lon="6.76877">
        <ele>415.4</ele>
        <time>2021-12-20T09:12:29Z</time>
      </trkpt>
      <trkpt lat="47.44651" lon="6.76866">
        <ele>415.9</ele>
        <time>2021-12-20T09:12:34Z</time>
      </trkpt>
      <trkpt lat="47.44635" lon="6.76852">
        <ele>416.4</ele>
        <time>2021-12-20T09:12:39Z</time>
      </trkpt>
      <trkpt lat="47.44617" lon="6.76839">
        <ele>416.9</ele>
        <time>2021-12-20T09:12:44Z</time>
      </trkpt>
      <trkpt lat="47.44598" lon="6.76846">
        <ele>417.1</ele>
        <time>2021-12-20T09:12:49Z</time>
      </trkpt>
      <trkpt lat="47.44581" lon="6.76868">
        <ele>416.7</ele>
        <time>2021-12-20T09:12:54Z</time>
      </trkpt>
      <trkpt lat="47.44568" lon="6.76892">
        <ele>416.6</ele>
        <time>2021-12-20T09:12:59Z</time>
      </trkpt>
      <trkpt lat="47.44555" lon="6.76913">
        <ele>416.8</ele>
        <time>2021-12-20T09:13:04Z</time>
      </trkpt>
      <trkpt lat="47.44539" lon="6.76932">
        <ele>417.4</ele>
        <time>2021-12-20T09:13:09Z</time>
      </trkpt>
      <trkpt lat="47.44523" lon="6.76947">
        <ele>418.2</ele>
        <time>2021-12-20T09:13:14Z</time>
      </trkpt>
      <trkpt lat="47.44505" lon="6.76959">
        <ele>419.3</ele>
        <time>2021-12-20T09:13:19Z</time>
      </trkpt>
      <trkpt lat="47.44487" lon="6.76967">
        <ele>420.4</ele>
        <time>2021-12-20T09:13:24Z</time>
      </trkpt>
      <trkpt lat="47.44471" lon="6.76971">
        <ele>421.5</ele>
        <time>2021-12-20T09:13:29Z</time>
      </trkpt>
      <trkpt lat="47.44453" lon="6.76972">
        <ele>422.7</ele>
        <time>2021-12-20T09:13:34Z</time>
      </trkpt>
      <trkpt lat="47.44425" lon="6.76967">
        <ele>424.9</ele>
        <time>2021-12-20T09:13:42Z</time>
      </trkpt>
      <trkpt lat="47.44408" lon="6.76959">
        <ele>426.5</ele>
        <time>2021-12-20T09:13:47Z</time>
      </trkpt>
      <trkpt lat="47.44392" lon="6.76955">
        <ele>427.9</ele>
        <time>2021-12-20T09:13:52Z</time>
      </trkpt>
      <trkpt lat="47.44376" lon="6.7695">
        <ele>429.4</ele>
        <time>2021-12-20T09:13:57Z</time>
      </trkpt>
      <trkpt lat="47.44365" lon="6.7694">
        <ele>430.6</ele>
        <time>2021-12-20T09:14:02Z</time>
      </trkpt>
      <trkpt lat="47.44352" lon="6.7693">
        <ele>431.8</ele>
        <time>2021-12-20T09:14:07Z</time>
      </trkpt>
      <trkpt lat="47.44338" lon="6.7692">
        <ele>433.4</ele>
        <time>2021-12-20T09:14:12Z</time>
      </trkpt>
      <trkpt lat="47.44324" lon="6.76912">
        <ele>434.7</ele>
        <time>2021-12-20T09:14:17Z</time>
      </trkpt>
      <trkpt lat="47.4431" lon="6.76907">
        <ele>435.8</ele>
        <time>2021-12-20T09:14:22Z</time>
      </trkpt>
      <trkpt lat="47.44296" lon="6.76904">
        <ele>436.8</ele>
        <time>2021-12-20T09:14:27Z</time>
      </trkpt>
      <trkpt lat="47.44284" lon="6.769">
        <ele>437.6</ele>
        <time>2021-12-20T09:14:32Z</time>
      </trkpt>
      <trkpt lat="47.44268" lon="6.76898">
        <ele>438.8</ele>
        <time>2021-12-20T09:14:37Z</time>
      </trkpt>
      <trkpt lat="47.44254" lon="6.76894">
        <ele>440</ele>
        <time>2021-12-20T09:14:42Z</time>
      </trkpt>
      <trkpt lat="47.4424" lon="6.76885">
        <ele>441.3</ele>
        <time>2021-12-20T09:14:47Z</time>
      </trkpt>
      <trkpt lat="47.44227" lon="6.76877">
        <ele>442.5</ele>
        <time>2021-12-20T09:14:52Z</time>
      </trkpt>
      <trkpt lat="47.44215" lon="6.76869">
        <ele>443.6</ele>
        <time>2021-12-20T09:14:57Z</time>
      </trkpt>
      <trkpt lat="47.44202" lon="6.7686">
        <ele>444.7</ele>
        <time>2021-12-20T09:15:02Z</time>
      </trkpt>
      <trkpt lat="47.44191" lon="6.76851">
        <ele>445.7</ele>
        <time>2021-12-20T09:15:07Z</time>
      </trkpt>
      <trkpt lat="47.4418" lon="6.76838">
        <ele>446.7</ele>
        <time>2021-12-20T09:15:12Z</time>
      </trkpt>
      <trkpt lat="47.44168" lon="6.76827">
        <ele>447.4</ele>
        <time>2021-12-20T09:15:17Z</time>
      </trkpt>
      <trkpt lat="47.44155" lon="6.76813">
        <ele>448.3</ele>
        <time>2021-12-20T09:15:22Z</time>
      </trkpt>
      <trkpt lat="47.44141" lon="6.76803">
        <ele>449</ele>
        <time>2021-12-20T09:15:27Z</time>
      </trkpt>
      <trkpt lat="47.44128" lon="6.76792">
        <ele>449.7</ele>
        <time>2021-12-20T09:15:32Z</time>
      </trkpt>
      <trkpt lat="47.44115" lon="6.7678">
        <ele>450.4</ele>
        <time>2021-12-20T09:15:37Z</time>
      </trkpt>
      <trkpt lat="47.44101" lon="6.76767">
        <ele>451.1</ele>
        <time>2021-12-20T09:15:42Z</time>
      </trkpt>
      <trkpt lat="47.44087" lon="6.76752">
        <ele>451.7</ele>
        <time>2021-12-20T09:15:47Z</time>
      </trkpt>
      <trkpt lat="47.44073" lon="6.76737">
        <ele>452.3</ele>
        <time>2021-12-20T09:15:52Z</time>
      </trkpt>
      <trkpt lat="47.4406" lon="6.76719">
        <ele>452.9</ele>
        <time>2021-12-20T09:15:57Z</time>
      </trkpt>
      <trkpt lat="47.44044" lon="6.767">
        <ele>453.5</ele>
        <time>2021-12-20T09:16:02Z</time>
      </trkpt>
      <trkpt lat="47.4403" lon="6.76684">
        <ele>454.1</ele>
        <time>2021-12-20T09:16:07Z</time>
      </trkpt>
      <trkpt lat="47.44013" lon="6.76667">
        <ele>454.7</ele>
        <time>2021-12-20T09:16:12Z</time>
      </trkpt>
      <trkpt lat="47.43997" lon="6.7665">
        <ele>455.3</ele>
        <time>2021-12-20T09:16:17Z</time>
      </trkpt>
      <trkpt lat="47.43983" lon="6.76634">
        <ele>455.8</ele>
        <time>2021-12-20T09:16:22Z</time>
      </trkpt>
      <trkpt lat="47.43968" lon="6.76618">
        <ele>456.3</ele>
        <time>2021-12-20T09:16:27Z</time>
      </trkpt>
      <trkpt lat="47.43951" lon="6.76603">
        <ele>456.6</ele>
        <time>2021-12-20T09:16:32Z</time>
      </trkpt>
      <trkpt lat="47.43933" lon="6.76588">
        <ele>456.9</ele>
        <time>2021-12-20T09:16:37Z</time>
      </trkpt>
      <trkpt lat="47.43914" lon="6.76573">
        <ele>457.2</ele>
        <time>2021-12-20T09:16:42Z</time>
      </trkpt>
      <trkpt lat="47.43896" lon="6.76556">
        <ele>457.5</ele>
        <time>2021-12-20T09:16:47Z</time>
      </trkpt>
      <trkpt lat="47.43877" lon="6.76536">
        <ele>457.9</ele>
        <time>2021-12-20T09:16:52Z</time>
      </trkpt>
      <trkpt lat="47.43857" lon="6.76517">
        <ele>458.2</ele>
        <time>2021-12-20T09:16:57Z</time>
      </trkpt>
      <trkpt lat="47.43837" lon="6.76502">
        <ele>458.6</ele>
        <time>2021-12-20T09:17:02Z</time>
      </trkpt>
      <trkpt lat="47.43816" lon="6.76492">
        <ele>458.9</ele>
        <time>2021-12-20T09:17:07Z</time>
      </trkpt>
      <trkpt lat="47.43795" lon="6.76486">
        <ele>459.2</ele>
        <time>2021-12-20T09:17:12Z</time>
      </trkpt>
      <trkpt lat="47.43774" lon="6.76481">
        <ele>459.5</ele>
        <time>2021-12-20T09:17:17Z</time>
      </trkpt>
      <trkpt lat="47.43755" lon="6.76473">
        <ele>460</ele>
        <time>2021-12-20T09:17:22Z</time>
      </trkpt>
      <trkpt lat="47.43736" lon="6.76467">
        <ele>460.5</ele>
        <time>2021-12-20T09:17:27Z</time>
      </trkpt>
      <trkpt lat="47.43721" lon="6.76462">
        <ele>461.2</ele>
        <time>2021-12-20T09:17:32Z</time>
      </trkpt>
      <trkpt lat="47.43704" lon="6.76454">
        <ele>462</ele>
        <time>2021-12-20T09:17:37Z</time>
      </trkpt>
      <trkpt lat="47.43687" lon="6.76437">
        <ele>462.9</ele>
        <time>2021-12-20T09:17:42Z</time>
      </trkpt>
      <trkpt lat="47.4367" lon="6.76416">
        <ele>464.4</ele>
        <time>2021-12-20T09:17:47Z</time>
      </trkpt>
      <trkpt lat="47.43658" lon="6.76391">
        <ele>465.5</ele>
        <time>2021-12-20T09:17:52Z</time>
      </trkpt>
      <trkpt lat="47.43648" lon="6.76364">
        <ele>466.8</ele>
        <time>2021-12-20T09:17:57Z</time>
      </trkpt>
      <trkpt lat="47.43638" lon="6.76337">
        <ele>468</ele>
        <time>2021-12-20T09:18:02Z</time>
      </trkpt>
      <trkpt lat="47.43629" lon="6.76315">
        <ele>468.9</ele>
        <time>2021-12-20T09:18:07Z</time>
      </trkpt>
      <trkpt lat="47.43619" lon="6.76291">
        <ele>469.7</ele>
        <time>2021-12-20T09:18:12Z</time>
      </trkpt>
      <trkpt lat="47.43609" lon="6.76263">
        <ele>470.4</ele>
        <time>2021-12-20T09:18:17Z</time>
      </trkpt>
      <trkpt lat="47.43594" lon="6.7624">
        <ele>471.1</ele>
        <time>2021-12-20T09:18:22Z</time>
      </trkpt>
      <trkpt lat="47.43582" lon="6.76221">
        <ele>471.9</ele>
        <time>2021-12-20T09:18:27Z</time>
      </trkpt>
      <trkpt lat="47.43571" lon="6.76206">
        <ele>472.7</ele>
        <time>2021-12-20T09:18:32Z</time>
      </trkpt>
      <trkpt lat="47.4356" lon="6.76194">
        <ele>473.5</ele>
        <time>2021-12-20T09:18:37Z</time>
      </trkpt>
      <trkpt lat="47.43548" lon="6.76177">
        <ele>474.6</ele>
        <time>2021-12-20T09:18:42Z</time>
      </trkpt>
      <trkpt lat="47.43536" lon="6.76156">
        <ele>475.6</ele>
        <time>2021-12-20T09:18:47Z</time>
      </trkpt>
      <trkpt lat="47.43526" lon="6.76135">
        <ele>476.4</ele>
        <time>2021-12-20T09:18:52Z</time>
      </trkpt>
      <trkpt lat="47.43514" lon="6.76108">
        <ele>477.2</ele>
        <time>2021-12-20T09:18:57Z</time>
      </trkpt>
      <trkpt lat="47.43503" lon="6.76089">
        <ele>477.8</ele>
        <time>2021-12-20T09:19:03Z</time>
      </trkpt>
      <trkpt lat="47.43492" lon="6.76074">
        <ele>478.4</ele>
        <time>2021-12-20T09:19:08Z</time>
      </trkpt>
      <trkpt lat="47.43486" lon="6.76057">
        <ele>479</ele>
        <time>2021-12-20T09:19:13Z</time>
      </trkpt>
      <trkpt lat="47.43478" lon="6.76042">
        <ele>479.6</ele>
        <time>2021-12-20T09:19:18Z</time>
      </trkpt>
      <trkpt lat="47.43472" lon="6.76029">
        <ele>480.3</ele>
        <time>2021-12-20T09:19:23Z</time>
      </trkpt>
      <trkpt lat="47.43466" lon="6.76016">
        <ele>481</ele>
        <time>2021-12-20T09:19:28Z</time>
      </trkpt>
      <trkpt lat="47.4346" lon="6.76004">
        <ele>481.8</ele>
        <time>2021-12-20T09:19:33Z</time>
      </trkpt>
      <trkpt lat="47.43451" lon="6.7599">
        <ele>482.8</ele>
        <time>2021-12-20T09:19:38Z</time>
      </trkpt>
      <trkpt lat="47.43441" lon="6.75975">
        <ele>484.2</ele>
        <time>2021-12-20T09:19:43Z</time>
      </trkpt>
      <trkpt lat="47.43433" lon="6.75961">
        <ele>485.5</ele>
        <time>2021-12-20T09:19:48Z</time>
      </trkpt>
      <trkpt lat="47.43422" lon="6.75948">
        <ele>487</ele>
        <time>2021-12-20T09:19:53Z</time>
      </trkpt>
      <trkpt lat="47.43412" lon="6.75935">
        <ele>488.4</ele>
        <time>2021-12-20T09:19:58Z</time>
      </trkpt>
      <trkpt lat="47.43401" lon="6.75919">
        <ele>489.8</ele>
        <time>2021-12-20T09:20:03Z</time>
      </trkpt>
      <trkpt lat="47.43388" lon="6.75905">
        <ele>491.2</ele>
        <time>2021-12-20T09:20:08Z</time>
      </trkpt>
      <trkpt lat="47.43376" lon="6.75892">
        <ele>492.6</ele>
        <time>2021-12-20T09:20:13Z</time>
      </trkpt>
      <trkpt lat="47.43367" lon="6.75879">
        <ele>493.7</ele>
        <time>2021-12-20T09:20:18Z</time>
      </trkpt>
      <trkpt lat="47.43356" lon="6.75866">
        <ele>495.3</ele>
        <time>2021-12-20T09:20:23Z</time>
      </trkpt>
      <trkpt lat="47.43343" lon="6.75858">
        <ele>496.8</ele>
        <time>2021-12-20T09:20:28Z</time>
      </trkpt>
      <trkpt lat="47.43331" lon="6.75849">
        <ele>498.2</ele>
        <time>2021-12-20T09:20:33Z</time>
      </trkpt>
      <trkpt lat="47.43319" lon="6.75839">
        <ele>499.6</ele>
        <time>2021-12-20T09:20:38Z</time>
      </trkpt>
      <trkpt lat="47.43308" lon="6.75827">
        <ele>500.7</ele>
        <time>2021-12-20T09:20:43Z</time>
      </trkpt>
      <trkpt lat="47.43295" lon="6.75813">
        <ele>501.7</ele>
        <time>2021-12-20T09:20:48Z</time>
      </trkpt>
      <trkpt lat="47.43283" lon="6.758">
        <ele>502.4</ele>
        <time>2021-12-20T09:20:53Z</time>
      </trkpt>
      <trkpt lat="47.43271" lon="6.75786">
        <ele>503</ele>
        <time>2021-12-20T09:20:58Z</time>
      </trkpt>
      <trkpt lat="47.43258" lon="6.75774">
        <ele>503.5</ele>
        <time>2021-12-20T09:21:03Z</time>
      </trkpt>
      <trkpt lat="47.4325" lon="6.75762">
        <ele>503.9</ele>
        <time>2021-12-20T09:21:08Z</time>
      </trkpt>
      <trkpt lat="47.43211" lon="6.75734">
        <ele>506.4</ele>
        <time>2021-12-20T09:21:14Z</time>
      </trkpt>
      <trkpt lat="47.43186" lon="6.75722">
        <ele>508.1</ele>
        <time>2021-12-20T09:26:00Z</time>
      </trkpt>
      <trkpt lat="47.43174" lon="6.75715">
        <ele>508.8</ele>
        <time>2021-12-20T09:26:05Z</time>
      </trkpt>
      <trkpt lat="47.43162" lon="6.75707">
        <ele>509.7</ele>
        <time>2021-12-20T09:26:10Z</time>
      </trkpt>
      <trkpt lat="47.43148" lon="6.75696">
        <ele>510.6</ele>
        <time>2021-12-20T09:26:15Z</time>
      </trkpt>
      <trkpt lat="47.43131" lon="6.75683">
        <ele>511.5</ele>
        <time>2021-12-20T09:26:20Z</time>
      </trkpt>
      <trkpt lat="47.43112" lon="6.75668">
        <ele>512.2</ele>
        <time>2021-12-20T09:26:25Z</time>
      </trkpt>
      <trkpt lat="47.43092" lon="6.75655">
        <ele>512.7</ele>
        <time>2021-12-20T09:26:30Z</time>
      </trkpt>
      <trkpt lat="47.43074" lon="6.75643">
        <ele>513.1</ele>
        <time>2021-12-20T09:26:35Z</time>
      </trkpt>
      <trkpt lat="47.43055" lon="6.75633">
        <ele>513.7</ele>
        <time>2021-12-20T09:26:40Z</time>
      </trkpt>
      <trkpt lat="47.4304" lon="6.75626">
        <ele>514.5</ele>
        <time>2021-12-20T09:26:45Z</time>
      </trkpt>
      <trkpt lat="47.43028" lon="6.75622">
        <ele>515.2</ele>
        <time>2021-12-20T09:26:50Z</time>
      </trkpt>
      <trkpt lat="47.43013" lon="6.75616">
        <ele>515.9</ele>
        <time>2021-12-20T09:26:55Z</time>
      </trkpt>
      <trkpt lat="47.42996" lon="6.75606">
        <ele>516.5</ele>
        <time>2021-12-20T09:27:00Z</time>
      </trkpt>
      <trkpt lat="47.42985" lon="6.756">
        <ele>517</ele>
        <time>2021-12-20T09:27:05Z</time>
      </trkpt>
      <trkpt lat="47.42971" lon="6.75586">
        <ele>517.6</ele>
        <time>2021-12-20T09:27:10Z</time>
      </trkpt>
      <trkpt lat="47.42952" lon="6.75567">
        <ele>518.9</ele>
        <time>2021-12-20T09:27:16Z</time>
      </trkpt>
      <trkpt lat="47.42938" lon="6.75555">
        <ele>520.1</ele>
        <time>2021-12-20T09:27:21Z</time>
      </trkpt>
      <trkpt lat="47.42919" lon="6.75545">
        <ele>521.5</ele>
        <time>2021-12-20T09:27:26Z</time>
      </trkpt>
      <trkpt lat="47.42901" lon="6.75537">
        <ele>522.5</ele>
        <time>2021-12-20T09:27:31Z</time>
      </trkpt>
      <trkpt lat="47.42884" lon="6.7553">
        <ele>523.2</ele>
        <time>2021-12-20T09:27:36Z</time>
      </trkpt>
      <trkpt lat="47.42869" lon="6.75525">
        <ele>523.8</ele>
        <time>2021-12-20T09:27:41Z</time>
      </trkpt>
      <trkpt lat="47.42853" lon="6.75521">
        <ele>524.5</ele>
        <time>2021-12-20T09:27:46Z</time>
      </trkpt>
      <trkpt lat="47.42837" lon="6.75519">
        <ele>525</ele>
        <time>2021-12-20T09:27:51Z</time>
      </trkpt>
      <trkpt lat="47.42818" lon="6.75519">
        <ele>525.3</ele>
        <time>2021-12-20T09:27:56Z</time>
      </trkpt>
      <trkpt lat="47.42794" lon="6.75518">
        <ele>525</ele>
        <time>2021-12-20T09:28:01Z</time>
      </trkpt>
      <trkpt lat="47.42767" lon="6.75522">
        <ele>524.3</ele>
        <time>2021-12-20T09:28:06Z</time>
      </trkpt>
      <trkpt lat="47.42738" lon="6.75531">
        <ele>523.1</ele>
        <time>2021-12-20T09:28:11Z</time>
      </trkpt>
      <trkpt lat="47.42707" lon="6.75538">
        <ele>520.9</ele>
        <time>2021-12-20T09:28:16Z</time>
      </trkpt>
      <trkpt lat="47.42669" lon="6.7553">
        <ele>517.6</ele>
        <time>2021-12-20T09:28:21Z</time>
      </trkpt>
      <trkpt lat="47.42625" lon="6.75494">
        <ele>513.7</ele>
        <time>2021-12-20T09:28:26Z</time>
      </trkpt>
      <trkpt lat="47.42573" lon="6.75469">
        <ele>511.9</ele>
        <time>2021-12-20T09:28:31Z</time>
      </trkpt>
      <trkpt lat="47.42528" lon="6.75468">
        <ele>512.1</ele>
        <time>2021-12-20T09:28:36Z</time>
      </trkpt>
      <trkpt lat="47.42493" lon="6.75467">
        <ele>512.9</ele>
        <time>2021-12-20T09:28:41Z</time>
      </trkpt>
      <trkpt lat="47.42466" lon="6.75462">
        <ele>514.4</ele>
        <time>2021-12-20T09:28:46Z</time>
      </trkpt>
      <trkpt lat="47.42448" lon="6.75464">
        <ele>515.7</ele>
        <time>2021-12-20T09:28:51Z</time>
      </trkpt>
      <trkpt lat="47.42431" lon="6.75468">
        <ele>517.2</ele>
        <time>2021-12-20T09:28:56Z</time>
      </trkpt>
      <trkpt lat="47.42417" lon="6.75464">
        <ele>518.5</ele>
        <time>2021-12-20T09:29:01Z</time>
      </trkpt>
      <trkpt lat="47.42402" lon="6.75464">
        <ele>519.8</ele>
        <time>2021-12-20T09:29:06Z</time>
      </trkpt>
      <trkpt lat="47.42388" lon="6.75466">
        <ele>521.2</ele>
        <time>2021-12-20T09:29:11Z</time>
      </trkpt>
      <trkpt lat="47.42374" lon="6.75469">
        <ele>522.6</ele>
        <time>2021-12-20T09:29:16Z</time>
      </trkpt>
      <trkpt lat="47.42363" lon="6.75475">
        <ele>524</ele>
        <time>2021-12-20T09:29:21Z</time>
      </trkpt>
      <trkpt lat="47.42349" lon="6.75483">
        <ele>525.6</ele>
        <time>2021-12-20T09:29:26Z</time>
      </trkpt>
      <trkpt lat="47.42337" lon="6.7549">
        <ele>526.9</ele>
        <time>2021-12-20T09:29:31Z</time>
      </trkpt>
      <trkpt lat="47.42324" lon="6.75496">
        <ele>528</ele>
        <time>2021-12-20T09:29:36Z</time>
      </trkpt>
      <trkpt lat="47.42311" lon="6.75505">
        <ele>529.2</ele>
        <time>2021-12-20T09:29:41Z</time>
      </trkpt>
      <trkpt lat="47.42298" lon="6.75512">
        <ele>530.3</ele>
        <time>2021-12-20T09:29:46Z</time>
      </trkpt>
      <trkpt lat="47.42286" lon="6.75517">
        <ele>531.6</ele>
        <time>2021-12-20T09:29:51Z</time>
      </trkpt>
      <trkpt lat="47.42275" lon="6.75516">
        <ele>532.8</ele>
        <time>2021-12-20T09:29:56Z</time>
      </trkpt>
      <trkpt lat="47.42263" lon="6.75513">
        <ele>534.3</ele>
        <time>2021-12-20T09:30:01Z</time>
      </trkpt>
      <trkpt lat="47.42252" lon="6.75509">
        <ele>535.5</ele>
        <time>2021-12-20T09:30:06Z</time>
      </trkpt>
      <trkpt lat="47.42239" lon="6.75506">
        <ele>536.8</ele>
        <time>2021-12-20T09:30:11Z</time>
      </trkpt>
      <trkpt lat="47.42226" lon="6.75505">
        <ele>538.1</ele>
        <time>2021-12-20T09:30:16Z</time>
      </trkpt>
      <trkpt lat="47.42216" lon="6.75505">
        <ele>539.1</ele>
        <time>2021-12-20T09:30:21Z</time>
      </trkpt>
      <trkpt lat="47.42204" lon="6.75505">
        <ele>540.1</ele>
        <time>2021-12-20T09:30:26Z</time>
      </trkpt>
      <trkpt lat="47.42191" lon="6.75501">
        <ele>541.2</ele>
        <time>2021-12-20T09:30:31Z</time>
      </trkpt>
      <trkpt lat="47.42179" lon="6.75498">
        <ele>542.2</ele>
        <time>2021-12-20T09:30:36Z</time>
      </trkpt>
      <trkpt lat="47.42168" lon="6.75495">
        <ele>543</ele>
        <time>2021-12-20T09:30:41Z</time>
      </trkpt>
      <trkpt lat="47.42156" lon="6.75492">
        <ele>543.8</ele>
        <time>2021-12-20T09:30:46Z</time>
      </trkpt>
      <trkpt lat="47.42143" lon="6.7549">
        <ele>544.6</ele>
        <time>2021-12-20T09:30:51Z</time>
      </trkpt>
      <trkpt lat="47.42129" lon="6.75487">
        <ele>545.4</ele>
        <time>2021-12-20T09:30:56Z</time>
      </trkpt>
      <trkpt lat="47.42115" lon="6.75481">
        <ele>546.1</ele>
        <time>2021-12-20T09:31:01Z</time>
      </trkpt>
      <trkpt lat="47.42098" lon="6.75468">
        <ele>546.7</ele>
        <time>2021-12-20T09:31:06Z</time>
      </trkpt>
      <trkpt lat="47.42068" lon="6.75429">
        <ele>546.9</ele>
        <time>2021-12-20T09:31:14Z</time>
      </trkpt>
      <trkpt lat="47.42053" lon="6.75399">
        <ele>546.9</ele>
        <time>2021-12-20T09:31:19Z</time>
      </trkpt>
      <trkpt lat="47.42041" lon="6.75364">
        <ele>546.8</ele>
        <time>2021-12-20T09:31:24Z</time>
      </trkpt>
      <trkpt lat="47.42025" lon="6.75329">
        <ele>546.7</ele>
        <time>2021-12-20T09:31:29Z</time>
      </trkpt>
      <trkpt lat="47.42007" lon="6.75295">
        <ele>546.4</ele>
        <time>2021-12-20T09:31:34Z</time>
      </trkpt>
      <trkpt lat="47.41986" lon="6.75259">
        <ele>545.7</ele>
        <time>2021-12-20T09:31:39Z</time>
      </trkpt>
      <trkpt lat="47.4196" lon="6.75226">
        <ele>545.5</ele>
        <time>2021-12-20T09:31:44Z</time>
      </trkpt>
      <trkpt lat="47.41934" lon="6.75199">
        <ele>545.5</ele>
        <time>2021-12-20T09:31:49Z</time>
      </trkpt>
      <trkpt lat="47.41908" lon="6.75181">
        <ele>545.5</ele>
        <time>2021-12-20T09:31:54Z</time>
      </trkpt>
      <trkpt lat="47.41877" lon="6.75162">
        <ele>545.6</ele>
        <time>2021-12-20T09:31:59Z</time>
      </trkpt>
      <trkpt lat="47.41851" lon="6.75133">
        <ele>545.8</ele>
        <time>2021-12-20T09:32:04Z</time>
      </trkpt>
      <trkpt lat="47.41825" lon="6.75106">
        <ele>546</ele>
        <time>2021-12-20T09:32:09Z</time>
      </trkpt>
      <trkpt lat="47.418" lon="6.75079">
        <ele>546.1</ele>
        <time>2021-12-20T09:32:14Z</time>
      </trkpt>
      <trkpt lat="47.41775" lon="6.75062">
        <ele>546.1</ele>
        <time>2021-12-20T09:32:19Z</time>
      </trkpt>
      <trkpt lat="47.41748" lon="6.75057">
        <ele>545.5</ele>
        <time>2021-12-20T09:32:24Z</time>
      </trkpt>
      <trkpt lat="47.41719" lon="6.75076">
        <ele>544.3</ele>
        <time>2021-12-20T09:32:29Z</time>
      </trkpt>
      <trkpt lat="47.41688" lon="6.75106">
        <ele>541.2</ele>
        <time>2021-12-20T09:32:34Z</time>
      </trkpt>
      <trkpt lat="47.41649" lon="6.75135">
        <ele>538.2</ele>
        <time>2021-12-20T09:32:39Z</time>
      </trkpt>
      <trkpt lat="47.41605" lon="6.75143">
        <ele>536.9</ele>
        <time>2021-12-20T09:32:44Z</time>
      </trkpt>
      <trkpt lat="47.41564" lon="6.75153">
        <ele>535.6</ele>
        <time>2021-12-20T09:32:49Z</time>
      </trkpt>
      <trkpt lat="47.41525" lon="6.75163">
        <ele>535.7</ele>
        <time>2021-12-20T09:32:54Z</time>
      </trkpt>
      <trkpt lat="47.41491" lon="6.75167">
        <ele>536.8</ele>
        <time>2021-12-20T09:32:59Z</time>
      </trkpt>
      <trkpt lat="47.41466" lon="6.75167">
        <ele>538.3</ele>
        <time>2021-12-20T09:33:04Z</time>
      </trkpt>
      <trkpt lat="47.41444" lon="6.75168">
        <ele>540</ele>
        <time>2021-12-20T09:33:09Z</time>
      </trkpt>
      <trkpt lat="47.41425" lon="6.75169">
        <ele>541.4</ele>
        <time>2021-12-20T09:33:14Z</time>
      </trkpt>
      <trkpt lat="47.41408" lon="6.75171">
        <ele>542.8</ele>
        <time>2021-12-20T09:33:19Z</time>
      </trkpt>
      <trkpt lat="47.41394" lon="6.75171">
        <ele>544</ele>
        <time>2021-12-20T09:33:24Z</time>
      </trkpt>
      <trkpt lat="47.41379" lon="6.75174">
        <ele>545.3</ele>
        <time>2021-12-20T09:33:29Z</time>
      </trkpt>
      <trkpt lat="47.41366" lon="6.75178">
        <ele>546.4</ele>
        <time>2021-12-20T09:33:34Z</time>
      </trkpt>
      <trkpt lat="47.41354" lon="6.7518">
        <ele>547.5</ele>
        <time>2021-12-20T09:33:39Z</time>
      </trkpt>
      <trkpt lat="47.41342" lon="6.75181">
        <ele>548.8</ele>
        <time>2021-12-20T09:33:44Z</time>
      </trkpt>
      <trkpt lat="47.4133" lon="6.75188">
        <ele>550.2</ele>
        <time>2021-12-20T09:33:50Z</time>
      </trkpt>
      <trkpt lat="47.41318" lon="6.75193">
        <ele>551.4</ele>
        <time>2021-12-20T09:33:55Z</time>
      </trkpt>
      <trkpt lat="47.41305" lon="6.75198">
        <ele>552.5</ele>
        <time>2021-12-20T09:34:00Z</time>
      </trkpt>
      <trkpt lat="47.41293" lon="6.75202">
        <ele>553.4</ele>
        <time>2021-12-20T09:34:05Z</time>
      </trkpt>
      <trkpt lat="47.41277" lon="6.75205">
        <ele>554.5</ele>
        <time>2021-12-20T09:34:10Z</time>
      </trkpt>
      <trkpt lat="47.41263" lon="6.75208">
        <ele>555.4</ele>
        <time>2021-12-20T09:34:15Z</time>
      </trkpt>
      <trkpt lat="47.41256" lon="6.7521">
        <ele>555.7</ele>
        <time>2021-12-20T09:34:20Z</time>
      </trkpt>
      <trkpt lat="47.41232" lon="6.75224">
        <ele>556.6</ele>
        <time>2021-12-20T09:34:28Z</time>
      </trkpt>
      <trkpt lat="47.41228" lon="6.75224">
        <ele>556.7</ele>
        <time>2021-12-20T09:34:47Z</time>
      </trkpt>
      <trkpt lat="47.41241" lon="6.75215">
        <ele>556.2</ele>
        <time>2021-12-20T09:34:52Z</time>
      </trkpt>
      <trkpt lat="47.41258" lon="6.75214">
        <ele>555.7</ele>
        <time>2021-12-20T09:34:57Z</time>
      </trkpt>
      <trkpt lat="47.41269" lon="6.75211">
        <ele>555.7</ele>
        <time>2021-12-20T09:35:02Z</time>
      </trkpt>
      <trkpt lat="47.41261" lon="6.75224">
        <ele>556.2</ele>
        <time>2021-12-20T09:35:13Z</time>
      </trkpt>
      <trkpt lat="47.41271" lon="6.75263">
        <ele>557.5</ele>
        <time>2021-12-20T09:36:26Z</time>
      </trkpt>
      <trkpt lat="47.41277" lon="6.75287">
        <ele>558.4</ele>
        <time>2021-12-20T09:36:31Z</time>
      </trkpt>
      <trkpt lat="47.41278" lon="6.7531">
        <ele>559.2</ele>
        <time>2021-12-20T09:36:36Z</time>
      </trkpt>
      <trkpt lat="47.41279" lon="6.75332">
        <ele>560.3</ele>
        <time>2021-12-20T09:36:41Z</time>
      </trkpt>
      <trkpt lat="47.4128" lon="6.75354">
        <ele>560.7</ele>
        <time>2021-12-20T09:36:46Z</time>
      </trkpt>
      <trkpt lat="47.41283" lon="6.75373">
        <ele>560.9</ele>
        <time>2021-12-20T09:36:51Z</time>
      </trkpt>
      <trkpt lat="47.41283" lon="6.75388">
        <ele>560.9</ele>
        <time>2021-12-20T09:36:56Z</time>
      </trkpt>
      <trkpt lat="47.41287" lon="6.75404">
        <ele>560.9</ele>
        <time>2021-12-20T09:37:01Z</time>
      </trkpt>
      <trkpt lat="47.4129" lon="6.75413">
        <ele>560.8</ele>
        <time>2021-12-20T09:37:06Z</time>
      </trkpt>
      <trkpt lat="47.413" lon="6.75458">
        <ele>560.2</ele>
        <time>2021-12-20T09:37:15Z</time>
      </trkpt>
      <trkpt lat="47.41304" lon="6.75469">
        <ele>560.1</ele>
        <time>2021-12-20T09:37:26Z</time>
      </trkpt>
      <trkpt lat="47.41305" lon="6.75483">
        <ele>560</ele>
        <time>2021-12-20T09:37:31Z</time>
      </trkpt>
      <trkpt lat="47.41312" lon="6.75498">
        <ele>559.9</ele>
        <time>2021-12-20T09:37:36Z</time>
      </trkpt>
      <trkpt lat="47.41318" lon="6.75508">
        <ele>559.9</ele>
        <time>2021-12-20T09:37:41Z</time>
      </trkpt>
      <trkpt lat="47.41322" lon="6.75524">
        <ele>560.1</ele>
        <time>2021-12-20T09:37:46Z</time>
      </trkpt>
      <trkpt lat="47.41324" lon="6.75539">
        <ele>560.3</ele>
        <time>2021-12-20T09:37:51Z</time>
      </trkpt>
      <trkpt lat="47.41325" lon="6.75561">
        <ele>560.5</ele>
        <time>2021-12-20T09:37:56Z</time>
      </trkpt>
      <trkpt lat="47.41326" lon="6.75576">
        <ele>560.7</ele>
        <time>2021-12-20T09:38:01Z</time>
      </trkpt>
      <trkpt lat="47.41328" lon="6.75594">
        <ele>560.8</ele>
        <time>2021-12-20T09:38:06Z</time>
      </trkpt>
      <trkpt lat="47.41327" lon="6.75613">
        <ele>560.9</ele>
        <time>2021-12-20T09:38:11Z</time>
      </trkpt>
      <trkpt lat="47.41328" lon="6.75632">
        <ele>560.9</ele>
        <time>2021-12-20T09:38:16Z</time>
      </trkpt>
      <trkpt lat="47.41329" lon="6.75645">
        <ele>560.9</ele>
        <time>2021-12-20T09:38:21Z</time>
      </trkpt>
      <trkpt lat="47.4133" lon="6.75665">
        <ele>560.8</ele>
        <time>2021-12-20T09:38:26Z</time>
      </trkpt>
      <trkpt lat="47.41333" lon="6.75693">
        <ele>560.9</ele>
        <time>2021-12-20T09:38:31Z</time>
      </trkpt>
      <trkpt lat="47.41335" lon="6.75712">
        <ele>560.9</ele>
        <time>2021-12-20T09:38:36Z</time>
      </trkpt>
      <trkpt lat="47.41332" lon="6.75733">
        <ele>561</ele>
        <time>2021-12-20T09:38:41Z</time>
      </trkpt>
      <trkpt lat="47.4133" lon="6.75754">
        <ele>561.2</ele>
        <time>2021-12-20T09:38:46Z</time>
      </trkpt>
      <trkpt lat="47.41328" lon="6.75775">
        <ele>561.6</ele>
        <time>2021-12-20T09:38:51Z</time>
      </trkpt>
      <trkpt lat="47.41316" lon="6.75782">
        <ele>562</ele>
        <time>2021-12-20T09:38:56Z</time>
      </trkpt>
      <trkpt lat="47.41301" lon="6.7578">
        <ele>562.1</ele>
        <time>2021-12-20T09:39:01Z</time>
      </trkpt>
      <trkpt lat="47.41285" lon="6.75777">
        <ele>562.1</ele>
        <time>2021-12-20T09:39:06Z</time>
      </trkpt>
      <trkpt lat="47.41273" lon="6.75776">
        <ele>561.8</ele>
        <time>2021-12-20T09:39:11Z</time>
      </trkpt>
      <trkpt lat="47.41258" lon="6.75772">
        <ele>561.3</ele>
        <time>2021-12-20T09:39:16Z</time>
      </trkpt>
      <trkpt lat="47.4124" lon="6.75767">
        <ele>560.2</ele>
        <time>2021-12-20T09:39:21Z</time>
      </trkpt>
      <trkpt lat="47.41221" lon="6.75761">
        <ele>559</ele>
        <time>2021-12-20T09:39:26Z</time>
      </trkpt>
      <trkpt lat="47.41195" lon="6.75752">
        <ele>557.3</ele>
        <time>2021-12-20T09:39:31Z</time>
      </trkpt>
      <trkpt lat="47.41164" lon="6.75743">
        <ele>555.6</ele>
        <time>2021-12-20T09:39:36Z</time>
      </trkpt>
      <trkpt lat="47.41137" lon="6.75733">
        <ele>553.9</ele>
        <time>2021-12-20T09:39:41Z</time>
      </trkpt>
      <trkpt lat="47.41111" lon="6.75725">
        <ele>552.4</ele>
        <time>2021-12-20T09:39:46Z</time>
      </trkpt>
      <trkpt lat="47.41085" lon="6.75715">
        <ele>550.9</ele>
        <time>2021-12-20T09:39:51Z</time>
      </trkpt>
      <trkpt lat="47.4106" lon="6.75705">
        <ele>549.4</ele>
        <time>2021-12-20T09:39:56Z</time>
      </trkpt>
      <trkpt lat="47.41048" lon="6.75702">
        <ele>548.5</ele>
        <time>2021-12-20T09:40:01Z</time>
      </trkpt>
      <trkpt lat="47.4104" lon="6.75718">
        <ele>546.8</ele>
        <time>2021-12-20T09:40:06Z</time>
      </trkpt>
      <trkpt lat="47.41036" lon="6.75735">
        <ele>546.6</ele>
        <time>2021-12-20T09:40:11Z</time>
      </trkpt>
      <trkpt lat="47.41034" lon="6.75755">
        <ele>546.3</ele>
        <time>2021-12-20T09:40:16Z</time>
      </trkpt>
      <trkpt lat="47.41035" lon="6.75774">
        <ele>546</ele>
        <time>2021-12-20T09:40:21Z</time>
      </trkpt>
      <trkpt lat="47.41032" lon="6.75834">
        <ele>543.8</ele>
        <time>2021-12-20T09:40:30Z</time>
      </trkpt>
      <trkpt lat="47.41023" lon="6.75871">
        <ele>542.2</ele>
        <time>2021-12-20T09:40:35Z</time>
      </trkpt>
      <trkpt lat="47.41019" lon="6.75902">
        <ele>541</ele>
        <time>2021-12-20T09:40:40Z</time>
      </trkpt>
      <trkpt lat="47.41017" lon="6.75927">
        <ele>539.9</ele>
        <time>2021-12-20T09:40:45Z</time>
      </trkpt>
      <trkpt lat="47.41014" lon="6.75952">
        <ele>538.9</ele>
        <time>2021-12-20T09:40:50Z</time>
      </trkpt>
      <trkpt lat="47.41012" lon="6.75971">
        <ele>538.2</ele>
        <time>2021-12-20T09:40:55Z</time>
      </trkpt>
      <trkpt lat="47.41009" lon="6.75985">
        <ele>537.6</ele>
        <time>2021-12-20T09:41:00Z</time>
      </trkpt>
      <trkpt lat="47.41009" lon="6.76004">
        <ele>536.9</ele>
        <time>2021-12-20T09:41:05Z</time>
      </trkpt>
      <trkpt lat="47.41008" lon="6.76025">
        <ele>536.1</ele>
        <time>2021-12-20T09:41:10Z</time>
      </trkpt>
      <trkpt lat="47.41005" lon="6.76047">
        <ele>535.2</ele>
        <time>2021-12-20T09:41:15Z</time>
      </trkpt>
      <trkpt lat="47.41006" lon="6.76069">
        <ele>534.2</ele>
        <time>2021-12-20T09:41:20Z</time>
      </trkpt>
      <trkpt lat="47.41007" lon="6.76095">
        <ele>532.8</ele>
        <time>2021-12-20T09:41:25Z</time>
      </trkpt>
      <trkpt lat="47.41007" lon="6.76129">
        <ele>531.2</ele>
        <time>2021-12-20T09:41:30Z</time>
      </trkpt>
      <trkpt lat="47.41005" lon="6.76157">
        <ele>529.9</ele>
        <time>2021-12-20T09:41:35Z</time>
      </trkpt>
      <trkpt lat="47.41008" lon="6.76183">
        <ele>528.7</ele>
        <time>2021-12-20T09:41:40Z</time>
      </trkpt>
      <trkpt lat="47.41014" lon="6.7621">
        <ele>527.3</ele>
        <time>2021-12-20T09:41:45Z</time>
      </trkpt>
      <trkpt lat="47.41022" lon="6.76236">
        <ele>526</ele>
        <time>2021-12-20T09:41:50Z</time>
      </trkpt>
      <trkpt lat="47.41028" lon="6.76264">
        <ele>524.6</ele>
        <time>2021-12-20T09:41:55Z</time>
      </trkpt>
      <trkpt lat="47.4103" lon="6.76293">
        <ele>523.3</ele>
        <time>2021-12-20T09:42:00Z</time>
      </trkpt>
      <trkpt lat="47.41033" lon="6.76321">
        <ele>521.9</ele>
        <time>2021-12-20T09:42:05Z</time>
      </trkpt>
      <trkpt lat="47.41041" lon="6.76345">
        <ele>520.5</ele>
        <time>2021-12-20T09:42:10Z</time>
      </trkpt>
      <trkpt lat="47.41042" lon="6.76365">
        <ele>519.4</ele>
        <time>2021-12-20T09:42:15Z</time>
      </trkpt>
      <trkpt lat="47.41031" lon="6.76421">
        <ele>516.6</ele>
        <time>2021-12-20T09:42:25Z</time>
      </trkpt>
      <trkpt lat="47.41035" lon="6.76446">
        <ele>515.4</ele>
        <time>2021-12-20T09:43:44Z</time>
      </trkpt>
      <trkpt lat="47.41046" lon="6.76468">
        <ele>514.1</ele>
        <time>2021-12-20T09:43:49Z</time>
      </trkpt>
      <trkpt lat="47.41056" lon="6.76485">
        <ele>513.1</ele>
        <time>2021-12-20T09:43:54Z</time>
      </trkpt>
      <trkpt lat="47.41067" lon="6.76512">
        <ele>511.7</ele>
        <time>2021-12-20T09:44:00Z</time>
      </trkpt>
      <trkpt lat="47.41077" lon="6.76548">
        <ele>509.9</ele>
        <time>2021-12-20T09:44:07Z</time>
      </trkpt>
      <trkpt lat="47.41086" lon="6.7657">
        <ele>508.6</ele>
        <time>2021-12-20T09:44:12Z</time>
      </trkpt>
      <trkpt lat="47.41108" lon="6.7661">
        <ele>506.1</ele>
        <time>2021-12-20T09:44:20Z</time>
      </trkpt>
      <trkpt lat="47.41126" lon="6.76655">
        <ele>503.6</ele>
        <time>2021-12-20T09:44:26Z</time>
      </trkpt>
      <trkpt lat="47.41139" lon="6.76703">
        <ele>501.3</ele>
        <time>2021-12-20T09:44:32Z</time>
      </trkpt>
      <trkpt lat="47.41128" lon="6.76754">
        <ele>498.8</ele>
        <time>2021-12-20T09:44:38Z</time>
      </trkpt>
      <trkpt lat="47.41123" lon="6.76798">
        <ele>497</ele>
        <time>2021-12-20T09:44:43Z</time>
      </trkpt>
      <trkpt lat="47.41134" lon="6.76839">
        <ele>495.2</ele>
        <time>2021-12-20T09:44:48Z</time>
      </trkpt>
      <trkpt lat="47.41155" lon="6.7687">
        <ele>493.4</ele>
        <time>2021-12-20T09:44:53Z</time>
      </trkpt>
      <trkpt lat="47.41179" lon="6.76888">
        <ele>491.8</ele>
        <time>2021-12-20T09:44:58Z</time>
      </trkpt>
      <trkpt lat="47.41203" lon="6.76917">
        <ele>490.1</ele>
        <time>2021-12-20T09:45:03Z</time>
      </trkpt>
      <trkpt lat="47.41225" lon="6.76944">
        <ele>488.5</ele>
        <time>2021-12-20T09:45:08Z</time>
      </trkpt>
      <trkpt lat="47.41252" lon="6.76973">
        <ele>486.8</ele>
        <time>2021-12-20T09:45:13Z</time>
      </trkpt>
      <trkpt lat="47.41278" lon="6.76996">
        <ele>485.1</ele>
        <time>2021-12-20T09:45:18Z</time>
      </trkpt>
      <trkpt lat="47.41315" lon="6.77008">
        <ele>482.7</ele>
        <time>2021-12-20T09:45:26Z</time>
      </trkpt>
      <trkpt lat="47.41336" lon="6.77014">
        <ele>481.5</ele>
        <time>2021-12-20T09:45:31Z</time>
      </trkpt>
      <trkpt lat="47.41356" lon="6.77049">
        <ele>479.8</ele>
        <time>2021-12-20T09:45:36Z</time>
      </trkpt>
      <trkpt lat="47.41382" lon="6.77083">
        <ele>477.8</ele>
        <time>2021-12-20T09:45:41Z</time>
      </trkpt>
      <trkpt lat="47.41409" lon="6.77105">
        <ele>475.9</ele>
        <time>2021-12-20T09:45:46Z</time>
      </trkpt>
      <trkpt lat="47.41437" lon="6.77125">
        <ele>474.1</ele>
        <time>2021-12-20T09:45:51Z</time>
      </trkpt>
      <trkpt lat="47.41466" lon="6.77141">
        <ele>472.3</ele>
        <time>2021-12-20T09:45:56Z</time>
      </trkpt>
      <trkpt lat="47.41496" lon="6.77138">
        <ele>470.9</ele>
        <time>2021-12-20T09:46:01Z</time>
      </trkpt>
      <trkpt lat="47.41527" lon="6.77129">
        <ele>469.4</ele>
        <time>2021-12-20T09:46:06Z</time>
      </trkpt>
      <trkpt lat="47.41555" lon="6.77111">
        <ele>467.8</ele>
        <time>2021-12-20T09:46:11Z</time>
      </trkpt>
      <trkpt lat="47.41578" lon="6.77109">
        <ele>466.5</ele>
        <time>2021-12-20T09:46:16Z</time>
      </trkpt>
      <trkpt lat="47.41591" lon="6.77127">
        <ele>465.4</ele>
        <time>2021-12-20T09:46:21Z</time>
      </trkpt>
      <trkpt lat="47.41609" lon="6.77152">
        <ele>463.8</ele>
        <time>2021-12-20T09:46:26Z</time>
      </trkpt>
      <trkpt lat="47.41635" lon="6.77165">
        <ele>462.2</ele>
        <time>2021-12-20T09:46:31Z</time>
      </trkpt>
      <trkpt lat="47.41653" lon="6.77146">
        <ele>459.8</ele>
        <time>2021-12-20T09:46:36Z</time>
      </trkpt>
      <trkpt lat="47.41665" lon="6.77114">
        <ele>458.4</ele>
        <time>2021-12-20T09:46:41Z</time>
      </trkpt>
      <trkpt lat="47.4168" lon="6.77076">
        <ele>456.8</ele>
        <time>2021-12-20T09:46:46Z</time>
      </trkpt>
      <trkpt lat="47.41694" lon="6.77041">
        <ele>455.2</ele>
        <time>2021-12-20T09:46:51Z</time>
      </trkpt>
      <trkpt lat="47.41708" lon="6.77009">
        <ele>453.7</ele>
        <time>2021-12-20T09:46:56Z</time>
      </trkpt>
      <trkpt lat="47.41719" lon="6.7697">
        <ele>452.1</ele>
        <time>2021-12-20T09:47:01Z</time>
      </trkpt>
      <trkpt lat="47.41727" lon="6.76926">
        <ele>450.4</ele>
        <time>2021-12-20T09:47:06Z</time>
      </trkpt>
      <trkpt lat="47.41723" lon="6.76892">
        <ele>449.1</ele>
        <time>2021-12-20T09:47:11Z</time>
      </trkpt>
      <trkpt lat="47.41708" lon="6.76869">
        <ele>447.9</ele>
        <time>2021-12-20T09:47:16Z</time>
      </trkpt>
      <trkpt lat="47.41694" lon="6.76837">
        <ele>446.5</ele>
        <time>2021-12-20T09:47:21Z</time>
      </trkpt>
      <trkpt lat="47.41697" lon="6.76798">
        <ele>445</ele>
        <time>2021-12-20T09:47:26Z</time>
      </trkpt>
      <trkpt lat="47.417" lon="6.76749">
        <ele>443.1</ele>
        <time>2021-12-20T09:47:31Z</time>
      </trkpt>
      <trkpt lat="47.41704" lon="6.76699">
        <ele>441.1</ele>
        <time>2021-12-20T09:47:36Z</time>
      </trkpt>
      <trkpt lat="47.41711" lon="6.76651">
        <ele>439.2</ele>
        <time>2021-12-20T09:47:41Z</time>
      </trkpt>
      <trkpt lat="47.41725" lon="6.7661">
        <ele>437.5</ele>
        <time>2021-12-20T09:47:46Z</time>
      </trkpt>
      <trkpt lat="47.41738" lon="6.76575">
        <ele>436</ele>
        <time>2021-12-20T09:47:51Z</time>
      </trkpt>
      <trkpt lat="47.41752" lon="6.76541">
        <ele>434.5</ele>
        <time>2021-12-20T09:47:56Z</time>
      </trkpt>
      <trkpt lat="47.41756" lon="6.76496">
        <ele>432.7</ele>
        <time>2021-12-20T09:48:01Z</time>
      </trkpt>
      <trkpt lat="47.41759" lon="6.76454">
        <ele>431</ele>
        <time>2021-12-20T09:48:06Z</time>
      </trkpt>
      <trkpt lat="47.41763" lon="6.76413">
        <ele>429.4</ele>
        <time>2021-12-20T09:48:11Z</time>
      </trkpt>
      <trkpt lat="47.41769" lon="6.76368">
        <ele>427.7</ele>
        <time>2021-12-20T09:48:16Z</time>
      </trkpt>
      <trkpt lat="47.41777" lon="6.76319">
        <ele>425.8</ele>
        <time>2021-12-20T09:48:21Z</time>
      </trkpt>
      <trkpt lat="47.41789" lon="6.76266">
        <ele>423.8</ele>
        <time>2021-12-20T09:48:26Z</time>
      </trkpt>
      <trkpt lat="47.4181" lon="6.76205">
        <ele>420.9</ele>
        <time>2021-12-20T09:48:31Z</time>
      </trkpt>
      <trkpt lat="47.4183" lon="6.7615">
        <ele>418.6</ele>
        <time>2021-12-20T09:48:36Z</time>
      </trkpt>
      <trkpt lat="47.41847" lon="6.761">
        <ele>416.6</ele>
        <time>2021-12-20T09:48:41Z</time>
      </trkpt>
      <trkpt lat="47.41859" lon="6.76058">
        <ele>415.5</ele>
        <time>2021-12-20T09:48:46Z</time>
      </trkpt>
      <trkpt lat="47.41878" lon="6.76021">
        <ele>414.5</ele>
        <time>2021-12-20T09:48:51Z</time>
      </trkpt>
      <trkpt lat="47.41894" lon="6.76023">
        <ele>413.4</ele>
        <time>2021-12-20T09:48:56Z</time>
      </trkpt>
      <trkpt lat="47.419" lon="6.76058">
        <ele>411.9</ele>
        <time>2021-12-20T09:49:01Z</time>
      </trkpt>
      <trkpt lat="47.41903" lon="6.76097">
        <ele>410.2</ele>
        <time>2021-12-20T09:49:06Z</time>
      </trkpt>
      <trkpt lat="47.41901" lon="6.76142">
        <ele>408.2</ele>
        <time>2021-12-20T09:49:11Z</time>
      </trkpt>
      <trkpt lat="47.41901" lon="6.76184">
        <ele>406.2</ele>
        <time>2021-12-20T09:49:16Z</time>
      </trkpt>
      <trkpt lat="47.41905" lon="6.76231">
        <ele>403.8</ele>
        <time>2021-12-20T09:49:21Z</time>
      </trkpt>
      <trkpt lat="47.4191" lon="6.7628">
        <ele>401.5</ele>
        <time>2021-12-20T09:49:26Z</time>
      </trkpt>
      <trkpt lat="47.41915" lon="6.76324">
        <ele>399.7</ele>
        <time>2021-12-20T09:49:31Z</time>
      </trkpt>
      <trkpt lat="47.41921" lon="6.76375">
        <ele>397.6</ele>
        <time>2021-12-20T09:49:36Z</time>
      </trkpt>
      <trkpt lat="47.4193" lon="6.76418">
        <ele>396.1</ele>
        <time>2021-12-20T09:49:41Z</time>
      </trkpt>
      <trkpt lat="47.41935" lon="6.76459">
        <ele>394.8</ele>
        <time>2021-12-20T09:49:46Z</time>
      </trkpt>
      <trkpt lat="47.41938" lon="6.76498">
        <ele>393.3</ele>
        <time>2021-12-20T09:49:51Z</time>
      </trkpt>
      <trkpt lat="47.41943" lon="6.76551">
        <ele>391.2</ele>
        <time>2021-12-20T09:49:56Z</time>
      </trkpt>
      <trkpt lat="47.41946" lon="6.76611">
        <ele>389.1</ele>
        <time>2021-12-20T09:50:01Z</time>
      </trkpt>
      <trkpt lat="47.41943" lon="6.76665">
        <ele>387</ele>
        <time>2021-12-20T09:50:06Z</time>
      </trkpt>
      <trkpt lat="47.41944" lon="6.7671">
        <ele>385.3</ele>
        <time>2021-12-20T09:50:11Z</time>
      </trkpt>
      <trkpt lat="47.41943" lon="6.7677">
        <ele>382.9</ele>
        <time>2021-12-20T09:50:18Z</time>
      </trkpt>
      <trkpt lat="47.4194" lon="6.76818">
        <ele>381</ele>
        <time>2021-12-20T09:50:23Z</time>
      </trkpt>
      <trkpt lat="47.4193" lon="6.76865">
        <ele>379.1</ele>
        <time>2021-12-20T09:50:28Z</time>
      </trkpt>
      <trkpt lat="47.41918" lon="6.76905">
        <ele>377.5</ele>
        <time>2021-12-20T09:50:33Z</time>
      </trkpt>
      <trkpt lat="47.41909" lon="6.76943">
        <ele>376</ele>
        <time>2021-12-20T09:50:38Z</time>
      </trkpt>
      <trkpt lat="47.419" lon="6.76983">
        <ele>374.4</ele>
        <time>2021-12-20T09:50:43Z</time>
      </trkpt>
      <trkpt lat="47.41895" lon="6.77025">
        <ele>372.6</ele>
        <time>2021-12-20T09:50:48Z</time>
      </trkpt>
      <trkpt lat="47.41891" lon="6.77067">
        <ele>370.8</ele>
        <time>2021-12-20T09:50:53Z</time>
      </trkpt>
      <trkpt lat="47.41884" lon="6.77107">
        <ele>369.1</ele>
        <time>2021-12-20T09:50:58Z</time>
      </trkpt>
      <trkpt lat="47.41875" lon="6.77151">
        <ele>367.3</ele>
        <time>2021-12-20T09:51:03Z</time>
      </trkpt>
      <trkpt lat="47.41873" lon="6.77202">
        <ele>365.4</ele>
        <time>2021-12-20T09:51:08Z</time>
      </trkpt>
      <trkpt lat="47.41869" lon="6.77263">
        <ele>363.3</ele>
        <time>2021-12-20T09:51:13Z</time>
      </trkpt>
      <trkpt lat="47.41865" lon="6.77327">
        <ele>361.7</ele>
        <time>2021-12-20T09:51:18Z</time>
      </trkpt>
      <trkpt lat="47.41864" lon="6.77382">
        <ele>360.8</ele>
        <time>2021-12-20T09:51:23Z</time>
      </trkpt>
      <trkpt lat="47.41873" lon="6.77429">
        <ele>360.7</ele>
        <time>2021-12-20T09:51:28Z</time>
      </trkpt>
      <trkpt lat="47.4187" lon="6.77462">
        <ele>360.9</ele>
        <time>2021-12-20T09:51:33Z</time>
      </trkpt>
      <trkpt lat="47.41871" lon="6.77476">
        <ele>360.9</ele>
        <time>2021-12-20T09:51:38Z</time>
      </trkpt>
      <trkpt lat="47.41871" lon="6.77489">
        <ele>360.7</ele>
        <time>2021-12-20T09:51:43Z</time>
      </trkpt>
      <trkpt lat="47.41875" lon="6.77503">
        <ele>360.4</ele>
        <time>2021-12-20T09:51:48Z</time>
      </trkpt>
      <trkpt lat="47.41871" lon="6.77485">
        <ele>359.9</ele>
        <time>2021-12-20T09:51:53Z</time>
      </trkpt>
      <trkpt lat="47.41858" lon="6.77525">
        <ele>358.6</ele>
        <time>2021-12-20T09:51:58Z</time>
      </trkpt>
      <trkpt lat="47.41843" lon="6.77569">
        <ele>357.1</ele>
        <time>2021-12-20T09:52:03Z</time>
      </trkpt>
      <trkpt lat="47.41822" lon="6.77614">
        <ele>355.4</ele>
        <time>2021-12-20T09:52:08Z</time>
      </trkpt>
      <trkpt lat="47.41788" lon="6.7764">
        <ele>353.8</ele>
        <time>2021-12-20T09:52:13Z</time>
      </trkpt>
      <trkpt lat="47.41752" lon="6.77657">
        <ele>351.6</ele>
        <time>2021-12-20T09:52:18Z</time>
      </trkpt>
      <trkpt lat="47.41724" lon="6.77671">
        <ele>350.1</ele>
        <time>2021-12-20T09:52:23Z</time>
      </trkpt>
      <trkpt lat="47.41692" lon="6.77677">
        <ele>348.6</ele>
        <time>2021-12-20T09:52:28Z</time>
      </trkpt>
      <trkpt lat="47.41657" lon="6.77653">
        <ele>347.4</ele>
        <time>2021-12-20T09:52:33Z</time>
      </trkpt>
      <trkpt lat="47.41625" lon="6.77629">
        <ele>346.8</ele>
        <time>2021-12-20T09:52:38Z</time>
      </trkpt>
      <trkpt lat="47.41594" lon="6.77609">
        <ele>346.4</ele>
        <time>2021-12-20T09:52:43Z</time>
      </trkpt>
      <trkpt lat="47.41558" lon="6.77598">
        <ele>346.1</ele>
        <time>2021-12-20T09:52:49Z</time>
      </trkpt>
      <trkpt lat="47.41528" lon="6.77599">
        <ele>345.8</ele>
        <time>2021-12-20T09:52:54Z</time>
      </trkpt>
      <trkpt lat="47.41501" lon="6.77603">
        <ele>345.8</ele>
        <time>2021-12-20T09:52:59Z</time>
      </trkpt>
      <trkpt lat="47.41475" lon="6.77612">
        <ele>345.9</ele>
        <time>2021-12-20T09:53:04Z</time>
      </trkpt>
      <trkpt lat="47.41457" lon="6.77639">
        <ele>345.6</ele>
        <time>2021-12-20T09:53:09Z</time>
      </trkpt>
      <trkpt lat="47.41445" lon="6.77676">
        <ele>345.3</ele>
        <time>2021-12-20T09:53:14Z</time>
      </trkpt>
      <trkpt lat="47.41438" lon="6.77697">
        <ele>345.4</ele>
        <time>2021-12-20T09:53:19Z</time>
      </trkpt>
      <trkpt lat="47.41436" lon="6.77699">
        <ele>345.4</ele>
        <time>2021-12-20T09:53:24Z</time>
      </trkpt>
      <trkpt lat="47.41424" lon="6.77763">
        <ele>344.9</ele>
        <time>2021-12-20T09:53:31Z</time>
      </trkpt>
      <trkpt lat="47.41408" lon="6.77801">
        <ele>344.6</ele>
        <time>2021-12-20T09:53:45Z</time>
      </trkpt>
      <trkpt lat="47.41391" lon="6.77843">
        <ele>344.4</ele>
        <time>2021-12-20T09:53:50Z</time>
      </trkpt>
      <trkpt lat="47.41375" lon="6.77878">
        <ele>344.1</ele>
        <time>2021-12-20T09:53:55Z</time>
      </trkpt>
      <trkpt lat="47.4136" lon="6.7791">
        <ele>344</ele>
        <time>2021-12-20T09:54:00Z</time>
      </trkpt>
      <trkpt lat="47.41343" lon="6.77915">
        <ele>344</ele>
        <time>2021-12-20T09:54:05Z</time>
      </trkpt>
      <trkpt lat="47.4133" lon="6.77879">
        <ele>343.8</ele>
        <time>2021-12-20T09:54:10Z</time>
      </trkpt>
      <trkpt lat="47.41319" lon="6.77845">
        <ele>343.6</ele>
        <time>2021-12-20T09:54:15Z</time>
      </trkpt>
      <trkpt lat="47.41306" lon="6.77809">
        <ele>343.5</ele>
        <time>2021-12-20T09:54:20Z</time>
      </trkpt>
      <trkpt lat="47.41291" lon="6.77775">
        <ele>343.5</ele>
        <time>2021-12-20T09:54:25Z</time>
      </trkpt>
      <trkpt lat="47.41274" lon="6.77744">
        <ele>343.3</ele>
        <time>2021-12-20T09:54:30Z</time>
      </trkpt>
      <trkpt lat="47.41253" lon="6.77716">
        <ele>343.3</ele>
        <time>2021-12-20T09:54:35Z</time>
      </trkpt>
      <trkpt lat="47.41231" lon="6.77686">
        <ele>343.2</ele>
        <time>2021-12-20T09:54:40Z</time>
      </trkpt>
      <trkpt lat="47.41208" lon="6.77659">
        <ele>343.3</ele>
        <time>2021-12-20T09:54:45Z</time>
      </trkpt>
      <trkpt lat="47.41186" lon="6.77638">
        <ele>343.3</ele>
        <time>2021-12-20T09:54:50Z</time>
      </trkpt>
      <trkpt lat="47.41163" lon="6.77614">
        <ele>343.3</ele>
        <time>2021-12-20T09:54:55Z</time>
      </trkpt>
      <trkpt lat="47.41143" lon="6.77594">
        <ele>343.4</ele>
        <time>2021-12-20T09:55:00Z</time>
      </trkpt>
      <trkpt lat="47.41122" lon="6.77607">
        <ele>342.9</ele>
        <time>2021-12-20T09:55:05Z</time>
      </trkpt>
      <trkpt lat="47.41096" lon="6.77638">
        <ele>342.5</ele>
        <time>2021-12-20T09:55:10Z</time>
      </trkpt>
      <trkpt lat="47.41071" lon="6.77671">
        <ele>342.4</ele>
        <time>2021-12-20T09:55:15Z</time>
      </trkpt>
      <trkpt lat="47.41045" lon="6.77704">
        <ele>342.6</ele>
        <time>2021-12-20T09:55:20Z</time>
      </trkpt>
      <trkpt lat="47.41025" lon="6.77734">
        <ele>342.6</ele>
        <time>2021-12-20T09:55:25Z</time>
      </trkpt>
      <trkpt lat="47.41004" lon="6.7776">
        <ele>342.8</ele>
        <time>2021-12-20T09:55:30Z</time>
      </trkpt>
      <trkpt lat="47.40988" lon="6.77774">
        <ele>342.8</ele>
        <time>2021-12-20T09:55:35Z</time>
      </trkpt>
      <trkpt lat="47.40974" lon="6.77799">
        <ele>342.6</ele>
        <time>2021-12-20T09:55:40Z</time>
      </trkpt>
      <trkpt lat="47.40955" lon="6.77817">
        <ele>342.4</ele>
        <time>2021-12-20T09:55:45Z</time>
      </trkpt>
      <trkpt lat="47.40932" lon="6.77835">
        <ele>342.4</ele>
        <time>2021-12-20T09:55:50Z</time>
      </trkpt>
      <trkpt lat="47.40911" lon="6.77854">
        <ele>342.8</ele>
        <time>2021-12-20T09:55:55Z</time>
      </trkpt>
      <trkpt lat="47.40892" lon="6.77871">
        <ele>343.4</ele>
        <time>2021-12-20T09:56:00Z</time>
      </trkpt>
      <trkpt lat="47.40874" lon="6.77886">
        <ele>344.1</ele>
        <time>2021-12-20T09:56:05Z</time>
      </trkpt>
      <trkpt lat="47.40863" lon="6.77895">
        <ele>344.6</ele>
        <time>2021-12-20T09:56:10Z</time>
      </trkpt>
      <trkpt lat="47.40851" lon="6.77856">
        <ele>345</ele>
        <time>2021-12-20T09:56:28Z</time>
      </trkpt>
      <trkpt lat="47.40843" lon="6.7783">
        <ele>345.3</ele>
        <time>2021-12-20T09:56:33Z</time>
      </trkpt>
      <trkpt lat="47.40829" lon="6.77812">
        <ele>345.7</ele>
        <time>2021-12-20T09:56:38Z</time>
      </trkpt>
      <trkpt lat="47.40813" lon="6.77795">
        <ele>346.2</ele>
        <time>2021-12-20T09:56:43Z</time>
      </trkpt>
      <trkpt lat="47.40797" lon="6.77773">
        <ele>346.8</ele>
        <time>2021-12-20T09:56:48Z</time>
      </trkpt>
      <trkpt lat="47.40782" lon="6.77754">
        <ele>347.3</ele>
        <time>2021-12-20T09:56:53Z</time>
      </trkpt>
      <trkpt lat="47.40766" lon="6.77736">
        <ele>347.8</ele>
        <time>2021-12-20T09:56:58Z</time>
      </trkpt>
      <trkpt lat="47.40748" lon="6.77719">
        <ele>348.4</ele>
        <time>2021-12-20T09:57:03Z</time>
      </trkpt>
      <trkpt lat="47.4073" lon="6.77704">
        <ele>349.1</ele>
        <time>2021-12-20T09:57:08Z</time>
      </trkpt>
      <trkpt lat="47.40712" lon="6.77686">
        <ele>349.9</ele>
        <time>2021-12-20T09:57:13Z</time>
      </trkpt>
      <trkpt lat="47.40696" lon="6.77674">
        <ele>350.7</ele>
        <time>2021-12-20T09:57:18Z</time>
      </trkpt>
      <trkpt lat="47.40686" lon="6.7767">
        <ele>351.2</ele>
        <time>2021-12-20T09:57:23Z</time>
      </trkpt>
      <trkpt lat="47.40675" lon="6.77663">
        <ele>351.7</ele>
        <time>2021-12-20T09:57:28Z</time>
      </trkpt>
      <trkpt lat="47.40659" lon="6.77657">
        <ele>352.3</ele>
        <time>2021-12-20T09:57:33Z</time>
      </trkpt>
      <trkpt lat="47.4064" lon="6.77659">
        <ele>353</ele>
        <time>2021-12-20T09:57:38Z</time>
      </trkpt>
      <trkpt lat="47.40623" lon="6.77661">
        <ele>353.6</ele>
        <time>2021-12-20T09:57:43Z</time>
      </trkpt>
      <trkpt lat="47.40605" lon="6.77662">
        <ele>354.2</ele>
        <time>2021-12-20T09:57:48Z</time>
      </trkpt>
      <trkpt lat="47.4059" lon="6.77661">
        <ele>354.7</ele>
        <time>2021-12-20T09:57:53Z</time>
      </trkpt>
      <trkpt lat="47.40579" lon="6.77659">
        <ele>355.1</ele>
        <time>2021-12-20T09:57:58Z</time>
      </trkpt>
      <trkpt lat="47.40572" lon="6.77658">
        <ele>354.9</ele>
        <time>2021-12-20T09:58:03Z</time>
      </trkpt>
      <trkpt lat="47.40589" lon="6.77662">
        <ele>354.4</ele>
        <time>2021-12-20T09:59:56Z</time>
      </trkpt>
      <trkpt lat="47.40646" lon="6.77662">
        <ele>352.6</ele>
        <time>2021-12-20T10:00:05Z</time>
      </trkpt>
      <trkpt lat="47.40669" lon="6.77665">
        <ele>351.9</ele>
        <time>2021-12-20T10:00:10Z</time>
      </trkpt>
      <trkpt lat="47.40691" lon="6.77677">
        <ele>351</ele>
        <time>2021-12-20T10:00:15Z</time>
      </trkpt>
      <trkpt lat="47.40713" lon="6.77692">
        <ele>349.8</ele>
        <time>2021-12-20T10:00:20Z</time>
      </trkpt>
      <trkpt lat="47.40735" lon="6.77715">
        <ele>348.8</ele>
        <time>2021-12-20T10:00:25Z</time>
      </trkpt>
      <trkpt lat="47.40759" lon="6.77736">
        <ele>348</ele>
        <time>2021-12-20T10:00:30Z</time>
      </trkpt>
      <trkpt lat="47.40781" lon="6.77762">
        <ele>347.2</ele>
        <time>2021-12-20T10:00:35Z</time>
      </trkpt>
      <trkpt lat="47.40802" lon="6.77793">
        <ele>346.5</ele>
        <time>2021-12-20T10:00:40Z</time>
      </trkpt>
      <trkpt lat="47.40827" lon="6.77821">
        <ele>345.6</ele>
        <time>2021-12-20T10:00:45Z</time>
      </trkpt>
      <trkpt lat="47.40852" lon="6.77828">
        <ele>344.7</ele>
        <time>2021-12-20T10:00:50Z</time>
      </trkpt>
      <trkpt lat="47.40881" lon="6.778">
        <ele>343.4</ele>
        <time>2021-12-20T10:00:55Z</time>
      </trkpt>
      <trkpt lat="47.40908" lon="6.77773">
        <ele>343.1</ele>
        <time>2021-12-20T10:01:00Z</time>
      </trkpt>
      <trkpt lat="47.40934" lon="6.77748">
        <ele>343.1</ele>
        <time>2021-12-20T10:01:05Z</time>
      </trkpt>
      <trkpt lat="47.40954" lon="6.77731">
        <ele>343.3</ele>
        <time>2021-12-20T10:01:10Z</time>
      </trkpt>
      <trkpt lat="47.40944" lon="6.77701">
        <ele>343.4</ele>
        <time>2021-12-20T10:01:17Z</time>
      </trkpt>
      <trkpt lat="47.40933" lon="6.77665">
        <ele>343.6</ele>
        <time>2021-12-20T10:01:22Z</time>
      </trkpt>
      <trkpt lat="47.40922" lon="6.77628">
        <ele>343.8</ele>
        <time>2021-12-20T10:01:27Z</time>
      </trkpt>
      <trkpt lat="47.40906" lon="6.77594">
        <ele>343.9</ele>
        <time>2021-12-20T10:01:32Z</time>
      </trkpt>
      <trkpt lat="47.40889" lon="6.77562">
        <ele>344</ele>
        <time>2021-12-20T10:01:37Z</time>
      </trkpt>
      <trkpt lat="47.40872" lon="6.77527">
        <ele>344</ele>
        <time>2021-12-20T10:01:42Z</time>
      </trkpt>
      <trkpt lat="47.40855" lon="6.77492">
        <ele>344</ele>
        <time>2021-12-20T10:01:47Z</time>
      </trkpt>
      <trkpt lat="47.40839" lon="6.77457">
        <ele>344.1</ele>
        <time>2021-12-20T10:01:52Z</time>
      </trkpt>
      <trkpt lat="47.40825" lon="6.77425">
        <ele>344.2</ele>
        <time>2021-12-20T10:01:57Z</time>
      </trkpt>
      <trkpt lat="47.4081" lon="6.77392">
        <ele>344.4</ele>
        <time>2021-12-20T10:02:02Z</time>
      </trkpt>
      <trkpt lat="47.40797" lon="6.77358">
        <ele>344.5</ele>
        <time>2021-12-20T10:02:07Z</time>
      </trkpt>
      <trkpt lat="47.40783" lon="6.77323">
        <ele>344.6</ele>
        <time>2021-12-20T10:02:12Z</time>
      </trkpt>
      <trkpt lat="47.40767" lon="6.77289">
        <ele>344.5</ele>
        <time>2021-12-20T10:02:17Z</time>
      </trkpt>
      <trkpt lat="47.40749" lon="6.77253">
        <ele>344.5</ele>
        <time>2021-12-20T10:02:22Z</time>
      </trkpt>
      <trkpt lat="47.40727" lon="6.77224">
        <ele>344.6</ele>
        <time>2021-12-20T10:02:27Z</time>
      </trkpt>
      <trkpt lat="47.40703" lon="6.772">
        <ele>344.7</ele>
        <time>2021-12-20T10:02:32Z</time>
      </trkpt>
      <trkpt lat="47.40678" lon="6.77178">
        <ele>344.6</ele>
        <time>2021-12-20T10:02:37Z</time>
      </trkpt>
      <trkpt lat="47.40653" lon="6.77156">
        <ele>344.8</ele>
        <time>2021-12-20T10:02:42Z</time>
      </trkpt>
      <trkpt lat="47.40627" lon="6.77139">
        <ele>345.1</ele>
        <time>2021-12-20T10:02:47Z</time>
      </trkpt>
      <trkpt lat="47.40599" lon="6.77127">
        <ele>345.2</ele>
        <time>2021-12-20T10:02:52Z</time>
      </trkpt>
      <trkpt lat="47.4057" lon="6.77121">
        <ele>345.2</ele>
        <time>2021-12-20T10:02:57Z</time>
      </trkpt>
      <trkpt lat="47.4054" lon="6.7712">
        <ele>345.1</ele>
        <time>2021-12-20T10:03:02Z</time>
      </trkpt>
      <trkpt lat="47.40509" lon="6.77119">
        <ele>344.9</ele>
        <time>2021-12-20T10:03:07Z</time>
      </trkpt>
      <trkpt lat="47.40477" lon="6.77118">
        <ele>344.8</ele>
        <time>2021-12-20T10:03:12Z</time>
      </trkpt>
      <trkpt lat="47.40446" lon="6.77114">
        <ele>344.8</ele>
        <time>2021-12-20T10:03:17Z</time>
      </trkpt>
      <trkpt lat="47.40416" lon="6.77108">
        <ele>344.9</ele>
        <time>2021-12-20T10:03:22Z</time>
      </trkpt>
      <trkpt lat="47.40385" lon="6.77102">
        <ele>345.1</ele>
        <time>2021-12-20T10:03:27Z</time>
      </trkpt>
      <trkpt lat="47.40355" lon="6.77105">
        <ele>345</ele>
        <time>2021-12-20T10:03:32Z</time>
      </trkpt>
      <trkpt lat="47.40324" lon="6.77114">
        <ele>345</ele>
        <time>2021-12-20T10:03:37Z</time>
      </trkpt>
      <trkpt lat="47.40271" lon="6.77122">
        <ele>346.1</ele>
        <time>2021-12-20T10:03:46Z</time>
      </trkpt>
      <trkpt lat="47.40246" lon="6.77133">
        <ele>347</ele>
        <time>2021-12-20T10:03:51Z</time>
      </trkpt>
      <trkpt lat="47.40228" lon="6.77152">
        <ele>347.9</ele>
        <time>2021-12-20T10:03:56Z</time>
      </trkpt>
      <trkpt lat="47.40206" lon="6.77166">
        <ele>348.3</ele>
        <time>2021-12-20T10:04:01Z</time>
      </trkpt>
      <trkpt lat="47.40181" lon="6.77166">
        <ele>348.5</ele>
        <time>2021-12-20T10:04:06Z</time>
      </trkpt>
      <trkpt lat="47.40154" lon="6.77165">
        <ele>348.6</ele>
        <time>2021-12-20T10:04:11Z</time>
      </trkpt>
      <trkpt lat="47.40126" lon="6.77165">
        <ele>348.5</ele>
        <time>2021-12-20T10:04:16Z</time>
      </trkpt>
      <trkpt lat="47.40099" lon="6.77163">
        <ele>348.6</ele>
        <time>2021-12-20T10:04:21Z</time>
      </trkpt>
      <trkpt lat="47.40072" lon="6.7716">
        <ele>348.6</ele>
        <time>2021-12-20T10:04:26Z</time>
      </trkpt>
      <trkpt lat="47.40045" lon="6.77157">
        <ele>348.7</ele>
        <time>2021-12-20T10:04:31Z</time>
      </trkpt>
      <trkpt lat="47.40017" lon="6.77154">
        <ele>348.7</ele>
        <time>2021-12-20T10:04:36Z</time>
      </trkpt>
      <trkpt lat="47.3999" lon="6.77152">
        <ele>348.8</ele>
        <time>2021-12-20T10:04:41Z</time>
      </trkpt>
      <trkpt lat="47.39964" lon="6.7715">
        <ele>349</ele>
        <time>2021-12-20T10:04:46Z</time>
      </trkpt>
      <trkpt lat="47.39936" lon="6.7715">
        <ele>349.2</ele>
        <time>2021-12-20T10:04:51Z</time>
      </trkpt>
      <trkpt lat="47.3991" lon="6.77154">
        <ele>349.4</ele>
        <time>2021-12-20T10:04:56Z</time>
      </trkpt>
      <trkpt lat="47.39883" lon="6.77157">
        <ele>349.5</ele>
        <time>2021-12-20T10:05:01Z</time>
      </trkpt>
      <trkpt lat="47.39857" lon="6.77162">
        <ele>349.6</ele>
        <time>2021-12-20T10:05:06Z</time>
      </trkpt>
      <trkpt lat="47.39836" lon="6.77165">
        <ele>349.7</ele>
        <time>2021-12-20T10:05:12Z</time>
      </trkpt>
      <trkpt lat="47.39796" lon="6.77169">
        <ele>349.5</ele>
        <time>2021-12-20T10:05:19Z</time>
      </trkpt>
      <trkpt lat="47.39754" lon="6.77186">
        <ele>348.3</ele>
        <time>2021-12-20T10:05:27Z</time>
      </trkpt>
      <trkpt lat="47.39726" lon="6.77196">
        <ele>347.3</ele>
        <time>2021-12-20T10:05:32Z</time>
      </trkpt>
      <trkpt lat="47.39695" lon="6.77206">
        <ele>346.1</ele>
        <time>2021-12-20T10:05:37Z</time>
      </trkpt>
      <trkpt lat="47.39661" lon="6.77229">
        <ele>345.5</ele>
        <time>2021-12-20T10:05:42Z</time>
      </trkpt>
      <trkpt lat="47.39631" lon="6.77256">
        <ele>345.5</ele>
        <time>2021-12-20T10:05:47Z</time>
      </trkpt>
      <trkpt lat="47.39601" lon="6.77277">
        <ele>345.7</ele>
        <time>2021-12-20T10:05:52Z</time>
      </trkpt>
      <trkpt lat="47.39575" lon="6.773">
        <ele>345.8</ele>
        <time>2021-12-20T10:05:57Z</time>
      </trkpt>
      <trkpt lat="47.39552" lon="6.77325">
        <ele>346</ele>
        <time>2021-12-20T10:06:02Z</time>
      </trkpt>
      <trkpt lat="47.39528" lon="6.77343">
        <ele>346.3</ele>
        <time>2021-12-20T10:06:07Z</time>
      </trkpt>
      <trkpt lat="47.39504" lon="6.77354">
        <ele>346.5</ele>
        <time>2021-12-20T10:06:12Z</time>
      </trkpt>
      <trkpt lat="47.39479" lon="6.77366">
        <ele>346.6</ele>
        <time>2021-12-20T10:06:17Z</time>
      </trkpt>
      <trkpt lat="47.39452" lon="6.77375">
        <ele>346.9</ele>
        <time>2021-12-20T10:06:22Z</time>
      </trkpt>
      <trkpt lat="47.39426" lon="6.77388">
        <ele>347</ele>
        <time>2021-12-20T10:06:27Z</time>
      </trkpt>
      <trkpt lat="47.39388" lon="6.77404">
        <ele>347.2</ele>
        <time>2021-12-20T10:06:34Z</time>
      </trkpt>
      <trkpt lat="47.39362" lon="6.77413">
        <ele>347.3</ele>
        <time>2021-12-20T10:06:39Z</time>
      </trkpt>
      <trkpt lat="47.39335" lon="6.7742">
        <ele>347.4</ele>
        <time>2021-12-20T10:06:44Z</time>
      </trkpt>
      <trkpt lat="47.39309" lon="6.77427">
        <ele>347.4</ele>
        <time>2021-12-20T10:06:49Z</time>
      </trkpt>
      <trkpt lat="47.39302" lon="6.7746">
        <ele>347.9</ele>
        <time>2021-12-20T10:06:54Z</time>
      </trkpt>
      <trkpt lat="47.39302" lon="6.775">
        <ele>348.2</ele>
        <time>2021-12-20T10:06:59Z</time>
      </trkpt>
      <trkpt lat="47.39302" lon="6.7754">
        <ele>348.6</ele>
        <time>2021-12-20T10:07:04Z</time>
      </trkpt>
      <trkpt lat="47.39301" lon="6.77578">
        <ele>349.3</ele>
        <time>2021-12-20T10:07:09Z</time>
      </trkpt>
      <trkpt lat="47.39289" lon="6.7761">
        <ele>349.9</ele>
        <time>2021-12-20T10:07:14Z</time>
      </trkpt>
      <trkpt lat="47.39268" lon="6.77631">
        <ele>350.5</ele>
        <time>2021-12-20T10:07:19Z</time>
      </trkpt>
      <trkpt lat="47.39242" lon="6.77639">
        <ele>351</ele>
        <time>2021-12-20T10:07:24Z</time>
      </trkpt>
      <trkpt lat="47.39214" lon="6.77646">
        <ele>351.4</ele>
        <time>2021-12-20T10:07:29Z</time>
      </trkpt>
      <trkpt lat="47.39188" lon="6.77655">
        <ele>351.8</ele>
        <time>2021-12-20T10:07:34Z</time>
      </trkpt>
      <trkpt lat="47.39164" lon="6.77665">
        <ele>352.3</ele>
        <time>2021-12-20T10:07:39Z</time>
      </trkpt>
      <trkpt lat="47.39142" lon="6.77674">
        <ele>352.8</ele>
        <time>2021-12-20T10:07:44Z</time>
      </trkpt>
      <trkpt lat="47.39141" lon="6.77685">
        <ele>354.1</ele>
        <time>2021-12-20T10:07:49Z</time>
      </trkpt>
      <trkpt lat="47.39137" lon="6.77674">
        <ele>354.8</ele>
        <time>2021-12-20T10:08:00Z</time>
      </trkpt>
      <trkpt lat="47.39161" lon="6.77715">
        <ele>358.7</ele>
        <time>2021-12-20T10:08:31Z</time>
      </trkpt>
      <trkpt lat="47.39172" lon="6.77721">
        <ele>360.1</ele>
        <time>2021-12-20T10:08:36Z</time>
      </trkpt>
      <trkpt lat="47.39182" lon="6.77725">
        <ele>361.3</ele>
        <time>2021-12-20T10:08:41Z</time>
      </trkpt>
      <trkpt lat="47.39193" lon="6.7773">
        <ele>362.6</ele>
        <time>2021-12-20T10:08:46Z</time>
      </trkpt>
      <trkpt lat="47.39202" lon="6.77734">
        <ele>363.9</ele>
        <time>2021-12-20T10:08:51Z</time>
      </trkpt>
      <trkpt lat="47.39211" lon="6.77739">
        <ele>365.2</ele>
        <time>2021-12-20T10:08:56Z</time>
      </trkpt>
      <trkpt lat="47.3922" lon="6.77742">
        <ele>366.5</ele>
        <time>2021-12-20T10:09:01Z</time>
      </trkpt>
      <trkpt lat="47.39228" lon="6.77742">
        <ele>367.6</ele>
        <time>2021-12-20T10:09:06Z</time>
      </trkpt>
      <trkpt lat="47.39237" lon="6.7774">
        <ele>368.8</ele>
        <time>2021-12-20T10:09:11Z</time>
      </trkpt>
      <trkpt lat="47.39246" lon="6.7774">
        <ele>370</ele>
        <time>2021-12-20T10:09:16Z</time>
      </trkpt>
      <trkpt lat="47.39254" lon="6.77739">
        <ele>371</ele>
        <time>2021-12-20T10:09:21Z</time>
      </trkpt>
      <trkpt lat="47.3926" lon="6.77736">
        <ele>371.9</ele>
        <time>2021-12-20T10:09:26Z</time>
      </trkpt>
      <trkpt lat="47.39269" lon="6.77734">
        <ele>373.1</ele>
        <time>2021-12-20T10:09:31Z</time>
      </trkpt>
      <trkpt lat="47.39277" lon="6.77735">
        <ele>374</ele>
        <time>2021-12-20T10:09:36Z</time>
      </trkpt>
      <trkpt lat="47.39283" lon="6.77733">
        <ele>374.8</ele>
        <time>2021-12-20T10:09:41Z</time>
      </trkpt>
      <trkpt lat="47.3929" lon="6.77731">
        <ele>375.7</ele>
        <time>2021-12-20T10:09:46Z</time>
      </trkpt>
      <trkpt lat="47.39298" lon="6.77731">
        <ele>376.7</ele>
        <time>2021-12-20T10:09:51Z</time>
      </trkpt>
      <trkpt lat="47.39306" lon="6.77733">
        <ele>377.7</ele>
        <time>2021-12-20T10:09:56Z</time>
      </trkpt>
      <trkpt lat="47.39313" lon="6.77738">
        <ele>378.7</ele>
        <time>2021-12-20T10:10:01Z</time>
      </trkpt>
      <trkpt lat="47.39319" lon="6.77746">
        <ele>382</ele>
        <time>2021-12-20T10:10:06Z</time>
      </trkpt>
      <trkpt lat="47.39292" lon="6.77788">
        <ele>398.4</ele>
        <time>2021-12-20T10:17:04Z</time>
      </trkpt>
      <trkpt lat="47.39313" lon="6.77738">
        <ele>380.1</ele>
        <time>2021-12-20T10:17:13Z</time>
      </trkpt>
      <trkpt lat="47.39294" lon="6.77731">
        <ele>376.1</ele>
        <time>2021-12-20T10:17:18Z</time>
      </trkpt>
      <trkpt lat="47.39272" lon="6.77732">
        <ele>373.3</ele>
        <time>2021-12-20T10:17:23Z</time>
      </trkpt>
      <trkpt lat="47.3925" lon="6.77734">
        <ele>370.4</ele>
        <time>2021-12-20T10:17:28Z</time>
      </trkpt>
      <trkpt lat="47.39236" lon="6.77735">
        <ele>368.5</ele>
        <time>2021-12-20T10:17:33Z</time>
      </trkpt>
      <trkpt lat="47.39215" lon="6.77731">
        <ele>365.5</ele>
        <time>2021-12-20T10:17:38Z</time>
      </trkpt>
      <trkpt lat="47.39188" lon="6.77723">
        <ele>361.4</ele>
        <time>2021-12-20T10:17:43Z</time>
      </trkpt>
      <trkpt lat="47.39158" lon="6.77705">
        <ele>356.8</ele>
        <time>2021-12-20T10:17:48Z</time>
      </trkpt>
      <trkpt lat="47.39141" lon="6.77682">
        <ele>353.9</ele>
        <time>2021-12-20T10:17:53Z</time>
      </trkpt>
      <trkpt lat="47.39114" lon="6.77685">
        <ele>353.3</ele>
        <time>2021-12-20T10:18:01Z</time>
      </trkpt>
      <trkpt lat="47.39089" lon="6.77691">
        <ele>353.5</ele>
        <time>2021-12-20T10:18:06Z</time>
      </trkpt>
      <trkpt lat="47.39063" lon="6.77699">
        <ele>353.7</ele>
        <time>2021-12-20T10:18:11Z</time>
      </trkpt>
      <trkpt lat="47.39035" lon="6.77709">
        <ele>353.8</ele>
        <time>2021-12-20T10:18:16Z</time>
      </trkpt>
      <trkpt lat="47.3901" lon="6.77721">
        <ele>354</ele>
        <time>2021-12-20T10:18:21Z</time>
      </trkpt>
      <trkpt lat="47.38987" lon="6.77739">
        <ele>354.1</ele>
        <time>2021-12-20T10:18:26Z</time>
      </trkpt>
      <trkpt lat="47.38965" lon="6.77761">
        <ele>354.2</ele>
        <time>2021-12-20T10:18:31Z</time>
      </trkpt>
      <trkpt lat="47.38944" lon="6.77786">
        <ele>354.4</ele>
        <time>2021-12-20T10:18:36Z</time>
      </trkpt>
      <trkpt lat="47.38922" lon="6.77811">
        <ele>354.7</ele>
        <time>2021-12-20T10:18:41Z</time>
      </trkpt>
      <trkpt lat="47.38899" lon="6.77835">
        <ele>355</ele>
        <time>2021-12-20T10:18:46Z</time>
      </trkpt>
      <trkpt lat="47.38878" lon="6.77859">
        <ele>355.3</ele>
        <time>2021-12-20T10:18:51Z</time>
      </trkpt>
      <trkpt lat="47.3886" lon="6.77889">
        <ele>355.7</ele>
        <time>2021-12-20T10:18:56Z</time>
      </trkpt>
      <trkpt lat="47.38844" lon="6.77919">
        <ele>356.4</ele>
        <time>2021-12-20T10:19:01Z</time>
      </trkpt>
      <trkpt lat="47.3883" lon="6.77941">
        <ele>357.1</ele>
        <time>2021-12-20T10:19:06Z</time>
      </trkpt>
      <trkpt lat="47.38823" lon="6.77949">
        <ele>357.4</ele>
        <time>2021-12-20T10:19:11Z</time>
      </trkpt>
      <trkpt lat="47.3882" lon="6.77975">
        <ele>357.6</ele>
        <time>2021-12-20T10:19:16Z</time>
      </trkpt>
      <trkpt lat="47.38812" lon="6.78012">
        <ele>358.2</ele>
        <time>2021-12-20T10:19:21Z</time>
      </trkpt>
      <trkpt lat="47.38799" lon="6.78043">
        <ele>359.1</ele>
        <time>2021-12-20T10:19:26Z</time>
      </trkpt>
      <trkpt lat="47.38788" lon="6.78073">
        <ele>359.9</ele>
        <time>2021-12-20T10:19:31Z</time>
      </trkpt>
      <trkpt lat="47.38777" lon="6.78102">
        <ele>360.4</ele>
        <time>2021-12-20T10:19:36Z</time>
      </trkpt>
      <trkpt lat="47.38766" lon="6.78134">
        <ele>360.8</ele>
        <time>2021-12-20T10:19:41Z</time>
      </trkpt>
      <trkpt lat="47.38755" lon="6.78167">
        <ele>361.1</ele>
        <time>2021-12-20T10:19:46Z</time>
      </trkpt>
      <trkpt lat="47.38742" lon="6.78201">
        <ele>361.5</ele>
        <time>2021-12-20T10:19:51Z</time>
      </trkpt>
      <trkpt lat="47.38731" lon="6.78233">
        <ele>361.9</ele>
        <time>2021-12-20T10:19:56Z</time>
      </trkpt>
      <trkpt lat="47.38722" lon="6.78266">
        <ele>362.5</ele>
        <time>2021-12-20T10:20:01Z</time>
      </trkpt>
      <trkpt lat="47.38712" lon="6.78297">
        <ele>363</ele>
        <time>2021-12-20T10:20:06Z</time>
      </trkpt>
      <trkpt lat="47.38704" lon="6.78327">
        <ele>363.5</ele>
        <time>2021-12-20T10:20:11Z</time>
      </trkpt>
      <trkpt lat="47.38696" lon="6.78358">
        <ele>364</ele>
        <time>2021-12-20T10:20:16Z</time>
      </trkpt>
      <trkpt lat="47.38688" lon="6.7839">
        <ele>364.3</ele>
        <time>2021-12-20T10:20:21Z</time>
      </trkpt>
      <trkpt lat="47.38681" lon="6.78422">
        <ele>364.5</ele>
        <time>2021-12-20T10:20:26Z</time>
      </trkpt>
      <trkpt lat="47.38675" lon="6.78452">
        <ele>364.8</ele>
        <time>2021-12-20T10:20:31Z</time>
      </trkpt>
      <trkpt lat="47.38671" lon="6.78483">
        <ele>365.6</ele>
        <time>2021-12-20T10:20:36Z</time>
      </trkpt>
      <trkpt lat="47.38667" lon="6.78513">
        <ele>366.8</ele>
        <time>2021-12-20T10:20:41Z</time>
      </trkpt>
      <trkpt lat="47.38664" lon="6.78541">
        <ele>368.1</ele>
        <time>2021-12-20T10:20:46Z</time>
      </trkpt>
      <trkpt lat="47.3866" lon="6.7857">
        <ele>369.3</ele>
        <time>2021-12-20T10:20:51Z</time>
      </trkpt>
      <trkpt lat="47.38657" lon="6.78599">
        <ele>370.4</ele>
        <time>2021-12-20T10:20:56Z</time>
      </trkpt>
      <trkpt lat="47.38653" lon="6.7863">
        <ele>371.5</ele>
        <time>2021-12-20T10:21:01Z</time>
      </trkpt>
      <trkpt lat="47.38644" lon="6.78687">
        <ele>372.9</ele>
        <time>2021-12-20T10:21:10Z</time>
      </trkpt>
      <trkpt lat="47.38641" lon="6.78719">
        <ele>373.6</ele>
        <time>2021-12-20T10:21:15Z</time>
      </trkpt>
      <trkpt lat="47.38639" lon="6.78752">
        <ele>374.2</ele>
        <time>2021-12-20T10:21:20Z</time>
      </trkpt>
      <trkpt lat="47.38636" lon="6.78783">
        <ele>374.7</ele>
        <time>2021-12-20T10:21:25Z</time>
      </trkpt>
      <trkpt lat="47.38633" lon="6.78816">
        <ele>375.1</ele>
        <time>2021-12-20T10:21:30Z</time>
      </trkpt>
      <trkpt lat="47.3863" lon="6.7885">
        <ele>375.4</ele>
        <time>2021-12-20T10:21:35Z</time>
      </trkpt>
      <trkpt lat="47.38628" lon="6.78887">
        <ele>375.5</ele>
        <time>2021-12-20T10:21:40Z</time>
      </trkpt>
      <trkpt lat="47.38628" lon="6.78924">
        <ele>375.6</ele>
        <time>2021-12-20T10:21:45Z</time>
      </trkpt>
      <trkpt lat="47.38628" lon="6.78961">
        <ele>375.7</ele>
        <time>2021-12-20T10:21:50Z</time>
      </trkpt>
      <trkpt lat="47.38629" lon="6.78997">
        <ele>375.8</ele>
        <time>2021-12-20T10:21:55Z</time>
      </trkpt>
      <trkpt lat="47.38629" lon="6.79032">
        <ele>376</ele>
        <time>2021-12-20T10:22:00Z</time>
      </trkpt>
      <trkpt lat="47.3863" lon="6.79069">
        <ele>376.1</ele>
        <time>2021-12-20T10:22:05Z</time>
      </trkpt>
      <trkpt lat="47.38631" lon="6.79109">
        <ele>376.2</ele>
        <time>2021-12-20T10:22:10Z</time>
      </trkpt>
      <trkpt lat="47.38631" lon="6.79147">
        <ele>376.2</ele>
        <time>2021-12-20T10:22:15Z</time>
      </trkpt>
      <trkpt lat="47.38634" lon="6.79186">
        <ele>376.2</ele>
        <time>2021-12-20T10:22:20Z</time>
      </trkpt>
      <trkpt lat="47.38635" lon="6.79225">
        <ele>376.1</ele>
        <time>2021-12-20T10:22:25Z</time>
      </trkpt>
      <trkpt lat="47.38638" lon="6.79268">
        <ele>376</ele>
        <time>2021-12-20T10:22:30Z</time>
      </trkpt>
      <trkpt lat="47.38643" lon="6.79308">
        <ele>376</ele>
        <time>2021-12-20T10:22:35Z</time>
      </trkpt>
      <trkpt lat="47.3865" lon="6.79348">
        <ele>376.1</ele>
        <time>2021-12-20T10:22:40Z</time>
      </trkpt>
      <trkpt lat="47.38657" lon="6.79388">
        <ele>376.3</ele>
        <time>2021-12-20T10:22:45Z</time>
      </trkpt>
      <trkpt lat="47.38664" lon="6.79426">
        <ele>376.6</ele>
        <time>2021-12-20T10:22:50Z</time>
      </trkpt>
      <trkpt lat="47.3867" lon="6.79464">
        <ele>376.8</ele>
        <time>2021-12-20T10:22:55Z</time>
      </trkpt>
      <trkpt lat="47.38675" lon="6.79503">
        <ele>376.8</ele>
        <time>2021-12-20T10:23:00Z</time>
      </trkpt>
      <trkpt lat="47.38675" lon="6.79543">
        <ele>376.6</ele>
        <time>2021-12-20T10:23:05Z</time>
      </trkpt>
      <trkpt lat="47.38662" lon="6.79578">
        <ele>376.7</ele>
        <time>2021-12-20T10:23:10Z</time>
      </trkpt>
      <trkpt lat="47.38652" lon="6.79613">
        <ele>377</ele>
        <time>2021-12-20T10:23:15Z</time>
      </trkpt>
      <trkpt lat="47.38644" lon="6.79646">
        <ele>377.6</ele>
        <time>2021-12-20T10:23:20Z</time>
      </trkpt>
      <trkpt lat="47.38637" lon="6.79673">
        <ele>378.2</ele>
        <time>2021-12-20T10:23:25Z</time>
      </trkpt>
      <trkpt lat="47.38634" lon="6.79695">
        <ele>378.7</ele>
        <time>2021-12-20T10:23:30Z</time>
      </trkpt>
      <trkpt lat="47.38644" lon="6.79698">
        <ele>379.5</ele>
        <time>2021-12-20T10:23:35Z</time>
      </trkpt>
      <trkpt lat="47.38657" lon="6.7969">
        <ele>380.4</ele>
        <time>2021-12-20T10:23:40Z</time>
      </trkpt>
      <trkpt lat="47.38672" lon="6.79685">
        <ele>381.7</ele>
        <time>2021-12-20T10:23:45Z</time>
      </trkpt>
      <trkpt lat="47.38687" lon="6.79687">
        <ele>382.9</ele>
        <time>2021-12-20T10:23:50Z</time>
      </trkpt>
      <trkpt lat="47.387" lon="6.79692">
        <ele>384</ele>
        <time>2021-12-20T10:23:55Z</time>
      </trkpt>
      <trkpt lat="47.38713" lon="6.797">
        <ele>385.1</ele>
        <time>2021-12-20T10:24:00Z</time>
      </trkpt>
      <trkpt lat="47.38726" lon="6.79709">
        <ele>386.1</ele>
        <time>2021-12-20T10:24:05Z</time>
      </trkpt>
      <trkpt lat="47.38738" lon="6.79715">
        <ele>387.1</ele>
        <time>2021-12-20T10:24:10Z</time>
      </trkpt>
      <trkpt lat="47.38749" lon="6.79722">
        <ele>388.1</ele>
        <time>2021-12-20T10:24:15Z</time>
      </trkpt>
      <trkpt lat="47.38758" lon="6.79729">
        <ele>388.9</ele>
        <time>2021-12-20T10:24:20Z</time>
      </trkpt>
      <trkpt lat="47.38767" lon="6.79734">
        <ele>389.6</ele>
        <time>2021-12-20T10:24:25Z</time>
      </trkpt>
      <trkpt lat="47.38776" lon="6.79739">
        <ele>390.4</ele>
        <time>2021-12-20T10:24:30Z</time>
      </trkpt>
      <trkpt lat="47.38786" lon="6.79747">
        <ele>391.2</ele>
        <time>2021-12-20T10:24:35Z</time>
      </trkpt>
      <trkpt lat="47.38796" lon="6.79754">
        <ele>391.9</ele>
        <time>2021-12-20T10:24:40Z</time>
      </trkpt>
      <trkpt lat="47.38807" lon="6.79762">
        <ele>392.8</ele>
        <time>2021-12-20T10:24:45Z</time>
      </trkpt>
      <trkpt lat="47.38817" lon="6.79773">
        <ele>393.7</ele>
        <time>2021-12-20T10:24:50Z</time>
      </trkpt>
      <trkpt lat="47.38827" lon="6.79782">
        <ele>394.5</ele>
        <time>2021-12-20T10:24:55Z</time>
      </trkpt>
      <trkpt lat="47.38836" lon="6.79787">
        <ele>395.2</ele>
        <time>2021-12-20T10:25:00Z</time>
      </trkpt>
      <trkpt lat="47.38848" lon="6.79791">
        <ele>396.1</ele>
        <time>2021-12-20T10:25:05Z</time>
      </trkpt>
      <trkpt lat="47.38858" lon="6.79796">
        <ele>397</ele>
        <time>2021-12-20T10:25:10Z</time>
      </trkpt>
      <trkpt lat="47.38868" lon="6.79804">
        <ele>397.8</ele>
        <time>2021-12-20T10:25:15Z</time>
      </trkpt>
      <trkpt lat="47.38875" lon="6.79811">
        <ele>398.5</ele>
        <time>2021-12-20T10:25:20Z</time>
      </trkpt>
      <trkpt lat="47.38884" lon="6.79818">
        <ele>399.2</ele>
        <time>2021-12-20T10:25:25Z</time>
      </trkpt>
      <trkpt lat="47.38894" lon="6.79825">
        <ele>400.1</ele>
        <time>2021-12-20T10:25:30Z</time>
      </trkpt>
      <trkpt lat="47.38903" lon="6.79833">
        <ele>401</ele>
        <time>2021-12-20T10:25:35Z</time>
      </trkpt>
      <trkpt lat="47.38911" lon="6.79839">
        <ele>401.7</ele>
        <time>2021-12-20T10:25:40Z</time>
      </trkpt>
      <trkpt lat="47.38919" lon="6.79845">
        <ele>402.4</ele>
        <time>2021-12-20T10:25:45Z</time>
      </trkpt>
      <trkpt lat="47.38926" lon="6.79852">
        <ele>403</ele>
        <time>2021-12-20T10:25:50Z</time>
      </trkpt>
      <trkpt lat="47.38934" lon="6.7986">
        <ele>403.8</ele>
        <time>2021-12-20T10:25:55Z</time>
      </trkpt>
      <trkpt lat="47.38943" lon="6.79869">
        <ele>404.6</ele>
        <time>2021-12-20T10:26:00Z</time>
      </trkpt>
      <trkpt lat="47.38951" lon="6.79875">
        <ele>405.3</ele>
        <time>2021-12-20T10:26:05Z</time>
      </trkpt>
      <trkpt lat="47.38963" lon="6.79884">
        <ele>406.3</ele>
        <time>2021-12-20T10:26:10Z</time>
      </trkpt>
      <trkpt lat="47.38973" lon="6.79893">
        <ele>407.2</ele>
        <time>2021-12-20T10:26:15Z</time>
      </trkpt>
      <trkpt lat="47.38982" lon="6.79902">
        <ele>408</ele>
        <time>2021-12-20T10:26:20Z</time>
      </trkpt>
      <trkpt lat="47.38989" lon="6.7991">
        <ele>408.7</ele>
        <time>2021-12-20T10:26:25Z</time>
      </trkpt>
      <trkpt lat="47.38999" lon="6.79917">
        <ele>409.5</ele>
        <time>2021-12-20T10:26:30Z</time>
      </trkpt>
      <trkpt lat="47.3901" lon="6.79923">
        <ele>410.4</ele>
        <time>2021-12-20T10:26:35Z</time>
      </trkpt>
      <trkpt lat="47.39022" lon="6.79923">
        <ele>411.2</ele>
        <time>2021-12-20T10:26:40Z</time>
      </trkpt>
      <trkpt lat="47.39029" lon="6.79914">
        <ele>411.8</ele>
        <time>2021-12-20T10:26:45Z</time>
      </trkpt>
      <trkpt lat="47.39039" lon="6.79905">
        <ele>412.8</ele>
        <time>2021-12-20T10:26:50Z</time>
      </trkpt>
      <trkpt lat="47.39046" lon="6.79894">
        <ele>413.7</ele>
        <time>2021-12-20T10:26:55Z</time>
      </trkpt>
      <trkpt lat="47.39055" lon="6.79886">
        <ele>414.6</ele>
        <time>2021-12-20T10:27:00Z</time>
      </trkpt>
      <trkpt lat="47.39063" lon="6.7988">
        <ele>415.5</ele>
        <time>2021-12-20T10:27:05Z</time>
      </trkpt>
      <trkpt lat="47.39071" lon="6.79871">
        <ele>416.3</ele>
        <time>2021-12-20T10:27:10Z</time>
      </trkpt>
      <trkpt lat="47.3908" lon="6.79865">
        <ele>417.2</ele>
        <time>2021-12-20T10:27:15Z</time>
      </trkpt>
      <trkpt lat="47.3909" lon="6.79862">
        <ele>418</ele>
        <time>2021-12-20T10:27:20Z</time>
      </trkpt>
      <trkpt lat="47.39101" lon="6.79863">
        <ele>418.9</ele>
        <time>2021-12-20T10:27:25Z</time>
      </trkpt>
      <trkpt lat="47.39111" lon="6.79864">
        <ele>419.7</ele>
        <time>2021-12-20T10:27:30Z</time>
      </trkpt>
      <trkpt lat="47.39119" lon="6.79867">
        <ele>420.3</ele>
        <time>2021-12-20T10:27:35Z</time>
      </trkpt>
      <trkpt lat="47.39129" lon="6.79871">
        <ele>421.1</ele>
        <time>2021-12-20T10:27:40Z</time>
      </trkpt>
      <trkpt lat="47.39142" lon="6.79877">
        <ele>422.2</ele>
        <time>2021-12-20T10:27:46Z</time>
      </trkpt>
      <trkpt lat="47.39152" lon="6.79883">
        <ele>423.2</ele>
        <time>2021-12-20T10:27:52Z</time>
      </trkpt>
      <trkpt lat="47.39164" lon="6.79889">
        <ele>424.4</ele>
        <time>2021-12-20T10:28:00Z</time>
      </trkpt>
      <trkpt lat="47.39174" lon="6.79897">
        <ele>425.4</ele>
        <time>2021-12-20T10:28:06Z</time>
      </trkpt>
      <trkpt lat="47.39185" lon="6.79906">
        <ele>426.4</ele>
        <time>2021-12-20T10:28:11Z</time>
      </trkpt>
      <trkpt lat="47.39193" lon="6.79914">
        <ele>427.1</ele>
        <time>2021-12-20T10:28:16Z</time>
      </trkpt>
      <trkpt lat="47.392" lon="6.79919">
        <ele>427.8</ele>
        <time>2021-12-20T10:28:21Z</time>
      </trkpt>
      <trkpt lat="47.39207" lon="6.79926">
        <ele>428.4</ele>
        <time>2021-12-20T10:28:26Z</time>
      </trkpt>
      <trkpt lat="47.39216" lon="6.79935">
        <ele>429.2</ele>
        <time>2021-12-20T10:28:31Z</time>
      </trkpt>
      <trkpt lat="47.39256" lon="6.79978">
        <ele>433.1</ele>
        <time>2021-12-20T10:29:04Z</time>
      </trkpt>
      <trkpt lat="47.39285" lon="6.80012">
        <ele>435.7</ele>
        <time>2021-12-20T10:29:12Z</time>
      </trkpt>
      <trkpt lat="47.39291" lon="6.80019">
        <ele>436.2</ele>
        <time>2021-12-20T10:29:17Z</time>
      </trkpt>
      <trkpt lat="47.39302" lon="6.80027">
        <ele>437</ele>
        <time>2021-12-20T10:29:22Z</time>
      </trkpt>
      <trkpt lat="47.39312" lon="6.80036">
        <ele>437.8</ele>
        <time>2021-12-20T10:29:27Z</time>
      </trkpt>
      <trkpt lat="47.39321" lon="6.80046">
        <ele>438.6</ele>
        <time>2021-12-20T10:29:32Z</time>
      </trkpt>
      <trkpt lat="47.3933" lon="6.80054">
        <ele>439.4</ele>
        <time>2021-12-20T10:29:37Z</time>
      </trkpt>
      <trkpt lat="47.39339" lon="6.80062">
        <ele>440.1</ele>
        <time>2021-12-20T10:29:42Z</time>
      </trkpt>
      <trkpt lat="47.39349" lon="6.80069">
        <ele>441</ele>
        <time>2021-12-20T10:29:47Z</time>
      </trkpt>
      <trkpt lat="47.39357" lon="6.80078">
        <ele>441.8</ele>
        <time>2021-12-20T10:29:52Z</time>
      </trkpt>
      <trkpt lat="47.39367" lon="6.80086">
        <ele>442.6</ele>
        <time>2021-12-20T10:29:57Z</time>
      </trkpt>
      <trkpt lat="47.39375" lon="6.80094">
        <ele>443.3</ele>
        <time>2021-12-20T10:30:02Z</time>
      </trkpt>
      <trkpt lat="47.39383" lon="6.80101">
        <ele>444</ele>
        <time>2021-12-20T10:30:07Z</time>
      </trkpt>
      <trkpt lat="47.39393" lon="6.80108">
        <ele>444.8</ele>
        <time>2021-12-20T10:30:12Z</time>
      </trkpt>
      <trkpt lat="47.39401" lon="6.80116">
        <ele>445.5</ele>
        <time>2021-12-20T10:30:17Z</time>
      </trkpt>
      <trkpt lat="47.3941" lon="6.80124">
        <ele>446.3</ele>
        <time>2021-12-20T10:30:22Z</time>
      </trkpt>
      <trkpt lat="47.39418" lon="6.80131">
        <ele>447.1</ele>
        <time>2021-12-20T10:30:27Z</time>
      </trkpt>
      <trkpt lat="47.39427" lon="6.80139">
        <ele>447.8</ele>
        <time>2021-12-20T10:30:32Z</time>
      </trkpt>
      <trkpt lat="47.39436" lon="6.80144">
        <ele>448.6</ele>
        <time>2021-12-20T10:30:37Z</time>
      </trkpt>
      <trkpt lat="47.39445" lon="6.80151">
        <ele>449.5</ele>
        <time>2021-12-20T10:30:42Z</time>
      </trkpt>
      <trkpt lat="47.39457" lon="6.8016">
        <ele>450.5</ele>
        <time>2021-12-20T10:30:49Z</time>
      </trkpt>
      <trkpt lat="47.39465" lon="6.80166">
        <ele>451.3</ele>
        <time>2021-12-20T10:30:54Z</time>
      </trkpt>
      <trkpt lat="47.39473" lon="6.80172">
        <ele>452</ele>
        <time>2021-12-20T10:30:59Z</time>
      </trkpt>
      <trkpt lat="47.39482" lon="6.80179">
        <ele>452.8</ele>
        <time>2021-12-20T10:31:04Z</time>
      </trkpt>
      <trkpt lat="47.39491" lon="6.80183">
        <ele>453.5</ele>
        <time>2021-12-20T10:31:09Z</time>
      </trkpt>
      <trkpt lat="47.395" lon="6.8019">
        <ele>454.3</ele>
        <time>2021-12-20T10:31:14Z</time>
      </trkpt>
      <trkpt lat="47.3951" lon="6.80194">
        <ele>455.2</ele>
        <time>2021-12-20T10:31:19Z</time>
      </trkpt>
      <trkpt lat="47.39524" lon="6.80205">
        <ele>456.5</ele>
        <time>2021-12-20T10:31:29Z</time>
      </trkpt>
      <trkpt lat="47.39532" lon="6.80214">
        <ele>457.3</ele>
        <time>2021-12-20T10:31:34Z</time>
      </trkpt>
      <trkpt lat="47.39541" lon="6.8022">
        <ele>458.1</ele>
        <time>2021-12-20T10:31:39Z</time>
      </trkpt>
      <trkpt lat="47.3955" lon="6.80226">
        <ele>459</ele>
        <time>2021-12-20T10:31:44Z</time>
      </trkpt>
      <trkpt lat="47.39559" lon="6.80234">
        <ele>459.8</ele>
        <time>2021-12-20T10:31:49Z</time>
      </trkpt>
      <trkpt lat="47.39569" lon="6.80243">
        <ele>460.8</ele>
        <time>2021-12-20T10:31:54Z</time>
      </trkpt>
      <trkpt lat="47.39581" lon="6.8025">
        <ele>461.9</ele>
        <time>2021-12-20T10:32:01Z</time>
      </trkpt>
      <trkpt lat="47.39588" lon="6.80255">
        <ele>462.6</ele>
        <time>2021-12-20T10:32:06Z</time>
      </trkpt>
      <trkpt lat="47.39595" lon="6.80259">
        <ele>463.2</ele>
        <time>2021-12-20T10:32:11Z</time>
      </trkpt>
      <trkpt lat="47.39604" lon="6.80263">
        <ele>463.9</ele>
        <time>2021-12-20T10:32:16Z</time>
      </trkpt>
      <trkpt lat="47.39613" lon="6.80269">
        <ele>464.7</ele>
        <time>2021-12-20T10:32:21Z</time>
      </trkpt>
      <trkpt lat="47.3962" lon="6.80272">
        <ele>465.3</ele>
        <time>2021-12-20T10:32:26Z</time>
      </trkpt>
      <trkpt lat="47.39629" lon="6.80276">
        <ele>466.1</ele>
        <time>2021-12-20T10:32:31Z</time>
      </trkpt>
      <trkpt lat="47.39639" lon="6.80282">
        <ele>466.9</ele>
        <time>2021-12-20T10:32:36Z</time>
      </trkpt>
      <trkpt lat="47.39648" lon="6.8029">
        <ele>467.8</ele>
        <time>2021-12-20T10:32:41Z</time>
      </trkpt>
      <trkpt lat="47.39659" lon="6.80292">
        <ele>468.5</ele>
        <time>2021-12-20T10:32:46Z</time>
      </trkpt>
      <trkpt lat="47.3967" lon="6.80297">
        <ele>469.3</ele>
        <time>2021-12-20T10:32:51Z</time>
      </trkpt>
      <trkpt lat="47.39678" lon="6.80304">
        <ele>470</ele>
        <time>2021-12-20T10:32:56Z</time>
      </trkpt>
      <trkpt lat="47.39685" lon="6.80312">
        <ele>470.6</ele>
        <time>2021-12-20T10:33:01Z</time>
      </trkpt>
      <trkpt lat="47.39696" lon="6.80317">
        <ele>471.4</ele>
        <time>2021-12-20T10:33:06Z</time>
      </trkpt>
      <trkpt lat="47.39702" lon="6.80325">
        <ele>472</ele>
        <time>2021-12-20T10:33:11Z</time>
      </trkpt>
      <trkpt lat="47.39708" lon="6.80336">
        <ele>472.6</ele>
        <time>2021-12-20T10:33:16Z</time>
      </trkpt>
      <trkpt lat="47.39716" lon="6.80344">
        <ele>473.3</ele>
        <time>2021-12-20T10:33:21Z</time>
      </trkpt>
      <trkpt lat="47.39724" lon="6.80354">
        <ele>474.1</ele>
        <time>2021-12-20T10:33:26Z</time>
      </trkpt>
      <trkpt lat="47.39731" lon="6.80367">
        <ele>474.9</ele>
        <time>2021-12-20T10:33:31Z</time>
      </trkpt>
      <trkpt lat="47.39737" lon="6.80379">
        <ele>475.6</ele>
        <time>2021-12-20T10:33:36Z</time>
      </trkpt>
      <trkpt lat="47.39746" lon="6.80387">
        <ele>476.4</ele>
        <time>2021-12-20T10:33:41Z</time>
      </trkpt>
      <trkpt lat="47.39757" lon="6.80392">
        <ele>477.2</ele>
        <time>2021-12-20T10:33:46Z</time>
      </trkpt>
      <trkpt lat="47.39765" lon="6.80391">
        <ele>477.8</ele>
        <time>2021-12-20T10:33:51Z</time>
      </trkpt>
      <trkpt lat="47.39774" lon="6.80384">
        <ele>478.6</ele>
        <time>2021-12-20T10:33:56Z</time>
      </trkpt>
      <trkpt lat="47.39783" lon="6.80378">
        <ele>479.3</ele>
        <time>2021-12-20T10:34:01Z</time>
      </trkpt>
      <trkpt lat="47.39793" lon="6.80373">
        <ele>480.1</ele>
        <time>2021-12-20T10:34:06Z</time>
      </trkpt>
      <trkpt lat="47.39802" lon="6.80368">
        <ele>480.8</ele>
        <time>2021-12-20T10:34:11Z</time>
      </trkpt>
      <trkpt lat="47.39812" lon="6.80365">
        <ele>481.6</ele>
        <time>2021-12-20T10:34:16Z</time>
      </trkpt>
      <trkpt lat="47.39824" lon="6.80365">
        <ele>482.5</ele>
        <time>2021-12-20T10:34:21Z</time>
      </trkpt>
      <trkpt lat="47.39832" lon="6.80365">
        <ele>483.1</ele>
        <time>2021-12-20T10:34:26Z</time>
      </trkpt>
      <trkpt lat="47.39843" lon="6.80371">
        <ele>484</ele>
        <time>2021-12-20T10:34:31Z</time>
      </trkpt>
      <trkpt lat="47.3985" lon="6.80378">
        <ele>484.7</ele>
        <time>2021-12-20T10:34:36Z</time>
      </trkpt>
      <trkpt lat="47.39857" lon="6.80383">
        <ele>485.3</ele>
        <time>2021-12-20T10:34:41Z</time>
      </trkpt>
      <trkpt lat="47.39863" lon="6.8039">
        <ele>485.9</ele>
        <time>2021-12-20T10:34:46Z</time>
      </trkpt>
      <trkpt lat="47.3987" lon="6.80399">
        <ele>486.6</ele>
        <time>2021-12-20T10:34:51Z</time>
      </trkpt>
      <trkpt lat="47.3988" lon="6.80406">
        <ele>487.4</ele>
        <time>2021-12-20T10:34:56Z</time>
      </trkpt>
      <trkpt lat="47.39888" lon="6.80416">
        <ele>488.1</ele>
        <time>2021-12-20T10:35:01Z</time>
      </trkpt>
      <trkpt lat="47.39896" lon="6.80426">
        <ele>488.9</ele>
        <time>2021-12-20T10:35:06Z</time>
      </trkpt>
      <trkpt lat="47.39904" lon="6.80437">
        <ele>489.7</ele>
        <time>2021-12-20T10:35:11Z</time>
      </trkpt>
      <trkpt lat="47.3991" lon="6.8045">
        <ele>490.4</ele>
        <time>2021-12-20T10:35:16Z</time>
      </trkpt>
      <trkpt lat="47.39915" lon="6.80462">
        <ele>491.2</ele>
        <time>2021-12-20T10:35:21Z</time>
      </trkpt>
      <trkpt lat="47.39919" lon="6.80475">
        <ele>491.9</ele>
        <time>2021-12-20T10:35:26Z</time>
      </trkpt>
      <trkpt lat="47.3992" lon="6.80486">
        <ele>492.4</ele>
        <time>2021-12-20T10:35:31Z</time>
      </trkpt>
      <trkpt lat="47.39927" lon="6.80516">
        <ele>494.1</ele>
        <time>2021-12-20T10:35:42Z</time>
      </trkpt>
      <trkpt lat="47.39932" lon="6.80554">
        <ele>496.1</ele>
        <time>2021-12-20T10:35:58Z</time>
      </trkpt>
      <trkpt lat="47.39933" lon="6.80567">
        <ele>496.7</ele>
        <time>2021-12-20T10:36:03Z</time>
      </trkpt>
      <trkpt lat="47.39935" lon="6.80579">
        <ele>497.3</ele>
        <time>2021-12-20T10:36:08Z</time>
      </trkpt>
      <trkpt lat="47.39939" lon="6.8059">
        <ele>497.9</ele>
        <time>2021-12-20T10:36:13Z</time>
      </trkpt>
      <trkpt lat="47.39941" lon="6.80601">
        <ele>498.4</ele>
        <time>2021-12-20T10:36:18Z</time>
      </trkpt>
      <trkpt lat="47.39944" lon="6.80613">
        <ele>499</ele>
        <time>2021-12-20T10:36:23Z</time>
      </trkpt>
      <trkpt lat="47.39947" lon="6.80625">
        <ele>499.6</ele>
        <time>2021-12-20T10:36:28Z</time>
      </trkpt>
      <trkpt lat="47.39952" lon="6.80637">
        <ele>500.3</ele>
        <time>2021-12-20T10:36:33Z</time>
      </trkpt>
      <trkpt lat="47.39956" lon="6.80649">
        <ele>500.9</ele>
        <time>2021-12-20T10:36:38Z</time>
      </trkpt>
      <trkpt lat="47.39959" lon="6.80661">
        <ele>501.6</ele>
        <time>2021-12-20T10:36:43Z</time>
      </trkpt>
      <trkpt lat="47.39961" lon="6.80672">
        <ele>502.2</ele>
        <time>2021-12-20T10:36:48Z</time>
      </trkpt>
      <trkpt lat="47.39963" lon="6.80685">
        <ele>502.9</ele>
        <time>2021-12-20T10:36:53Z</time>
      </trkpt>
      <trkpt lat="47.39964" lon="6.80696">
        <ele>503.4</ele>
        <time>2021-12-20T10:36:58Z</time>
      </trkpt>
      <trkpt lat="47.39966" lon="6.8071">
        <ele>504.1</ele>
        <time>2021-12-20T10:37:03Z</time>
      </trkpt>
      <trkpt lat="47.39971" lon="6.80725">
        <ele>505</ele>
        <time>2021-12-20T10:37:08Z</time>
      </trkpt>
      <trkpt lat="47.39975" lon="6.80738">
        <ele>505.6</ele>
        <time>2021-12-20T10:37:13Z</time>
      </trkpt>
      <trkpt lat="47.39979" lon="6.80752">
        <ele>506.4</ele>
        <time>2021-12-20T10:37:18Z</time>
      </trkpt>
      <trkpt lat="47.39981" lon="6.80764">
        <ele>507</ele>
        <time>2021-12-20T10:37:23Z</time>
      </trkpt>
      <trkpt lat="47.39984" lon="6.80777">
        <ele>507.7</ele>
        <time>2021-12-20T10:37:28Z</time>
      </trkpt>
      <trkpt lat="47.39988" lon="6.80792">
        <ele>508.5</ele>
        <time>2021-12-20T10:37:33Z</time>
      </trkpt>
      <trkpt lat="47.39991" lon="6.80805">
        <ele>509.2</ele>
        <time>2021-12-20T10:37:38Z</time>
      </trkpt>
      <trkpt lat="47.39994" lon="6.80818">
        <ele>509.9</ele>
        <time>2021-12-20T10:37:43Z</time>
      </trkpt>
      <trkpt lat="47.39998" lon="6.80831">
        <ele>510.5</ele>
        <time>2021-12-20T10:37:48Z</time>
      </trkpt>
      <trkpt lat="47.40002" lon="6.80846">
        <ele>511.3</ele>
        <time>2021-12-20T10:37:53Z</time>
      </trkpt>
      <trkpt lat="47.40003" lon="6.80859">
        <ele>512</ele>
        <time>2021-12-20T10:37:58Z</time>
      </trkpt>
      <trkpt lat="47.40006" lon="6.80871">
        <ele>512.6</ele>
        <time>2021-12-20T10:38:03Z</time>
      </trkpt>
      <trkpt lat="47.4001" lon="6.80882">
        <ele>513.2</ele>
        <time>2021-12-20T10:38:08Z</time>
      </trkpt>
      <trkpt lat="47.40013" lon="6.80892">
        <ele>513.8</ele>
        <time>2021-12-20T10:38:13Z</time>
      </trkpt>
      <trkpt lat="47.40019" lon="6.80903">
        <ele>514.5</ele>
        <time>2021-12-20T10:38:18Z</time>
      </trkpt>
      <trkpt lat="47.40024" lon="6.80915">
        <ele>515.1</ele>
        <time>2021-12-20T10:38:23Z</time>
      </trkpt>
      <trkpt lat="47.40027" lon="6.80926">
        <ele>515.7</ele>
        <time>2021-12-20T10:38:28Z</time>
      </trkpt>
      <trkpt lat="47.4003" lon="6.80939">
        <ele>516.4</ele>
        <time>2021-12-20T10:38:33Z</time>
      </trkpt>
      <trkpt lat="47.40036" lon="6.80956">
        <ele>517.2</ele>
        <time>2021-12-20T10:38:38Z</time>
      </trkpt>
      <trkpt lat="47.40042" lon="6.80972">
        <ele>518</ele>
        <time>2021-12-20T10:38:43Z</time>
      </trkpt>
      <trkpt lat="47.4005" lon="6.80991">
        <ele>519</ele>
        <time>2021-12-20T10:38:48Z</time>
      </trkpt>
      <trkpt lat="47.40057" lon="6.81008">
        <ele>519.9</ele>
        <time>2021-12-20T10:38:53Z</time>
      </trkpt>
      <trkpt lat="47.40064" lon="6.81021">
        <ele>520.7</ele>
        <time>2021-12-20T10:38:58Z</time>
      </trkpt>
      <trkpt lat="47.40069" lon="6.81035">
        <ele>521.5</ele>
        <time>2021-12-20T10:39:03Z</time>
      </trkpt>
      <trkpt lat="47.40076" lon="6.81047">
        <ele>522.3</ele>
        <time>2021-12-20T10:39:08Z</time>
      </trkpt>
      <trkpt lat="47.40082" lon="6.8106">
        <ele>523.1</ele>
        <time>2021-12-20T10:39:13Z</time>
      </trkpt>
      <trkpt lat="47.40091" lon="6.81072">
        <ele>524</ele>
        <time>2021-12-20T10:39:18Z</time>
      </trkpt>
      <trkpt lat="47.40099" lon="6.81082">
        <ele>524.8</ele>
        <time>2021-12-20T10:39:23Z</time>
      </trkpt>
      <trkpt lat="47.40107" lon="6.8109">
        <ele>525.5</ele>
        <time>2021-12-20T10:39:28Z</time>
      </trkpt>
      <trkpt lat="47.40115" lon="6.81099">
        <ele>526.3</ele>
        <time>2021-12-20T10:39:33Z</time>
      </trkpt>
      <trkpt lat="47.40122" lon="6.81111">
        <ele>527.1</ele>
        <time>2021-12-20T10:39:38Z</time>
      </trkpt>
      <trkpt lat="47.40129" lon="6.81123">
        <ele>527.9</ele>
        <time>2021-12-20T10:39:43Z</time>
      </trkpt>
      <trkpt lat="47.40137" lon="6.81131">
        <ele>528.6</ele>
        <time>2021-12-20T10:39:49Z</time>
      </trkpt>
      <trkpt lat="47.40144" lon="6.8113">
        <ele>529.1</ele>
        <time>2021-12-20T10:39:54Z</time>
      </trkpt>
      <trkpt lat="47.40154" lon="6.81123">
        <ele>530</ele>
        <time>2021-12-20T10:39:59Z</time>
      </trkpt>
      <trkpt lat="47.40167" lon="6.81119">
        <ele>530.9</ele>
        <time>2021-12-20T10:40:04Z</time>
      </trkpt>
      <trkpt lat="47.40178" lon="6.8112">
        <ele>531.7</ele>
        <time>2021-12-20T10:40:09Z</time>
      </trkpt>
      <trkpt lat="47.40189" lon="6.81126">
        <ele>532.5</ele>
        <time>2021-12-20T10:40:14Z</time>
      </trkpt>
      <trkpt lat="47.402" lon="6.81129">
        <ele>533.1</ele>
        <time>2021-12-20T10:40:19Z</time>
      </trkpt>
      <trkpt lat="47.40209" lon="6.81135">
        <ele>533.7</ele>
        <time>2021-12-20T10:40:24Z</time>
      </trkpt>
      <trkpt lat="47.4022" lon="6.81141">
        <ele>534.4</ele>
        <time>2021-12-20T10:40:29Z</time>
      </trkpt>
      <trkpt lat="47.40231" lon="6.81149">
        <ele>535.2</ele>
        <time>2021-12-20T10:40:34Z</time>
      </trkpt>
      <trkpt lat="47.40239" lon="6.81158">
        <ele>535.9</ele>
        <time>2021-12-20T10:40:39Z</time>
      </trkpt>
      <trkpt lat="47.40248" lon="6.81169">
        <ele>536.6</ele>
        <time>2021-12-20T10:40:44Z</time>
      </trkpt>
      <trkpt lat="47.40255" lon="6.81179">
        <ele>537.3</ele>
        <time>2021-12-20T10:40:49Z</time>
      </trkpt>
      <trkpt lat="47.40261" lon="6.81191">
        <ele>537.9</ele>
        <time>2021-12-20T10:40:54Z</time>
      </trkpt>
      <trkpt lat="47.4027" lon="6.81203">
        <ele>538.7</ele>
        <time>2021-12-20T10:40:59Z</time>
      </trkpt>
      <trkpt lat="47.40282" lon="6.81205">
        <ele>539.5</ele>
        <time>2021-12-20T10:41:04Z</time>
      </trkpt>
      <trkpt lat="47.40304" lon="6.81198">
        <ele>541</ele>
        <time>2021-12-20T10:41:12Z</time>
      </trkpt>
      <trkpt lat="47.40317" lon="6.81198">
        <ele>541.9</ele>
        <time>2021-12-20T10:41:17Z</time>
      </trkpt>
      <trkpt lat="47.40325" lon="6.81202">
        <ele>542.5</ele>
        <time>2021-12-20T10:41:22Z</time>
      </trkpt>
      <trkpt lat="47.40337" lon="6.81211">
        <ele>543.2</ele>
        <time>2021-12-20T10:41:27Z</time>
      </trkpt>
      <trkpt lat="47.40348" lon="6.81218">
        <ele>543.9</ele>
        <time>2021-12-20T10:41:32Z</time>
      </trkpt>
      <trkpt lat="47.4036" lon="6.81226">
        <ele>544.6</ele>
        <time>2021-12-20T10:41:37Z</time>
      </trkpt>
      <trkpt lat="47.40371" lon="6.81236">
        <ele>545.3</ele>
        <time>2021-12-20T10:41:42Z</time>
      </trkpt>
      <trkpt lat="47.40381" lon="6.81245">
        <ele>546</ele>
        <time>2021-12-20T10:41:47Z</time>
      </trkpt>
      <trkpt lat="47.4039" lon="6.81253">
        <ele>546.6</ele>
        <time>2021-12-20T10:41:52Z</time>
      </trkpt>
      <trkpt lat="47.40401" lon="6.81255">
        <ele>547.2</ele>
        <time>2021-12-20T10:41:57Z</time>
      </trkpt>
      <trkpt lat="47.40411" lon="6.81246">
        <ele>547.9</ele>
        <time>2021-12-20T10:42:02Z</time>
      </trkpt>
      <trkpt lat="47.40419" lon="6.81236">
        <ele>548.5</ele>
        <time>2021-12-20T10:42:07Z</time>
      </trkpt>
      <trkpt lat="47.40425" lon="6.81226">
        <ele>549.1</ele>
        <time>2021-12-20T10:42:12Z</time>
      </trkpt>
      <trkpt lat="47.40432" lon="6.81212">
        <ele>549.8</ele>
        <time>2021-12-20T10:42:17Z</time>
      </trkpt>
      <trkpt lat="47.40438" lon="6.81198">
        <ele>550.6</ele>
        <time>2021-12-20T10:42:22Z</time>
      </trkpt>
      <trkpt lat="47.40442" lon="6.81187">
        <ele>551.1</ele>
        <time>2021-12-20T10:42:27Z</time>
      </trkpt>
      <trkpt lat="47.40456" lon="6.81147">
        <ele>553.2</ele>
        <time>2021-12-20T10:42:40Z</time>
      </trkpt>
      <trkpt lat="47.40463" lon="6.8111">
        <ele>555.1</ele>
        <time>2021-12-20T10:43:58Z</time>
      </trkpt>
      <trkpt lat="47.40464" lon="6.81092">
        <ele>556</ele>
        <time>2021-12-20T10:44:03Z</time>
      </trkpt>
      <trkpt lat="47.40464" lon="6.81077">
        <ele>556.7</ele>
        <time>2021-12-20T10:44:08Z</time>
      </trkpt>
      <trkpt lat="47.40468" lon="6.81056">
        <ele>557.6</ele>
        <time>2021-12-20T10:44:13Z</time>
      </trkpt>
      <trkpt lat="47.40474" lon="6.8104">
        <ele>558.4</ele>
        <time>2021-12-20T10:44:18Z</time>
      </trkpt>
      <trkpt lat="47.40486" lon="6.8103">
        <ele>559.3</ele>
        <time>2021-12-20T10:44:23Z</time>
      </trkpt>
      <trkpt lat="47.40498" lon="6.81031">
        <ele>560.6</ele>
        <time>2021-12-20T10:44:28Z</time>
      </trkpt>
      <trkpt lat="47.40508" lon="6.81043">
        <ele>562.1</ele>
        <time>2021-12-20T10:44:33Z</time>
      </trkpt>
      <trkpt lat="47.40519" lon="6.81051">
        <ele>563.8</ele>
        <time>2021-12-20T10:44:38Z</time>
      </trkpt>
      <trkpt lat="47.40529" lon="6.81044">
        <ele>565.2</ele>
        <time>2021-12-20T10:44:43Z</time>
      </trkpt>
      <trkpt lat="47.40534" lon="6.81021">
        <ele>565.1</ele>
        <time>2021-12-20T10:44:48Z</time>
      </trkpt>
      <trkpt lat="47.40536" lon="6.81002">
        <ele>564.9</ele>
        <time>2021-12-20T10:44:53Z</time>
      </trkpt>
      <trkpt lat="47.40538" lon="6.80988">
        <ele>564.7</ele>
        <time>2021-12-20T10:44:58Z</time>
      </trkpt>
      <trkpt lat="47.40539" lon="6.80974">
        <ele>564.5</ele>
        <time>2021-12-20T10:45:03Z</time>
      </trkpt>
      <trkpt lat="47.40541" lon="6.8096">
        <ele>564.2</ele>
        <time>2021-12-20T10:45:08Z</time>
      </trkpt>
      <trkpt lat="47.40543" lon="6.80937">
        <ele>563.8</ele>
        <time>2021-12-20T10:45:13Z</time>
      </trkpt>
      <trkpt lat="47.40545" lon="6.80908">
        <ele>563.4</ele>
        <time>2021-12-20T10:45:18Z</time>
      </trkpt>
      <trkpt lat="47.40544" lon="6.80871">
        <ele>562.7</ele>
        <time>2021-12-20T10:45:23Z</time>
      </trkpt>
      <trkpt lat="47.40537" lon="6.8083">
        <ele>562.3</ele>
        <time>2021-12-20T10:45:28Z</time>
      </trkpt>
      <trkpt lat="47.40528" lon="6.80793">
        <ele>562.2</ele>
        <time>2021-12-20T10:45:33Z</time>
      </trkpt>
      <trkpt lat="47.40513" lon="6.80764">
        <ele>562.3</ele>
        <time>2021-12-20T10:45:38Z</time>
      </trkpt>
      <trkpt lat="47.40497" lon="6.8073">
        <ele>562.2</ele>
        <time>2021-12-20T10:45:43Z</time>
      </trkpt>
      <trkpt lat="47.40482" lon="6.80695">
        <ele>562.1</ele>
        <time>2021-12-20T10:45:48Z</time>
      </trkpt>
      <trkpt lat="47.40471" lon="6.80657">
        <ele>561.9</ele>
        <time>2021-12-20T10:45:53Z</time>
      </trkpt>
      <trkpt lat="47.40459" lon="6.80622">
        <ele>561.9</ele>
        <time>2021-12-20T10:45:58Z</time>
      </trkpt>
      <trkpt lat="47.40448" lon="6.80588">
        <ele>561.9</ele>
        <time>2021-12-20T10:46:03Z</time>
      </trkpt>
      <trkpt lat="47.40436" lon="6.8055">
        <ele>561.9</ele>
        <time>2021-12-20T10:46:08Z</time>
      </trkpt>
      <trkpt lat="47.40426" lon="6.80504">
        <ele>562.1</ele>
        <time>2021-12-20T10:46:14Z</time>
      </trkpt>
      <trkpt lat="47.40418" lon="6.8047">
        <ele>562.6</ele>
        <time>2021-12-20T10:46:19Z</time>
      </trkpt>
      <trkpt lat="47.40412" lon="6.8044">
        <ele>563.3</ele>
        <time>2021-12-20T10:46:24Z</time>
      </trkpt>
      <trkpt lat="47.40405" lon="6.80406">
        <ele>564.4</ele>
        <time>2021-12-20T10:46:29Z</time>
      </trkpt>
      <trkpt lat="47.40395" lon="6.8037">
        <ele>565.6</ele>
        <time>2021-12-20T10:46:34Z</time>
      </trkpt>
      <trkpt lat="47.40395" lon="6.80337">
        <ele>566.6</ele>
        <time>2021-12-20T10:46:39Z</time>
      </trkpt>
      <trkpt lat="47.4039" lon="6.80301">
        <ele>567.6</ele>
        <time>2021-12-20T10:46:44Z</time>
      </trkpt>
      <trkpt lat="47.4038" lon="6.80276">
        <ele>568.7</ele>
        <time>2021-12-20T10:46:49Z</time>
      </trkpt>
      <trkpt lat="47.40371" lon="6.80249">
        <ele>569.8</ele>
        <time>2021-12-20T10:46:54Z</time>
      </trkpt>
      <trkpt lat="47.40362" lon="6.8022">
        <ele>570.8</ele>
        <time>2021-12-20T10:46:59Z</time>
      </trkpt>
      <trkpt lat="47.40352" lon="6.80192">
        <ele>571.7</ele>
        <time>2021-12-20T10:47:04Z</time>
      </trkpt>
      <trkpt lat="47.4034" lon="6.80169">
        <ele>572.6</ele>
        <time>2021-12-20T10:47:09Z</time>
      </trkpt>
      <trkpt lat="47.40329" lon="6.80141">
        <ele>573.2</ele>
        <time>2021-12-20T10:47:14Z</time>
      </trkpt>
      <trkpt lat="47.40319" lon="6.80109">
        <ele>573.8</ele>
        <time>2021-12-20T10:47:19Z</time>
      </trkpt>
      <trkpt lat="47.40308" lon="6.80077">
        <ele>574.4</ele>
        <time>2021-12-20T10:47:24Z</time>
      </trkpt>
      <trkpt lat="47.40297" lon="6.80046">
        <ele>574.8</ele>
        <time>2021-12-20T10:47:29Z</time>
      </trkpt>
      <trkpt lat="47.40285" lon="6.80013">
        <ele>575.1</ele>
        <time>2021-12-20T10:47:34Z</time>
      </trkpt>
      <trkpt lat="47.40274" lon="6.79979">
        <ele>575.4</ele>
        <time>2021-12-20T10:47:39Z</time>
      </trkpt>
      <trkpt lat="47.40265" lon="6.79948">
        <ele>576</ele>
        <time>2021-12-20T10:47:44Z</time>
      </trkpt>
      <trkpt lat="47.40263" lon="6.79912">
        <ele>577.1</ele>
        <time>2021-12-20T10:47:49Z</time>
      </trkpt>
      <trkpt lat="47.40266" lon="6.79884">
        <ele>578.1</ele>
        <time>2021-12-20T10:47:54Z</time>
      </trkpt>
      <trkpt lat="47.40267" lon="6.79859">
        <ele>578.9</ele>
        <time>2021-12-20T10:47:59Z</time>
      </trkpt>
      <trkpt lat="47.4027" lon="6.79832">
        <ele>579.4</ele>
        <time>2021-12-20T10:48:04Z</time>
      </trkpt>
      <trkpt lat="47.40284" lon="6.79806">
        <ele>579.3</ele>
        <time>2021-12-20T10:48:09Z</time>
      </trkpt>
      <trkpt lat="47.40308" lon="6.79789">
        <ele>578</ele>
        <time>2021-12-20T10:48:14Z</time>
      </trkpt>
      <trkpt lat="47.40341" lon="6.79775">
        <ele>575.7</ele>
        <time>2021-12-20T10:48:19Z</time>
      </trkpt>
      <trkpt lat="47.40381" lon="6.79747">
        <ele>572.4</ele>
        <time>2021-12-20T10:48:24Z</time>
      </trkpt>
      <trkpt lat="47.40412" lon="6.79694">
        <ele>571.4</ele>
        <time>2021-12-20T10:48:29Z</time>
      </trkpt>
      <trkpt lat="47.40441" lon="6.79658">
        <ele>571.8</ele>
        <time>2021-12-20T10:48:34Z</time>
      </trkpt>
      <trkpt lat="47.40469" lon="6.79641">
        <ele>572.4</ele>
        <time>2021-12-20T10:48:39Z</time>
      </trkpt>
      <trkpt lat="47.40492" lon="6.79619">
        <ele>572.8</ele>
        <time>2021-12-20T10:48:44Z</time>
      </trkpt>
      <trkpt lat="47.40519" lon="6.79602">
        <ele>572.9</ele>
        <time>2021-12-20T10:48:49Z</time>
      </trkpt>
      <trkpt lat="47.40546" lon="6.79596">
        <ele>572.9</ele>
        <time>2021-12-20T10:48:54Z</time>
      </trkpt>
      <trkpt lat="47.40568" lon="6.79577">
        <ele>571.9</ele>
        <time>2021-12-20T10:48:59Z</time>
      </trkpt>
      <trkpt lat="47.40602" lon="6.79524">
        <ele>568.6</ele>
        <time>2021-12-20T10:49:04Z</time>
      </trkpt>
      <trkpt lat="47.40655" lon="6.79466">
        <ele>568.4</ele>
        <time>2021-12-20T10:49:11Z</time>
      </trkpt>
      <trkpt lat="47.40693" lon="6.7944">
        <ele>570</ele>
        <time>2021-12-20T10:49:18Z</time>
      </trkpt>
      <trkpt lat="47.40721" lon="6.79409">
        <ele>569.8</ele>
        <time>2021-12-20T10:49:23Z</time>
      </trkpt>
      <trkpt lat="47.40738" lon="6.79349">
        <ele>567.3</ele>
        <time>2021-12-20T10:49:29Z</time>
      </trkpt>
      <trkpt lat="47.40755" lon="6.79271">
        <ele>563</ele>
        <time>2021-12-20T10:49:36Z</time>
      </trkpt>
      <trkpt lat="47.40797" lon="6.7924">
        <ele>556.2</ele>
        <time>2021-12-20T10:49:42Z</time>
      </trkpt>
      <trkpt lat="47.40855" lon="6.79249">
        <ele>547</ele>
        <time>2021-12-20T10:49:47Z</time>
      </trkpt>
      <trkpt lat="47.40912" lon="6.79305">
        <ele>543</ele>
        <time>2021-12-20T10:49:53Z</time>
      </trkpt>
      <trkpt lat="47.40941" lon="6.79372">
        <ele>541.3</ele>
        <time>2021-12-20T10:49:58Z</time>
      </trkpt>
      <trkpt lat="47.40953" lon="6.79423">
        <ele>541.6</ele>
        <time>2021-12-20T10:50:03Z</time>
      </trkpt>
      <trkpt lat="47.40974" lon="6.79468">
        <ele>541.1</ele>
        <time>2021-12-20T10:50:09Z</time>
      </trkpt>
      <trkpt lat="47.40993" lon="6.79518">
        <ele>538.5</ele>
        <time>2021-12-20T10:50:14Z</time>
      </trkpt>
      <trkpt lat="47.41021" lon="6.79613">
        <ele>532</ele>
        <time>2021-12-20T10:50:20Z</time>
      </trkpt>
      <trkpt lat="47.41054" lon="6.79707">
        <ele>526.8</ele>
        <time>2021-12-20T10:50:25Z</time>
      </trkpt>
      <trkpt lat="47.4108" lon="6.79784">
        <ele>524</ele>
        <time>2021-12-20T10:50:30Z</time>
      </trkpt>
      <trkpt lat="47.41112" lon="6.7984">
        <ele>520.7</ele>
        <time>2021-12-20T10:50:35Z</time>
      </trkpt>
      <trkpt lat="47.41152" lon="6.79836">
        <ele>515.9</ele>
        <time>2021-12-20T10:50:40Z</time>
      </trkpt>
      <trkpt lat="47.41193" lon="6.79784">
        <ele>510</ele>
        <time>2021-12-20T10:50:45Z</time>
      </trkpt>
      <trkpt lat="47.41237" lon="6.79728">
        <ele>508.9</ele>
        <time>2021-12-20T10:50:50Z</time>
      </trkpt>
      <trkpt lat="47.41281" lon="6.79726">
        <ele>509.8</ele>
        <time>2021-12-20T10:50:55Z</time>
      </trkpt>
      <trkpt lat="47.41307" lon="6.79746">
        <ele>511.3</ele>
        <time>2021-12-20T10:51:00Z</time>
      </trkpt>
      <trkpt lat="47.41328" lon="6.79767">
        <ele>512.1</ele>
        <time>2021-12-20T10:51:05Z</time>
      </trkpt>
      <trkpt lat="47.4135" lon="6.79794">
        <ele>512.7</ele>
        <time>2021-12-20T10:51:10Z</time>
      </trkpt>
      <trkpt lat="47.41363" lon="6.79815">
        <ele>513.4</ele>
        <time>2021-12-20T10:51:15Z</time>
      </trkpt>
      <trkpt lat="47.41382" lon="6.79844">
        <ele>514.6</ele>
        <time>2021-12-20T10:51:20Z</time>
      </trkpt>
      <trkpt lat="47.41399" lon="6.79878">
        <ele>516.1</ele>
        <time>2021-12-20T10:51:25Z</time>
      </trkpt>
      <trkpt lat="47.41411" lon="6.79899">
        <ele>517.4</ele>
        <time>2021-12-20T10:51:30Z</time>
      </trkpt>
      <trkpt lat="47.41422" lon="6.79919">
        <ele>518.5</ele>
        <time>2021-12-20T10:51:35Z</time>
      </trkpt>
      <trkpt lat="47.41434" lon="6.79935">
        <ele>519.4</ele>
        <time>2021-12-20T10:51:40Z</time>
      </trkpt>
      <trkpt lat="47.41446" lon="6.7995">
        <ele>520</ele>
        <time>2021-12-20T10:51:45Z</time>
      </trkpt>
      <trkpt lat="47.41459" lon="6.79959">
        <ele>520.6</ele>
        <time>2021-12-20T10:51:50Z</time>
      </trkpt>
      <trkpt lat="47.41477" lon="6.79971">
        <ele>521.2</ele>
        <time>2021-12-20T10:51:55Z</time>
      </trkpt>
      <trkpt lat="47.41497" lon="6.79986">
        <ele>521.2</ele>
        <time>2021-12-20T10:52:00Z</time>
      </trkpt>
      <trkpt lat="47.41525" lon="6.80003">
        <ele>520.7</ele>
        <time>2021-12-20T10:52:05Z</time>
      </trkpt>
      <trkpt lat="47.41553" lon="6.80021">
        <ele>519.6</ele>
        <time>2021-12-20T10:52:10Z</time>
      </trkpt>
      <trkpt lat="47.41585" lon="6.80044">
        <ele>518.4</ele>
        <time>2021-12-20T10:52:15Z</time>
      </trkpt>
      <trkpt lat="47.41618" lon="6.80069">
        <ele>517.3</ele>
        <time>2021-12-20T10:52:20Z</time>
      </trkpt>
      <trkpt lat="47.41654" lon="6.80097">
        <ele>515.9</ele>
        <time>2021-12-20T10:52:25Z</time>
      </trkpt>
      <trkpt lat="47.41689" lon="6.80121">
        <ele>514.5</ele>
        <time>2021-12-20T10:52:30Z</time>
      </trkpt>
      <trkpt lat="47.41728" lon="6.8015">
        <ele>512.9</ele>
        <time>2021-12-20T10:52:35Z</time>
      </trkpt>
      <trkpt lat="47.41766" lon="6.80175">
        <ele>511.7</ele>
        <time>2021-12-20T10:52:40Z</time>
      </trkpt>
      <trkpt lat="47.41802" lon="6.80194">
        <ele>511.2</ele>
        <time>2021-12-20T10:52:45Z</time>
      </trkpt>
      <trkpt lat="47.41831" lon="6.80209">
        <ele>511.7</ele>
        <time>2021-12-20T10:52:50Z</time>
      </trkpt>
      <trkpt lat="47.41859" lon="6.80217">
        <ele>513</ele>
        <time>2021-12-20T10:52:55Z</time>
      </trkpt>
      <trkpt lat="47.4188" lon="6.80222">
        <ele>514.5</ele>
        <time>2021-12-20T10:53:00Z</time>
      </trkpt>
      <trkpt lat="47.41896" lon="6.80225">
        <ele>515.6</ele>
        <time>2021-12-20T10:53:05Z</time>
      </trkpt>
      <trkpt lat="47.41924" lon="6.80221">
        <ele>517.7</ele>
        <time>2021-12-20T10:53:14Z</time>
      </trkpt>
      <trkpt lat="47.41937" lon="6.80221">
        <ele>518.8</ele>
        <time>2021-12-20T10:53:19Z</time>
      </trkpt>
      <trkpt lat="47.41953" lon="6.80218">
        <ele>520.2</ele>
        <time>2021-12-20T10:53:24Z</time>
      </trkpt>
      <trkpt lat="47.41969" lon="6.80218">
        <ele>521.4</ele>
        <time>2021-12-20T10:53:29Z</time>
      </trkpt>
      <trkpt lat="47.41986" lon="6.80217">
        <ele>522.6</ele>
        <time>2021-12-20T10:53:34Z</time>
      </trkpt>
      <trkpt lat="47.42006" lon="6.80215">
        <ele>523.7</ele>
        <time>2021-12-20T10:53:39Z</time>
      </trkpt>
      <trkpt lat="47.42026" lon="6.80212">
        <ele>524.5</ele>
        <time>2021-12-20T10:53:44Z</time>
      </trkpt>
      <trkpt lat="47.4205" lon="6.80203">
        <ele>525.4</ele>
        <time>2021-12-20T10:53:49Z</time>
      </trkpt>
      <trkpt lat="47.42068" lon="6.80193">
        <ele>526.3</ele>
        <time>2021-12-20T10:53:54Z</time>
      </trkpt>
      <trkpt lat="47.42085" lon="6.80182">
        <ele>527.2</ele>
        <time>2021-12-20T10:53:59Z</time>
      </trkpt>
      <trkpt lat="47.421" lon="6.80172">
        <ele>528</ele>
        <time>2021-12-20T10:54:04Z</time>
      </trkpt>
      <trkpt lat="47.42117" lon="6.80164">
        <ele>528.8</ele>
        <time>2021-12-20T10:54:09Z</time>
      </trkpt>
      <trkpt lat="47.42134" lon="6.80152">
        <ele>529.4</ele>
        <time>2021-12-20T10:54:14Z</time>
      </trkpt>
      <trkpt lat="47.4215" lon="6.80138">
        <ele>529.8</ele>
        <time>2021-12-20T10:54:19Z</time>
      </trkpt>
      <trkpt lat="47.42169" lon="6.80117">
        <ele>529.7</ele>
        <time>2021-12-20T10:54:24Z</time>
      </trkpt>
      <trkpt lat="47.42197" lon="6.80091">
        <ele>528.6</ele>
        <time>2021-12-20T10:54:29Z</time>
      </trkpt>
      <trkpt lat="47.42228" lon="6.80061">
        <ele>526.9</ele>
        <time>2021-12-20T10:54:34Z</time>
      </trkpt>
      <trkpt lat="47.42262" lon="6.80023">
        <ele>524.7</ele>
        <time>2021-12-20T10:54:39Z</time>
      </trkpt>
      <trkpt lat="47.42299" lon="6.79985">
        <ele>522.5</ele>
        <time>2021-12-20T10:54:44Z</time>
      </trkpt>
      <trkpt lat="47.42333" lon="6.79941">
        <ele>520.2</ele>
        <time>2021-12-20T10:54:49Z</time>
      </trkpt>
      <trkpt lat="47.42366" lon="6.79891">
        <ele>517.4</ele>
        <time>2021-12-20T10:54:54Z</time>
      </trkpt>
      <trkpt lat="47.42408" lon="6.7985">
        <ele>515.3</ele>
        <time>2021-12-20T10:54:59Z</time>
      </trkpt>
      <trkpt lat="47.42458" lon="6.79841">
        <ele>513.1</ele>
        <time>2021-12-20T10:55:04Z</time>
      </trkpt>
      <trkpt lat="47.42508" lon="6.79845">
        <ele>509.8</ele>
        <time>2021-12-20T10:55:09Z</time>
      </trkpt>
      <trkpt lat="47.42561" lon="6.79833">
        <ele>506.2</ele>
        <time>2021-12-20T10:55:14Z</time>
      </trkpt>
      <trkpt lat="47.42614" lon="6.7983">
        <ele>503</ele>
        <time>2021-12-20T10:55:19Z</time>
      </trkpt>
      <trkpt lat="47.42669" lon="6.79824">
        <ele>497.7</ele>
        <time>2021-12-20T10:55:24Z</time>
      </trkpt>
      <trkpt lat="47.42731" lon="6.79809">
        <ele>490.8</ele>
        <time>2021-12-20T10:55:29Z</time>
      </trkpt>
      <trkpt lat="47.42793" lon="6.7979">
        <ele>486.1</ele>
        <time>2021-12-20T10:55:34Z</time>
      </trkpt>
      <trkpt lat="47.42873" lon="6.79769">
        <ele>485.4</ele>
        <time>2021-12-20T10:55:41Z</time>
      </trkpt>
      <trkpt lat="47.42915" lon="6.79773">
        <ele>486.5</ele>
        <time>2021-12-20T10:55:46Z</time>
      </trkpt>
      <trkpt lat="47.42941" lon="6.79777">
        <ele>487.2</ele>
        <time>2021-12-20T10:55:51Z</time>
      </trkpt>
      <trkpt lat="47.42965" lon="6.79781">
        <ele>487.6</ele>
        <time>2021-12-20T10:55:56Z</time>
      </trkpt>
      <trkpt lat="47.42983" lon="6.79784">
        <ele>487.7</ele>
        <time>2021-12-20T10:56:01Z</time>
      </trkpt>
      <trkpt lat="47.42993" lon="6.79778">
        <ele>488.4</ele>
        <time>2021-12-20T10:56:06Z</time>
      </trkpt>
      <trkpt lat="47.42993" lon="6.79769">
        <ele>489.3</ele>
        <time>2021-12-20T10:56:11Z</time>
      </trkpt>
      <trkpt lat="47.42996" lon="6.79754">
        <ele>490.1</ele>
        <time>2021-12-20T10:56:16Z</time>
      </trkpt>
      <trkpt lat="47.43008" lon="6.79733">
        <ele>490.8</ele>
        <time>2021-12-20T10:56:21Z</time>
      </trkpt>
      <trkpt lat="47.43018" lon="6.79712">
        <ele>491.6</ele>
        <time>2021-12-20T10:56:26Z</time>
      </trkpt>
      <trkpt lat="47.43025" lon="6.79693">
        <ele>492.1</ele>
        <time>2021-12-20T10:56:31Z</time>
      </trkpt>
      <trkpt lat="47.4303" lon="6.79677">
        <ele>492.4</ele>
        <time>2021-12-20T10:56:36Z</time>
      </trkpt>
      <trkpt lat="47.43038" lon="6.79658">
        <ele>492.2</ele>
        <time>2021-12-20T10:56:41Z</time>
      </trkpt>
      <trkpt lat="47.43051" lon="6.79638">
        <ele>491.1</ele>
        <time>2021-12-20T10:56:46Z</time>
      </trkpt>
      <trkpt lat="47.43063" lon="6.79629">
        <ele>490.8</ele>
        <time>2021-12-20T10:56:51Z</time>
      </trkpt>
      <trkpt lat="47.43071" lon="6.79621">
        <ele>491.2</ele>
        <time>2021-12-20T10:56:56Z</time>
      </trkpt>
      <trkpt lat="47.43085" lon="6.79588">
        <ele>491.9</ele>
        <time>2021-12-20T10:57:09Z</time>
      </trkpt>
      <trkpt lat="47.43118" lon="6.79595">
        <ele>491</ele>
        <time>2021-12-20T11:01:40Z</time>
      </trkpt>
      <trkpt lat="47.43128" lon="6.79606">
        <ele>490.1</ele>
        <time>2021-12-20T11:01:45Z</time>
      </trkpt>
      <trkpt lat="47.43142" lon="6.79609">
        <ele>489</ele>
        <time>2021-12-20T11:01:50Z</time>
      </trkpt>
      <trkpt lat="47.43154" lon="6.79598">
        <ele>487.8</ele>
        <time>2021-12-20T11:01:55Z</time>
      </trkpt>
      <trkpt lat="47.43161" lon="6.79582">
        <ele>486.6</ele>
        <time>2021-12-20T11:02:00Z</time>
      </trkpt>
      <trkpt lat="47.43171" lon="6.79572">
        <ele>485.5</ele>
        <time>2021-12-20T11:02:05Z</time>
      </trkpt>
      <trkpt lat="47.43191" lon="6.79569">
        <ele>483.8</ele>
        <time>2021-12-20T11:02:10Z</time>
      </trkpt>
      <trkpt lat="47.43209" lon="6.79562">
        <ele>482.8</ele>
        <time>2021-12-20T11:02:15Z</time>
      </trkpt>
      <trkpt lat="47.43227" lon="6.79567">
        <ele>482</ele>
        <time>2021-12-20T11:02:20Z</time>
      </trkpt>
      <trkpt lat="47.43243" lon="6.79562">
        <ele>481.5</ele>
        <time>2021-12-20T11:02:25Z</time>
      </trkpt>
      <trkpt lat="47.43258" lon="6.79561">
        <ele>481.2</ele>
        <time>2021-12-20T11:02:30Z</time>
      </trkpt>
      <trkpt lat="47.43278" lon="6.79559">
        <ele>481.2</ele>
        <time>2021-12-20T11:02:35Z</time>
      </trkpt>
      <trkpt lat="47.433" lon="6.79549">
        <ele>481.2</ele>
        <time>2021-12-20T11:02:40Z</time>
      </trkpt>
      <trkpt lat="47.43317" lon="6.79545">
        <ele>480.5</ele>
        <time>2021-12-20T11:02:45Z</time>
      </trkpt>
      <trkpt lat="47.43336" lon="6.7954">
        <ele>479.5</ele>
        <time>2021-12-20T11:02:50Z</time>
      </trkpt>
      <trkpt lat="47.43356" lon="6.79536">
        <ele>478.1</ele>
        <time>2021-12-20T11:02:55Z</time>
      </trkpt>
      <trkpt lat="47.43381" lon="6.79526">
        <ele>475.8</ele>
        <time>2021-12-20T11:03:00Z</time>
      </trkpt>
      <trkpt lat="47.43412" lon="6.79527">
        <ele>473.5</ele>
        <time>2021-12-20T11:03:05Z</time>
      </trkpt>
      <trkpt lat="47.43434" lon="6.7952">
        <ele>472.6</ele>
        <time>2021-12-20T11:03:10Z</time>
      </trkpt>
      <trkpt lat="47.43451" lon="6.79508">
        <ele>471.9</ele>
        <time>2021-12-20T11:03:15Z</time>
      </trkpt>
      <trkpt lat="47.43465" lon="6.79497">
        <ele>472</ele>
        <time>2021-12-20T11:03:20Z</time>
      </trkpt>
      <trkpt lat="47.43474" lon="6.79488">
        <ele>472.5</ele>
        <time>2021-12-20T11:03:25Z</time>
      </trkpt>
      <trkpt lat="47.43486" lon="6.79482">
        <ele>473.1</ele>
        <time>2021-12-20T11:03:30Z</time>
      </trkpt>
      <trkpt lat="47.435" lon="6.79475">
        <ele>473.6</ele>
        <time>2021-12-20T11:03:35Z</time>
      </trkpt>
      <trkpt lat="47.43515" lon="6.79466">
        <ele>473.9</ele>
        <time>2021-12-20T11:03:40Z</time>
      </trkpt>
      <trkpt lat="47.43539" lon="6.79452">
        <ele>474.1</ele>
        <time>2021-12-20T11:03:47Z</time>
      </trkpt>
      <trkpt lat="47.43558" lon="6.79443">
        <ele>474</ele>
        <time>2021-12-20T11:03:52Z</time>
      </trkpt>
      <trkpt lat="47.43575" lon="6.79439">
        <ele>473.9</ele>
        <time>2021-12-20T11:03:57Z</time>
      </trkpt>
      <trkpt lat="47.43601" lon="6.7944">
        <ele>473.6</ele>
        <time>2021-12-20T11:04:02Z</time>
      </trkpt>
      <trkpt lat="47.4362" lon="6.79441">
        <ele>473.2</ele>
        <time>2021-12-20T11:04:07Z</time>
      </trkpt>
      <trkpt lat="47.43644" lon="6.79441">
        <ele>472.7</ele>
        <time>2021-12-20T11:04:12Z</time>
      </trkpt>
      <trkpt lat="47.43663" lon="6.79436">
        <ele>472.1</ele>
        <time>2021-12-20T11:04:17Z</time>
      </trkpt>
      <trkpt lat="47.43681" lon="6.79423">
        <ele>471.4</ele>
        <time>2021-12-20T11:04:22Z</time>
      </trkpt>
      <trkpt lat="47.43702" lon="6.79419">
        <ele>470.7</ele>
        <time>2021-12-20T11:04:27Z</time>
      </trkpt>
      <trkpt lat="47.43723" lon="6.79414">
        <ele>469.9</ele>
        <time>2021-12-20T11:04:32Z</time>
      </trkpt>
      <trkpt lat="47.43741" lon="6.7941">
        <ele>469.2</ele>
        <time>2021-12-20T11:04:37Z</time>
      </trkpt>
      <trkpt lat="47.43759" lon="6.79411">
        <ele>468.4</ele>
        <time>2021-12-20T11:04:42Z</time>
      </trkpt>
      <trkpt lat="47.4377" lon="6.79424">
        <ele>467.7</ele>
        <time>2021-12-20T11:04:47Z</time>
      </trkpt>
      <trkpt lat="47.43776" lon="6.79443">
        <ele>467</ele>
        <time>2021-12-20T11:04:52Z</time>
      </trkpt>
      <trkpt lat="47.43781" lon="6.79469">
        <ele>466.4</ele>
        <time>2021-12-20T11:04:57Z</time>
      </trkpt>
      <trkpt lat="47.4379" lon="6.79495">
        <ele>465.9</ele>
        <time>2021-12-20T11:05:02Z</time>
      </trkpt>
      <trkpt lat="47.43797" lon="6.7952">
        <ele>465.8</ele>
        <time>2021-12-20T11:05:07Z</time>
      </trkpt>
      <trkpt lat="47.43806" lon="6.79538">
        <ele>465.9</ele>
        <time>2021-12-20T11:05:12Z</time>
      </trkpt>
      <trkpt lat="47.43829" lon="6.79545">
        <ele>463.9</ele>
        <time>2021-12-20T11:05:17Z</time>
      </trkpt>
      <trkpt lat="47.43856" lon="6.79543">
        <ele>462.3</ele>
        <time>2021-12-20T11:05:22Z</time>
      </trkpt>
      <trkpt lat="47.43881" lon="6.79549">
        <ele>460.9</ele>
        <time>2021-12-20T11:05:27Z</time>
      </trkpt>
      <trkpt lat="47.43905" lon="6.7957">
        <ele>459.7</ele>
        <time>2021-12-20T11:05:32Z</time>
      </trkpt>
      <trkpt lat="47.43929" lon="6.79588">
        <ele>458.5</ele>
        <time>2021-12-20T11:05:37Z</time>
      </trkpt>
      <trkpt lat="47.4395" lon="6.79592">
        <ele>457.3</ele>
        <time>2021-12-20T11:05:42Z</time>
      </trkpt>
      <trkpt lat="47.43969" lon="6.79579">
        <ele>455.9</ele>
        <time>2021-12-20T11:05:47Z</time>
      </trkpt>
      <trkpt lat="47.43984" lon="6.79572">
        <ele>454.9</ele>
        <time>2021-12-20T11:05:52Z</time>
      </trkpt>
      <trkpt lat="47.44004" lon="6.79574">
        <ele>453.5</ele>
        <time>2021-12-20T11:05:57Z</time>
      </trkpt>
      <trkpt lat="47.44028" lon="6.79576">
        <ele>451.8</ele>
        <time>2021-12-20T11:06:02Z</time>
      </trkpt>
      <trkpt lat="47.44045" lon="6.79585">
        <ele>450.4</ele>
        <time>2021-12-20T11:06:07Z</time>
      </trkpt>
      <trkpt lat="47.44064" lon="6.7959">
        <ele>449.3</ele>
        <time>2021-12-20T11:06:12Z</time>
      </trkpt>
      <trkpt lat="47.44085" lon="6.79596">
        <ele>448.2</ele>
        <time>2021-12-20T11:06:17Z</time>
      </trkpt>
      <trkpt lat="47.44105" lon="6.79606">
        <ele>447.2</ele>
        <time>2021-12-20T11:06:22Z</time>
      </trkpt>
      <trkpt lat="47.44121" lon="6.79614">
        <ele>446.1</ele>
        <time>2021-12-20T11:06:27Z</time>
      </trkpt>
      <trkpt lat="47.44138" lon="6.79626">
        <ele>444.7</ele>
        <time>2021-12-20T11:06:32Z</time>
      </trkpt>
      <trkpt lat="47.44157" lon="6.79634">
        <ele>443.2</ele>
        <time>2021-12-20T11:06:37Z</time>
      </trkpt>
      <trkpt lat="47.4417" lon="6.7965">
        <ele>441.7</ele>
        <time>2021-12-20T11:06:42Z</time>
      </trkpt>
      <trkpt lat="47.44179" lon="6.79677">
        <ele>439.8</ele>
        <time>2021-12-20T11:06:47Z</time>
      </trkpt>
      <trkpt lat="47.44181" lon="6.79707">
        <ele>438.8</ele>
        <time>2021-12-20T11:06:52Z</time>
      </trkpt>
      <trkpt lat="47.44183" lon="6.7974">
        <ele>438.2</ele>
        <time>2021-12-20T11:06:57Z</time>
      </trkpt>
      <trkpt lat="47.44185" lon="6.79768">
        <ele>437.4</ele>
        <time>2021-12-20T11:07:02Z</time>
      </trkpt>
      <trkpt lat="47.44186" lon="6.79793">
        <ele>436</ele>
        <time>2021-12-20T11:07:07Z</time>
      </trkpt>
      <trkpt lat="47.4419" lon="6.79817">
        <ele>434.2</ele>
        <time>2021-12-20T11:07:12Z</time>
      </trkpt>
      <trkpt lat="47.44194" lon="6.79844">
        <ele>432.2</ele>
        <time>2021-12-20T11:07:17Z</time>
      </trkpt>
      <trkpt lat="47.44195" lon="6.79872">
        <ele>430.2</ele>
        <time>2021-12-20T11:07:22Z</time>
      </trkpt>
      <trkpt lat="47.44195" lon="6.79894">
        <ele>425.3</ele>
        <time>2021-12-20T11:07:27Z</time>
      </trkpt>
      <trkpt lat="47.44204" lon="6.79895">
        <ele>425.3</ele>
        <time>2021-12-20T11:07:32Z</time>
      </trkpt>
      <trkpt lat="47.44219" lon="6.79898">
        <ele>420.3</ele>
        <time>2021-12-20T11:07:39Z</time>
      </trkpt>
      <trkpt lat="47.4423" lon="6.79895">
        <ele>418.5</ele>
        <time>2021-12-20T11:07:44Z</time>
      </trkpt>
      <trkpt lat="47.44243" lon="6.79891">
        <ele>416.4</ele>
        <time>2021-12-20T11:07:49Z</time>
      </trkpt>
      <trkpt lat="47.4426" lon="6.79887">
        <ele>413.1</ele>
        <time>2021-12-20T11:07:54Z</time>
      </trkpt>
      <trkpt lat="47.44273" lon="6.79884">
        <ele>410.4</ele>
        <time>2021-12-20T11:07:59Z</time>
      </trkpt>
      <trkpt lat="47.44287" lon="6.79879">
        <ele>407.3</ele>
        <time>2021-12-20T11:08:04Z</time>
      </trkpt>
      <trkpt lat="47.44301" lon="6.79869">
        <ele>404.3</ele>
        <time>2021-12-20T11:08:09Z</time>
      </trkpt>
      <trkpt lat="47.44313" lon="6.79855">
        <ele>401.7</ele>
        <time>2021-12-20T11:08:14Z</time>
      </trkpt>
      <trkpt lat="47.44326" lon="6.7984">
        <ele>398.5</ele>
        <time>2021-12-20T11:08:19Z</time>
      </trkpt>
      <trkpt lat="47.44342" lon="6.79828">
        <ele>395.5</ele>
        <time>2021-12-20T11:08:24Z</time>
      </trkpt>
      <trkpt lat="47.44355" lon="6.79815">
        <ele>393.1</ele>
        <time>2021-12-20T11:08:29Z</time>
      </trkpt>
      <trkpt lat="47.44371" lon="6.79798">
        <ele>389.9</ele>
        <time>2021-12-20T11:08:34Z</time>
      </trkpt>
      <trkpt lat="47.44383" lon="6.7979">
        <ele>385.4</ele>
        <time>2021-12-20T11:08:39Z</time>
      </trkpt>
      <trkpt lat="47.44381" lon="6.79811">
        <ele>383.6</ele>
        <time>2021-12-20T11:08:44Z</time>
      </trkpt>
      <trkpt lat="47.44381" lon="6.79831">
        <ele>381.8</ele>
        <time>2021-12-20T11:08:49Z</time>
      </trkpt>
      <trkpt lat="47.44386" lon="6.7985">
        <ele>379.4</ele>
        <time>2021-12-20T11:08:54Z</time>
      </trkpt>
      <trkpt lat="47.44398" lon="6.79863">
        <ele>378.3</ele>
        <time>2021-12-20T11:08:59Z</time>
      </trkpt>
      <trkpt lat="47.44426" lon="6.79879">
        <ele>376</ele>
        <time>2021-12-20T11:09:04Z</time>
      </trkpt>
      <trkpt lat="47.44459" lon="6.79894">
        <ele>373.3</ele>
        <time>2021-12-20T11:09:09Z</time>
      </trkpt>
      <trkpt lat="47.44492" lon="6.79909">
        <ele>370.5</ele>
        <time>2021-12-20T11:09:14Z</time>
      </trkpt>
      <trkpt lat="47.44527" lon="6.79914">
        <ele>368.3</ele>
        <time>2021-12-20T11:09:19Z</time>
      </trkpt>
      <trkpt lat="47.44558" lon="6.79923">
        <ele>367</ele>
        <time>2021-12-20T11:09:24Z</time>
      </trkpt>
      <trkpt lat="47.44585" lon="6.79934">
        <ele>366.3</ele>
        <time>2021-12-20T11:09:29Z</time>
      </trkpt>
      <trkpt lat="47.44612" lon="6.79945">
        <ele>365.7</ele>
        <time>2021-12-20T11:09:34Z</time>
      </trkpt>
      <trkpt lat="47.44637" lon="6.79958">
        <ele>365</ele>
        <time>2021-12-20T11:09:39Z</time>
      </trkpt>
      <trkpt lat="47.44666" lon="6.79961">
        <ele>363.9</ele>
        <time>2021-12-20T11:09:44Z</time>
      </trkpt>
      <trkpt lat="47.44696" lon="6.79965">
        <ele>362.6</ele>
        <time>2021-12-20T11:09:49Z</time>
      </trkpt>
      <trkpt lat="47.44728" lon="6.79971">
        <ele>361.3</ele>
        <time>2021-12-20T11:09:54Z</time>
      </trkpt>
      <trkpt lat="47.4476" lon="6.79976">
        <ele>359.9</ele>
        <time>2021-12-20T11:09:59Z</time>
      </trkpt>
      <trkpt lat="47.44793" lon="6.79983">
        <ele>358.5</ele>
        <time>2021-12-20T11:10:04Z</time>
      </trkpt>
      <trkpt lat="47.44828" lon="6.79991">
        <ele>356.6</ele>
        <time>2021-12-20T11:10:09Z</time>
      </trkpt>
      <trkpt lat="47.44857" lon="6.79998">
        <ele>354.6</ele>
        <time>2021-12-20T11:10:14Z</time>
      </trkpt>
      <trkpt lat="47.44868" lon="6.79999">
        <ele>353.3</ele>
        <time>2021-12-20T11:10:19Z</time>
      </trkpt>
      <trkpt lat="47.44889" lon="6.79853">
        <ele>352.2</ele>
        <time>2021-12-20T11:10:33Z</time>
      </trkpt>
      <trkpt lat="47.44898" lon="6.79794">
        <ele>354.7</ele>
        <time>2021-12-20T11:11:10Z</time>
      </trkpt>
      <trkpt lat="47.44901" lon="6.79769">
        <ele>355.2</ele>
        <time>2021-12-20T11:11:15Z</time>
      </trkpt>
      <trkpt lat="47.44902" lon="6.79757">
        <ele>355.3</ele>
        <time>2021-12-20T11:11:21Z</time>
      </trkpt>
      <trkpt lat="47.44911" lon="6.79737">
        <ele>355</ele>
        <time>2021-12-20T11:11:34Z</time>
      </trkpt>
      <trkpt lat="47.44961" lon="6.79702">
        <ele>351.8</ele>
        <time>2021-12-20T11:11:56Z</time>
      </trkpt>
      <trkpt lat="47.4498" lon="6.79688">
        <ele>349.5</ele>
        <time>2021-12-20T11:12:01Z</time>
      </trkpt>
      <trkpt lat="47.45002" lon="6.79697">
        <ele>346.4</ele>
        <time>2021-12-20T11:12:06Z</time>
      </trkpt>
      <trkpt lat="47.4502" lon="6.79709">
        <ele>342.1</ele>
        <time>2021-12-20T11:12:11Z</time>
      </trkpt>
      <trkpt lat="47.45034" lon="6.79713">
        <ele>339.2</ele>
        <time>2021-12-20T11:12:16Z</time>
      </trkpt>
      <trkpt lat="47.45039" lon="6.79685">
        <ele>336.3</ele>
        <time>2021-12-20T11:12:21Z</time>
      </trkpt>
      <trkpt lat="47.4505" lon="6.7964">
        <ele>335.4</ele>
        <time>2021-12-20T11:12:26Z</time>
      </trkpt>
      <trkpt lat="47.45054" lon="6.79623">
        <ele>335.2</ele>
        <time>2021-12-20T11:12:31Z</time>
      </trkpt>
      <trkpt lat="47.45069" lon="6.79603">
        <ele>334.8</ele>
        <time>2021-12-20T11:12:36Z</time>
      </trkpt>
      <trkpt lat="47.45087" lon="6.7958">
        <ele>334.8</ele>
        <time>2021-12-20T11:12:41Z</time>
      </trkpt>
      <trkpt lat="47.45104" lon="6.7956">
        <ele>335</ele>
        <time>2021-12-20T11:12:46Z</time>
      </trkpt>
      <trkpt lat="47.4512" lon="6.79538">
        <ele>335.3</ele>
        <time>2021-12-20T11:12:51Z</time>
      </trkpt>
      <trkpt lat="47.4513" lon="6.79521">
        <ele>335.8</ele>
        <time>2021-12-20T11:12:56Z</time>
      </trkpt>
      <trkpt lat="47.45135" lon="6.79493">
        <ele>335.7</ele>
        <time>2021-12-20T11:13:01Z</time>
      </trkpt>
      <trkpt lat="47.45139" lon="6.79467">
        <ele>335.7</ele>
        <time>2021-12-20T11:13:06Z</time>
      </trkpt>
      <trkpt lat="47.45149" lon="6.79437">
        <ele>335.6</ele>
        <time>2021-12-20T11:13:11Z</time>
      </trkpt>
      <trkpt lat="47.45153" lon="6.79406">
        <ele>335.6</ele>
        <time>2021-12-20T11:13:16Z</time>
      </trkpt>
      <trkpt lat="47.45165" lon="6.79374">
        <ele>335.6</ele>
        <time>2021-12-20T11:13:21Z</time>
      </trkpt>
      <trkpt lat="47.45177" lon="6.79335">
        <ele>335.6</ele>
        <time>2021-12-20T11:13:26Z</time>
      </trkpt>
      <trkpt lat="47.45188" lon="6.79292">
        <ele>335.8</ele>
        <time>2021-12-20T11:13:31Z</time>
      </trkpt>
      <trkpt lat="47.45197" lon="6.79254">
        <ele>336</ele>
        <time>2021-12-20T11:13:36Z</time>
      </trkpt>
      <trkpt lat="47.45205" lon="6.79218">
        <ele>336.2</ele>
        <time>2021-12-20T11:13:41Z</time>
      </trkpt>
      <trkpt lat="47.45213" lon="6.79182">
        <ele>336.3</ele>
        <time>2021-12-20T11:13:46Z</time>
      </trkpt>
      <trkpt lat="47.45222" lon="6.79143">
        <ele>336.1</ele>
        <time>2021-12-20T11:13:51Z</time>
      </trkpt>
      <trkpt lat="47.45243" lon="6.79123">
        <ele>335.3</ele>
        <time>2021-12-20T11:13:56Z</time>
      </trkpt>
      <trkpt lat="47.45264" lon="6.7909">
        <ele>334.4</ele>
        <time>2021-12-20T11:14:01Z</time>
      </trkpt>
      <trkpt lat="47.45275" lon="6.79043">
        <ele>333.7</ele>
        <time>2021-12-20T11:14:06Z</time>
      </trkpt>
      <trkpt lat="47.45296" lon="6.79009">
        <ele>333.2</ele>
        <time>2021-12-20T11:14:11Z</time>
      </trkpt>
      <trkpt lat="47.45316" lon="6.78978">
        <ele>333</ele>
        <time>2021-12-20T11:14:16Z</time>
      </trkpt>
      <trkpt lat="47.45334" lon="6.78956">
        <ele>332.8</ele>
        <time>2021-12-20T11:14:21Z</time>
      </trkpt>
      <trkpt lat="47.45351" lon="6.78927">
        <ele>332.8</ele>
        <time>2021-12-20T11:14:26Z</time>
      </trkpt>
      <trkpt lat="47.45372" lon="6.78901">
        <ele>332.9</ele>
        <time>2021-12-20T11:14:31Z</time>
      </trkpt>
      <trkpt lat="47.45391" lon="6.78876">
        <ele>333.3</ele>
        <time>2021-12-20T11:14:36Z</time>
      </trkpt>
      <trkpt lat="47.45405" lon="6.78862">
        <ele>333.5</ele>
        <time>2021-12-20T11:14:41Z</time>
      </trkpt>
      <trkpt lat="47.45412" lon="6.78851">
        <ele>333.6</ele>
        <time>2021-12-20T11:14:46Z</time>
      </trkpt>
      <trkpt lat="47.45422" lon="6.78841">
        <ele>333.8</ele>
        <time>2021-12-20T11:14:51Z</time>
      </trkpt>
      <trkpt lat="47.45433" lon="6.78826">
        <ele>334.1</ele>
        <time>2021-12-20T11:14:56Z</time>
      </trkpt>
      <trkpt lat="47.4545" lon="6.7881">
        <ele>334.6</ele>
        <time>2021-12-20T11:15:01Z</time>
      </trkpt>
      <trkpt lat="47.45465" lon="6.78786">
        <ele>335.2</ele>
        <time>2021-12-20T11:15:06Z</time>
      </trkpt>
      <trkpt lat="47.45482" lon="6.78766">
        <ele>336</ele>
        <time>2021-12-20T11:15:11Z</time>
      </trkpt>
      <trkpt lat="47.45491" lon="6.78751">
        <ele>336.7</ele>
        <time>2021-12-20T11:15:16Z</time>
      </trkpt>
      <trkpt lat="47.45481" lon="6.78724">
        <ele>336.9</ele>
        <time>2021-12-20T11:15:21Z</time>
      </trkpt>
      <trkpt lat="47.45464" lon="6.78695">
        <ele>337.1</ele>
        <time>2021-12-20T11:15:26Z</time>
      </trkpt>
      <trkpt lat="47.45448" lon="6.78666">
        <ele>337.2</ele>
        <time>2021-12-20T11:15:31Z</time>
      </trkpt>
      <trkpt lat="47.45432" lon="6.78637">
        <ele>337.5</ele>
        <time>2021-12-20T11:15:36Z</time>
      </trkpt>
      <trkpt lat="47.45417" lon="6.78609">
        <ele>337.8</ele>
        <time>2021-12-20T11:15:41Z</time>
      </trkpt>
      <trkpt lat="47.45403" lon="6.78581">
        <ele>338.3</ele>
        <time>2021-12-20T11:15:46Z</time>
      </trkpt>
      <trkpt lat="47.45388" lon="6.78554">
        <ele>338.7</ele>
        <time>2021-12-20T11:15:51Z</time>
      </trkpt>
      <trkpt lat="47.45379" lon="6.78525">
        <ele>339.6</ele>
        <time>2021-12-20T11:15:56Z</time>
      </trkpt>
      <trkpt lat="47.45375" lon="6.785">
        <ele>340.7</ele>
        <time>2021-12-20T11:16:01Z</time>
      </trkpt>
      <trkpt lat="47.45381" lon="6.7848">
        <ele>341.8</ele>
        <time>2021-12-20T11:16:06Z</time>
      </trkpt>
      <trkpt lat="47.45395" lon="6.78487">
        <ele>343.5</ele>
        <time>2021-12-20T11:16:11Z</time>
      </trkpt>
      <trkpt lat="47.45409" lon="6.785">
        <ele>344.7</ele>
        <time>2021-12-20T11:16:16Z</time>
      </trkpt>
      <trkpt lat="47.45422" lon="6.7851">
        <ele>345.9</ele>
        <time>2021-12-20T11:16:21Z</time>
      </trkpt>
      <trkpt lat="47.4544" lon="6.78511">
        <ele>347.3</ele>
        <time>2021-12-20T11:16:26Z</time>
      </trkpt>
      <trkpt lat="47.45458" lon="6.78504">
        <ele>348.6</ele>
        <time>2021-12-20T11:16:31Z</time>
      </trkpt>
      <trkpt lat="47.45473" lon="6.78495">
        <ele>349.8</ele>
        <time>2021-12-20T11:16:36Z</time>
      </trkpt>
      <trkpt lat="47.45488" lon="6.78485">
        <ele>350.8</ele>
        <time>2021-12-20T11:16:41Z</time>
      </trkpt>
      <trkpt lat="47.45505" lon="6.78474">
        <ele>351.8</ele>
        <time>2021-12-20T11:16:46Z</time>
      </trkpt>
      <trkpt lat="47.45522" lon="6.78463">
        <ele>352.6</ele>
        <time>2021-12-20T11:16:51Z</time>
      </trkpt>
      <trkpt lat="47.45541" lon="6.78451">
        <ele>353.3</ele>
        <time>2021-12-20T11:16:56Z</time>
      </trkpt>
      <trkpt lat="47.45559" lon="6.78441">
        <ele>353.9</ele>
        <time>2021-12-20T11:17:01Z</time>
      </trkpt>
      <trkpt lat="47.45578" lon="6.78432">
        <ele>354.6</ele>
        <time>2021-12-20T11:17:06Z</time>
      </trkpt>
      <trkpt lat="47.456" lon="6.78421">
        <ele>355.3</ele>
        <time>2021-12-20T11:17:11Z</time>
      </trkpt>
      <trkpt lat="47.4562" lon="6.78411">
        <ele>356</ele>
        <time>2021-12-20T11:17:16Z</time>
      </trkpt>
      <trkpt lat="47.45641" lon="6.78401">
        <ele>356.7</ele>
        <time>2021-12-20T11:17:21Z</time>
      </trkpt>
      <trkpt lat="47.45662" lon="6.78394">
        <ele>357.3</ele>
        <time>2021-12-20T11:17:26Z</time>
      </trkpt>
      <trkpt lat="47.45683" lon="6.7839">
        <ele>358</ele>
        <time>2021-12-20T11:17:31Z</time>
      </trkpt>
      <trkpt lat="47.45704" lon="6.78389">
        <ele>358.8</ele>
        <time>2021-12-20T11:17:36Z</time>
      </trkpt>
      <trkpt lat="47.45723" lon="6.7839">
        <ele>359.6</ele>
        <time>2021-12-20T11:17:41Z</time>
      </trkpt>
      <trkpt lat="47.45741" lon="6.78391">
        <ele>360.6</ele>
        <time>2021-12-20T11:17:46Z</time>
      </trkpt>
      <trkpt lat="47.45757" lon="6.78394">
        <ele>361.6</ele>
        <time>2021-12-20T11:17:51Z</time>
      </trkpt>
      <trkpt lat="47.45772" lon="6.78401">
        <ele>362.7</ele>
        <time>2021-12-20T11:17:56Z</time>
      </trkpt>
      <trkpt lat="47.45787" lon="6.78409">
        <ele>364</ele>
        <time>2021-12-20T11:18:01Z</time>
      </trkpt>
      <trkpt lat="47.458" lon="6.78424">
        <ele>365.4</ele>
        <time>2021-12-20T11:18:06Z</time>
      </trkpt>
      <trkpt lat="47.45814" lon="6.78438">
        <ele>366.8</ele>
        <time>2021-12-20T11:18:11Z</time>
      </trkpt>
      <trkpt lat="47.45826" lon="6.7845">
        <ele>368.2</ele>
        <time>2021-12-20T11:18:16Z</time>
      </trkpt>
      <trkpt lat="47.45837" lon="6.78461">
        <ele>369.5</ele>
        <time>2021-12-20T11:18:21Z</time>
      </trkpt>
      <trkpt lat="47.45849" lon="6.7847">
        <ele>370.8</ele>
        <time>2021-12-20T11:18:26Z</time>
      </trkpt>
      <trkpt lat="47.45859" lon="6.78479">
        <ele>372.1</ele>
        <time>2021-12-20T11:18:31Z</time>
      </trkpt>
      <trkpt lat="47.45869" lon="6.78488">
        <ele>373.4</ele>
        <time>2021-12-20T11:18:36Z</time>
      </trkpt>
      <trkpt lat="47.45878" lon="6.78497">
        <ele>374.7</ele>
        <time>2021-12-20T11:18:41Z</time>
      </trkpt>
      <trkpt lat="47.45885" lon="6.78509">
        <ele>376</ele>
        <time>2021-12-20T11:18:46Z</time>
      </trkpt>
      <trkpt lat="47.45893" lon="6.7852">
        <ele>377.2</ele>
        <time>2021-12-20T11:18:51Z</time>
      </trkpt>
      <trkpt lat="47.45903" lon="6.78532">
        <ele>378.7</ele>
        <time>2021-12-20T11:18:56Z</time>
      </trkpt>
      <trkpt lat="47.4593" lon="6.7854">
        <ele>381.5</ele>
        <time>2021-12-20T11:19:05Z</time>
      </trkpt>
      <trkpt lat="47.45945" lon="6.7853">
        <ele>382.1</ele>
        <time>2021-12-20T11:19:10Z</time>
      </trkpt>
      <trkpt lat="47.45946" lon="6.78508">
        <ele>382.6</ele>
        <time>2021-12-20T11:19:15Z</time>
      </trkpt>
      <trkpt lat="47.45944" lon="6.78484">
        <ele>383.6</ele>
        <time>2021-12-20T11:19:20Z</time>
      </trkpt>
      <trkpt lat="47.4594" lon="6.78465">
        <ele>384.6</ele>
        <time>2021-12-20T11:19:25Z</time>
      </trkpt>
      <trkpt lat="47.45944" lon="6.78447">
        <ele>385.8</ele>
        <time>2021-12-20T11:19:30Z</time>
      </trkpt>
      <trkpt lat="47.45955" lon="6.78434">
        <ele>387.2</ele>
        <time>2021-12-20T11:19:35Z</time>
      </trkpt>
      <trkpt lat="47.45965" lon="6.78423">
        <ele>388.5</ele>
        <time>2021-12-20T11:19:40Z</time>
      </trkpt>
      <trkpt lat="47.45978" lon="6.78411">
        <ele>389.8</ele>
        <time>2021-12-20T11:19:45Z</time>
      </trkpt>
      <trkpt lat="47.45992" lon="6.78398">
        <ele>391</ele>
        <time>2021-12-20T11:19:50Z</time>
      </trkpt>
      <trkpt lat="47.46007" lon="6.78388">
        <ele>392.1</ele>
        <time>2021-12-20T11:19:55Z</time>
      </trkpt>
      <trkpt lat="47.46021" lon="6.78378">
        <ele>393</ele>
        <time>2021-12-20T11:20:00Z</time>
      </trkpt>
      <trkpt lat="47.46038" lon="6.78366">
        <ele>393.9</ele>
        <time>2021-12-20T11:20:05Z</time>
      </trkpt>
      <trkpt lat="47.46057" lon="6.78353">
        <ele>394.5</ele>
        <time>2021-12-20T11:20:10Z</time>
      </trkpt>
      <trkpt lat="47.46079" lon="6.78337">
        <ele>395</ele>
        <time>2021-12-20T11:20:15Z</time>
      </trkpt>
      <trkpt lat="47.46099" lon="6.78328">
        <ele>395.3</ele>
        <time>2021-12-20T11:20:20Z</time>
      </trkpt>
      <trkpt lat="47.46118" lon="6.78321">
        <ele>395.4</ele>
        <time>2021-12-20T11:20:25Z</time>
      </trkpt>
      <trkpt lat="47.46144" lon="6.78314">
        <ele>394.6</ele>
        <time>2021-12-20T11:20:30Z</time>
      </trkpt>
      <trkpt lat="47.46178" lon="6.78311">
        <ele>392.6</ele>
        <time>2021-12-20T11:20:35Z</time>
      </trkpt>
      <trkpt lat="47.46217" lon="6.78304">
        <ele>389.4</ele>
        <time>2021-12-20T11:20:40Z</time>
      </trkpt>
      <trkpt lat="47.46264" lon="6.78298">
        <ele>385.1</ele>
        <time>2021-12-20T11:20:45Z</time>
      </trkpt>
      <trkpt lat="47.46316" lon="6.78289">
        <ele>381.8</ele>
        <time>2021-12-20T11:20:50Z</time>
      </trkpt>
      <trkpt lat="47.46367" lon="6.7828">
        <ele>379.6</ele>
        <time>2021-12-20T11:20:55Z</time>
      </trkpt>
      <trkpt lat="47.46415" lon="6.78276">
        <ele>377.9</ele>
        <time>2021-12-20T11:21:00Z</time>
      </trkpt>
      <trkpt lat="47.46458" lon="6.78283">
        <ele>375.5</ele>
        <time>2021-12-20T11:21:05Z</time>
      </trkpt>
      <trkpt lat="47.4651" lon="6.78295">
        <ele>372.6</ele>
        <time>2021-12-20T11:21:10Z</time>
      </trkpt>
      <trkpt lat="47.46562" lon="6.78296">
        <ele>369.1</ele>
        <time>2021-12-20T11:21:15Z</time>
      </trkpt>
      <trkpt lat="47.46616" lon="6.78297">
        <ele>364.2</ele>
        <time>2021-12-20T11:21:20Z</time>
      </trkpt>
      <trkpt lat="47.46673" lon="6.7828">
        <ele>360.2</ele>
        <time>2021-12-20T11:21:25Z</time>
      </trkpt>
      <trkpt lat="47.46723" lon="6.78245">
        <ele>358.5</ele>
        <time>2021-12-20T11:21:30Z</time>
      </trkpt>
      <trkpt lat="47.46763" lon="6.78199">
        <ele>356.4</ele>
        <time>2021-12-20T11:21:35Z</time>
      </trkpt>
      <trkpt lat="47.468" lon="6.78148">
        <ele>352.6</ele>
        <time>2021-12-20T11:21:40Z</time>
      </trkpt>
      <trkpt lat="47.46885" lon="6.7805">
        <ele>343.2</ele>
        <time>2021-12-20T11:21:49Z</time>
      </trkpt>
      <trkpt lat="47.46942" lon="6.78018">
        <ele>336.9</ele>
        <time>2021-12-20T11:21:54Z</time>
      </trkpt>
      <trkpt lat="47.47001" lon="6.77988">
        <ele>334.8</ele>
        <time>2021-12-20T11:21:59Z</time>
      </trkpt>
      <trkpt lat="47.47037" lon="6.77927">
        <ele>334.9</ele>
        <time>2021-12-20T11:22:04Z</time>
      </trkpt>
      <trkpt lat="47.47059" lon="6.77867">
        <ele>335.1</ele>
        <time>2021-12-20T11:22:09Z</time>
      </trkpt>
      <trkpt lat="47.47078" lon="6.77809">
        <ele>335</ele>
        <time>2021-12-20T11:22:14Z</time>
      </trkpt>
      <trkpt lat="47.47099" lon="6.77755">
        <ele>335</ele>
        <time>2021-12-20T11:22:19Z</time>
      </trkpt>
      <trkpt lat="47.47118" lon="6.77701">
        <ele>335.5</ele>
        <time>2021-12-20T11:22:24Z</time>
      </trkpt>
      <trkpt lat="47.47136" lon="6.77654">
        <ele>335.6</ele>
        <time>2021-12-20T11:22:29Z</time>
      </trkpt>
      <trkpt lat="47.47152" lon="6.77605">
        <ele>335.5</ele>
        <time>2021-12-20T11:22:35Z</time>
      </trkpt>
      <trkpt lat="47.47173" lon="6.77567">
        <ele>335.2</ele>
        <time>2021-12-20T11:22:40Z</time>
      </trkpt>
      <trkpt lat="47.47206" lon="6.77568">
        <ele>334</ele>
        <time>2021-12-20T11:22:45Z</time>
      </trkpt>
      <trkpt lat="47.47245" lon="6.77573">
        <ele>330.5</ele>
        <time>2021-12-20T11:22:50Z</time>
      </trkpt>
      <trkpt lat="47.47271" lon="6.7756">
        <ele>328.3</ele>
        <time>2021-12-20T11:22:55Z</time>
      </trkpt>
      <trkpt lat="47.47287" lon="6.77512">
        <ele>325.4</ele>
        <time>2021-12-20T11:23:00Z</time>
      </trkpt>
      <trkpt lat="47.47304" lon="6.77468">
        <ele>323.4</ele>
        <time>2021-12-20T11:23:05Z</time>
      </trkpt>
      <trkpt lat="47.47323" lon="6.77438">
        <ele>322.3</ele>
        <time>2021-12-20T11:23:10Z</time>
      </trkpt>
      <trkpt lat="47.47346" lon="6.77406">
        <ele>321</ele>
        <time>2021-12-20T11:23:15Z</time>
      </trkpt>
      <trkpt lat="47.47364" lon="6.77405">
        <ele>320.2</ele>
        <time>2021-12-20T11:23:20Z</time>
      </trkpt>
      <trkpt lat="47.47375" lon="6.77434">
        <ele>320.1</ele>
        <time>2021-12-20T11:23:25Z</time>
      </trkpt>
      <trkpt lat="47.47389" lon="6.77466">
        <ele>320</ele>
        <time>2021-12-20T11:23:30Z</time>
      </trkpt>
      <trkpt lat="47.47408" lon="6.77498">
        <ele>320</ele>
        <time>2021-12-20T11:23:35Z</time>
      </trkpt>
      <trkpt lat="47.47426" lon="6.77527">
        <ele>319.8</ele>
        <time>2021-12-20T11:23:40Z</time>
      </trkpt>
      <trkpt lat="47.47434" lon="6.77552">
        <ele>319.4</ele>
        <time>2021-12-20T11:23:45Z</time>
      </trkpt>
      <trkpt lat="47.47451" lon="6.77537">
        <ele>318.7</ele>
        <time>2021-12-20T11:23:50Z</time>
      </trkpt>
      <trkpt lat="47.47474" lon="6.77512">
        <ele>317.9</ele>
        <time>2021-12-20T11:23:55Z</time>
      </trkpt>
      <trkpt lat="47.47496" lon="6.77475">
        <ele>317.1</ele>
        <time>2021-12-20T11:24:00Z</time>
      </trkpt>
      <trkpt lat="47.47517" lon="6.77434">
        <ele>315.9</ele>
        <time>2021-12-20T11:24:05Z</time>
      </trkpt>
      <trkpt lat="47.4754" lon="6.77403">
        <ele>314.3</ele>
        <time>2021-12-20T11:24:10Z</time>
      </trkpt>
      <trkpt lat="47.47551" lon="6.77407">
        <ele>313.8</ele>
        <time>2021-12-20T11:24:15Z</time>
      </trkpt>
      <trkpt lat="47.47574" lon="6.77435">
        <ele>313</ele>
        <time>2021-12-20T11:24:20Z</time>
      </trkpt>
      <trkpt lat="47.47593" lon="6.77435">
        <ele>312.2</ele>
        <time>2021-12-20T11:24:25Z</time>
      </trkpt>
      <trkpt lat="47.47611" lon="6.77404">
        <ele>311.5</ele>
        <time>2021-12-20T11:24:30Z</time>
      </trkpt>
      <trkpt lat="47.47624" lon="6.77365">
        <ele>311.1</ele>
        <time>2021-12-20T11:24:35Z</time>
      </trkpt>
      <trkpt lat="47.47636" lon="6.77319">
        <ele>310.8</ele>
        <time>2021-12-20T11:24:40Z</time>
      </trkpt>
      <trkpt lat="47.47635" lon="6.77273">
        <ele>310.7</ele>
        <time>2021-12-20T11:24:45Z</time>
      </trkpt>
      <trkpt lat="47.47606" lon="6.77244">
        <ele>310.4</ele>
        <time>2021-12-20T11:24:50Z</time>
      </trkpt>
      <trkpt lat="47.47576" lon="6.7722">
        <ele>310.3</ele>
        <time>2021-12-20T11:24:55Z</time>
      </trkpt>
      <trkpt lat="47.47549" lon="6.77202">
        <ele>310.4</ele>
        <time>2021-12-20T11:25:00Z</time>
      </trkpt>
      <trkpt lat="47.47523" lon="6.77188">
        <ele>310.6</ele>
        <time>2021-12-20T11:25:05Z</time>
      </trkpt>
      <trkpt lat="47.47517" lon="6.77163">
        <ele>310.6</ele>
        <time>2021-12-20T11:25:10Z</time>
      </trkpt>
      <trkpt lat="47.47539" lon="6.77136">
        <ele>310.8</ele>
        <time>2021-12-20T11:25:17Z</time>
      </trkpt>
      <trkpt lat="47.47565" lon="6.7716">
        <ele>310.9</ele>
        <time>2021-12-20T11:25:22Z</time>
      </trkpt>
      <trkpt lat="47.47588" lon="6.77177">
        <ele>311</ele>
        <time>2021-12-20T11:25:27Z</time>
      </trkpt>
      <trkpt lat="47.47614" lon="6.77188">
        <ele>311.3</ele>
        <time>2021-12-20T11:25:32Z</time>
      </trkpt>
      <trkpt lat="47.47629" lon="6.77157">
        <ele>312</ele>
        <time>2021-12-20T11:25:37Z</time>
      </trkpt>
      <trkpt lat="47.47636" lon="6.7713">
        <ele>313.1</ele>
        <time>2021-12-20T11:25:42Z</time>
      </trkpt>
      <trkpt lat="47.47638" lon="6.77113">
        <ele>313.9</ele>
        <time>2021-12-20T11:25:47Z</time>
      </trkpt>
      <trkpt lat="47.47643" lon="6.7709">
        <ele>315</ele>
        <time>2021-12-20T11:25:52Z</time>
      </trkpt>
      <trkpt lat="47.47647" lon="6.77064">
        <ele>315.5</ele>
        <time>2021-12-20T11:25:57Z</time>
      </trkpt>
      <trkpt lat="47.47652" lon="6.77028">
        <ele>314.3</ele>
        <time>2021-12-20T11:26:02Z</time>
      </trkpt>
      <trkpt lat="47.47659" lon="6.76997">
        <ele>312.7</ele>
        <time>2021-12-20T11:26:07Z</time>
      </trkpt>
      <trkpt lat="47.47675" lon="6.76955">
        <ele>311.1</ele>
        <time>2021-12-20T11:26:12Z</time>
      </trkpt>
      <trkpt lat="47.47691" lon="6.7691">
        <ele>310.5</ele>
        <time>2021-12-20T11:26:17Z</time>
      </trkpt>
      <trkpt lat="47.47712" lon="6.7686">
        <ele>310.4</ele>
        <time>2021-12-20T11:26:24Z</time>
      </trkpt>
      <trkpt lat="47.47724" lon="6.76822">
        <ele>310.9</ele>
        <time>2021-12-20T11:26:29Z</time>
      </trkpt>
      <trkpt lat="47.47742" lon="6.76798">
        <ele>312.2</ele>
        <time>2021-12-20T11:26:34Z</time>
      </trkpt>
      <trkpt lat="47.47757" lon="6.76797">
        <ele>312.3</ele>
        <time>2021-12-20T11:26:39Z</time>
      </trkpt>
      <trkpt lat="47.47783" lon="6.76801">
        <ele>312.1</ele>
        <time>2021-12-20T11:26:44Z</time>
      </trkpt>
      <trkpt lat="47.47819" lon="6.76813">
        <ele>311.8</ele>
        <time>2021-12-20T11:26:49Z</time>
      </trkpt>
      <trkpt lat="47.47848" lon="6.7678">
        <ele>311.2</ele>
        <time>2021-12-20T11:26:54Z</time>
      </trkpt>
      <trkpt lat="47.4787" lon="6.76735">
        <ele>311</ele>
        <time>2021-12-20T11:26:59Z</time>
      </trkpt>
      <trkpt lat="47.4789" lon="6.76689">
        <ele>310.9</ele>
        <time>2021-12-20T11:27:04Z</time>
      </trkpt>
      <trkpt lat="47.47913" lon="6.76652">
        <ele>311.6</ele>
        <time>2021-12-20T11:27:09Z</time>
      </trkpt>
      <trkpt lat="47.47942" lon="6.7663">
        <ele>312.5</ele>
        <time>2021-12-20T11:27:14Z</time>
      </trkpt>
      <trkpt lat="47.47966" lon="6.76616">
        <ele>313.5</ele>
        <time>2021-12-20T11:27:19Z</time>
      </trkpt>
      <trkpt lat="47.47989" lon="6.76605">
        <ele>313.9</ele>
        <time>2021-12-20T11:27:24Z</time>
      </trkpt>
      <trkpt lat="47.48015" lon="6.76592">
        <ele>313.9</ele>
        <time>2021-12-20T11:27:29Z</time>
      </trkpt>
      <trkpt lat="47.4804" lon="6.76573">
        <ele>313.9</ele>
        <time>2021-12-20T11:27:34Z</time>
      </trkpt>
      <trkpt lat="47.48065" lon="6.7655">
        <ele>313.7</ele>
        <time>2021-12-20T11:27:39Z</time>
      </trkpt>
      <trkpt lat="47.48091" lon="6.76526">
        <ele>313.5</ele>
        <time>2021-12-20T11:27:44Z</time>
      </trkpt>
      <trkpt lat="47.48112" lon="6.76516">
        <ele>313.4</ele>
        <time>2021-12-20T11:27:49Z</time>
      </trkpt>
      <trkpt lat="47.48126" lon="6.76544">
        <ele>312.8</ele>
        <time>2021-12-20T11:27:54Z</time>
      </trkpt>
      <trkpt lat="47.48116" lon="6.76573">
        <ele>311.9</ele>
        <time>2021-12-20T11:27:59Z</time>
      </trkpt>
      <trkpt lat="47.48104" lon="6.7662">
        <ele>311.7</ele>
        <time>2021-12-20T11:28:04Z</time>
      </trkpt>
      <trkpt lat="47.48116" lon="6.76653">
        <ele>311.5</ele>
        <time>2021-12-20T11:28:09Z</time>
      </trkpt>
      <trkpt lat="47.48136" lon="6.76683">
        <ele>311</ele>
        <time>2021-12-20T11:28:14Z</time>
      </trkpt>
      <trkpt lat="47.48154" lon="6.7672">
        <ele>310.7</ele>
        <time>2021-12-20T11:28:19Z</time>
      </trkpt>
      <trkpt lat="47.48174" lon="6.76755">
        <ele>310.8</ele>
        <time>2021-12-20T11:28:24Z</time>
      </trkpt>
      <trkpt lat="47.48198" lon="6.7678">
        <ele>311</ele>
        <time>2021-12-20T11:28:29Z</time>
      </trkpt>
      <trkpt lat="47.48227" lon="6.76794">
        <ele>311.3</ele>
        <time>2021-12-20T11:28:34Z</time>
      </trkpt>
      <trkpt lat="47.48254" lon="6.76814">
        <ele>311.3</ele>
        <time>2021-12-20T11:28:39Z</time>
      </trkpt>
      <trkpt lat="47.48275" lon="6.76845">
        <ele>311.2</ele>
        <time>2021-12-20T11:28:44Z</time>
      </trkpt>
      <trkpt lat="47.48312" lon="6.76889">
        <ele>310.9</ele>
        <time>2021-12-20T11:28:52Z</time>
      </trkpt>
      <trkpt lat="47.48339" lon="6.76911">
        <ele>310.8</ele>
        <time>2021-12-20T11:28:57Z</time>
      </trkpt>
      <trkpt lat="47.48365" lon="6.76927">
        <ele>310.7</ele>
        <time>2021-12-20T11:29:02Z</time>
      </trkpt>
      <trkpt lat="47.48393" lon="6.76945">
        <ele>310.7</ele>
        <time>2021-12-20T11:29:07Z</time>
      </trkpt>
      <trkpt lat="47.48421" lon="6.7696">
        <ele>310.8</ele>
        <time>2021-12-20T11:29:12Z</time>
      </trkpt>
      <trkpt lat="47.48449" lon="6.76975">
        <ele>310.8</ele>
        <time>2021-12-20T11:29:17Z</time>
      </trkpt>
      <trkpt lat="47.48475" lon="6.76992">
        <ele>310.9</ele>
        <time>2021-12-20T11:29:22Z</time>
      </trkpt>
      <trkpt lat="47.48501" lon="6.77009">
        <ele>311</ele>
        <time>2021-12-20T11:29:27Z</time>
      </trkpt>
      <trkpt lat="47.48527" lon="6.77029">
        <ele>311.2</ele>
        <time>2021-12-20T11:29:32Z</time>
      </trkpt>
      <trkpt lat="47.48553" lon="6.77047">
        <ele>311.8</ele>
        <time>2021-12-20T11:29:37Z</time>
      </trkpt>
      <trkpt lat="47.48578" lon="6.77058">
        <ele>312.3</ele>
        <time>2021-12-20T11:29:42Z</time>
      </trkpt>
      <trkpt lat="47.48602" lon="6.77072">
        <ele>312.2</ele>
        <time>2021-12-20T11:29:47Z</time>
      </trkpt>
      <trkpt lat="47.48626" lon="6.77089">
        <ele>312.3</ele>
        <time>2021-12-20T11:29:52Z</time>
      </trkpt>
      <trkpt lat="47.4865" lon="6.77113">
        <ele>312</ele>
        <time>2021-12-20T11:29:57Z</time>
      </trkpt>
      <trkpt lat="47.48675" lon="6.77141">
        <ele>311.9</ele>
        <time>2021-12-20T11:30:02Z</time>
      </trkpt>
      <trkpt lat="47.48697" lon="6.77164">
        <ele>311.8</ele>
        <time>2021-12-20T11:30:07Z</time>
      </trkpt>
      <trkpt lat="47.48722" lon="6.77184">
        <ele>311.8</ele>
        <time>2021-12-20T11:30:12Z</time>
      </trkpt>
      <trkpt lat="47.48748" lon="6.77202">
        <ele>311.7</ele>
        <time>2021-12-20T11:30:17Z</time>
      </trkpt>
      <trkpt lat="47.48774" lon="6.77222">
        <ele>311.7</ele>
        <time>2021-12-20T11:30:22Z</time>
      </trkpt>
      <trkpt lat="47.488" lon="6.77242">
        <ele>311.8</ele>
        <time>2021-12-20T11:30:27Z</time>
      </trkpt>
      <trkpt lat="47.48825" lon="6.7726">
        <ele>311.9</ele>
        <time>2021-12-20T11:30:32Z</time>
      </trkpt>
      <trkpt lat="47.48851" lon="6.77278">
        <ele>311.9</ele>
        <time>2021-12-20T11:30:37Z</time>
      </trkpt>
      <trkpt lat="47.48882" lon="6.77292">
        <ele>312</ele>
        <time>2021-12-20T11:30:43Z</time>
      </trkpt>
      <trkpt lat="47.48909" lon="6.77303">
        <ele>311.9</ele>
        <time>2021-12-20T11:30:48Z</time>
      </trkpt>
      <trkpt lat="47.48947" lon="6.77319">
        <ele>312</ele>
        <time>2021-12-20T11:30:55Z</time>
      </trkpt>
      <trkpt lat="47.48981" lon="6.77324">
        <ele>312</ele>
        <time>2021-12-20T11:31:00Z</time>
      </trkpt>
      <trkpt lat="47.49029" lon="6.77327">
        <ele>312</ele>
        <time>2021-12-20T11:31:08Z</time>
      </trkpt>
      <trkpt lat="47.49065" lon="6.77329">
        <ele>311.9</ele>
        <time>2021-12-20T11:31:14Z</time>
      </trkpt>
      <trkpt lat="47.49094" lon="6.77332">
        <ele>312</ele>
        <time>2021-12-20T11:31:19Z</time>
      </trkpt>
      <trkpt lat="47.49148" lon="6.77334">
        <ele>312.1</ele>
        <time>2021-12-20T11:31:28Z</time>
      </trkpt>
      <trkpt lat="47.49177" lon="6.77337">
        <ele>312.1</ele>
        <time>2021-12-20T11:31:33Z</time>
      </trkpt>
      <trkpt lat="47.49204" lon="6.7734">
        <ele>312</ele>
        <time>2021-12-20T11:31:38Z</time>
      </trkpt>
      <trkpt lat="47.49231" lon="6.77341">
        <ele>311.7</ele>
        <time>2021-12-20T11:31:43Z</time>
      </trkpt>
      <trkpt lat="47.49259" lon="6.77333">
        <ele>311.6</ele>
        <time>2021-12-20T11:31:48Z</time>
      </trkpt>
      <trkpt lat="47.49289" lon="6.7733">
        <ele>311.3</ele>
        <time>2021-12-20T11:31:53Z</time>
      </trkpt>
      <trkpt lat="47.49321" lon="6.77334">
        <ele>311.5</ele>
        <time>2021-12-20T11:31:58Z</time>
      </trkpt>
      <trkpt lat="47.49345" lon="6.77351">
        <ele>311.7</ele>
        <time>2021-12-20T11:32:03Z</time>
      </trkpt>
      <trkpt lat="47.49371" lon="6.77351">
        <ele>311.6</ele>
        <time>2021-12-20T11:32:08Z</time>
      </trkpt>
      <trkpt lat="47.49398" lon="6.77354">
        <ele>311.6</ele>
        <time>2021-12-20T11:32:13Z</time>
      </trkpt>
      <trkpt lat="47.49425" lon="6.77355">
        <ele>311.7</ele>
        <time>2021-12-20T11:32:18Z</time>
      </trkpt>
      <trkpt lat="47.49451" lon="6.77356">
        <ele>311.6</ele>
        <time>2021-12-20T11:32:23Z</time>
      </trkpt>
      <trkpt lat="47.49476" lon="6.77357">
        <ele>311.6</ele>
        <time>2021-12-20T11:32:28Z</time>
      </trkpt>
      <trkpt lat="47.49504" lon="6.7736">
        <ele>311.5</ele>
        <time>2021-12-20T11:32:33Z</time>
      </trkpt>
      <trkpt lat="47.49532" lon="6.77361">
        <ele>311.6</ele>
        <time>2021-12-20T11:32:38Z</time>
      </trkpt>
      <trkpt lat="47.49559" lon="6.77364">
        <ele>311.6</ele>
        <time>2021-12-20T11:32:43Z</time>
      </trkpt>
      <trkpt lat="47.49585" lon="6.77365">
        <ele>311.6</ele>
        <time>2021-12-20T11:32:48Z</time>
      </trkpt>
      <trkpt lat="47.49612" lon="6.77362">
        <ele>311.6</ele>
        <time>2021-12-20T11:32:53Z</time>
      </trkpt>
      <trkpt lat="47.49642" lon="6.77357">
        <ele>311.7</ele>
        <time>2021-12-20T11:32:58Z</time>
      </trkpt>
      <trkpt lat="47.49672" lon="6.77349">
        <ele>311.7</ele>
        <time>2021-12-20T11:33:03Z</time>
      </trkpt>
      <trkpt lat="47.497" lon="6.7734">
        <ele>311.8</ele>
        <time>2021-12-20T11:33:08Z</time>
      </trkpt>
      <trkpt lat="47.49731" lon="6.77333">
        <ele>312</ele>
        <time>2021-12-20T11:33:13Z</time>
      </trkpt>
      <trkpt lat="47.49765" lon="6.77318">
        <ele>312.2</ele>
        <time>2021-12-20T11:33:19Z</time>
      </trkpt>
      <trkpt lat="47.49797" lon="6.77311">
        <ele>312.3</ele>
        <time>2021-12-20T11:33:25Z</time>
      </trkpt>
      <trkpt lat="47.49822" lon="6.7731">
        <ele>312.4</ele>
        <time>2021-12-20T11:33:30Z</time>
      </trkpt>
      <trkpt lat="47.49854" lon="6.77306">
        <ele>312.5</ele>
        <time>2021-12-20T11:33:36Z</time>
      </trkpt>
      <trkpt lat="47.49881" lon="6.77301">
        <ele>312.8</ele>
        <time>2021-12-20T11:33:41Z</time>
      </trkpt>
      <trkpt lat="47.49912" lon="6.77291">
        <ele>313</ele>
        <time>2021-12-20T11:33:47Z</time>
      </trkpt>
      <trkpt lat="47.49939" lon="6.77269">
        <ele>313.2</ele>
        <time>2021-12-20T11:33:52Z</time>
      </trkpt>
      <trkpt lat="47.49966" lon="6.77251">
        <ele>313.6</ele>
        <time>2021-12-20T11:33:57Z</time>
      </trkpt>
      <trkpt lat="47.49996" lon="6.77236">
        <ele>314.2</ele>
        <time>2021-12-20T11:34:02Z</time>
      </trkpt>
      <trkpt lat="47.50032" lon="6.77222">
        <ele>315.4</ele>
        <time>2021-12-20T11:34:09Z</time>
      </trkpt>
      <trkpt lat="47.50057" lon="6.7721">
        <ele>315.4</ele>
        <time>2021-12-20T11:34:14Z</time>
      </trkpt>
      <trkpt lat="47.50083" lon="6.77201">
        <ele>315.5</ele>
        <time>2021-12-20T11:34:19Z</time>
      </trkpt>
      <trkpt lat="47.50109" lon="6.77196">
        <ele>315</ele>
        <time>2021-12-20T11:34:24Z</time>
      </trkpt>
      <trkpt lat="47.50142" lon="6.77204">
        <ele>314</ele>
        <time>2021-12-20T11:34:29Z</time>
      </trkpt>
      <trkpt lat="47.50175" lon="6.7723">
        <ele>313.8</ele>
        <time>2021-12-20T11:34:34Z</time>
      </trkpt>
      <trkpt lat="47.50203" lon="6.77254">
        <ele>313.9</ele>
        <time>2021-12-20T11:34:39Z</time>
      </trkpt>
      <trkpt lat="47.5023" lon="6.77274">
        <ele>314.1</ele>
        <time>2021-12-20T11:34:44Z</time>
      </trkpt>
      <trkpt lat="47.50256" lon="6.77292">
        <ele>314.3</ele>
        <time>2021-12-20T11:34:49Z</time>
      </trkpt>
      <trkpt lat="47.50283" lon="6.77312">
        <ele>314.4</ele>
        <time>2021-12-20T11:34:54Z</time>
      </trkpt>
      <trkpt lat="47.50307" lon="6.77329">
        <ele>314.3</ele>
        <time>2021-12-20T11:34:59Z</time>
      </trkpt>
      <trkpt lat="47.50327" lon="6.77343">
        <ele>314.3</ele>
        <time>2021-12-20T11:35:04Z</time>
      </trkpt>
      <trkpt lat="47.50341" lon="6.77352">
        <ele>314.3</ele>
        <time>2021-12-20T11:35:09Z</time>
      </trkpt>
      <trkpt lat="47.50351" lon="6.7736">
        <ele>314.3</ele>
        <time>2021-12-20T11:35:14Z</time>
      </trkpt>
      <trkpt lat="47.50369" lon="6.77375">
        <ele>314.3</ele>
        <time>2021-12-20T11:35:19Z</time>
      </trkpt>
      <trkpt lat="47.50393" lon="6.77394">
        <ele>314.3</ele>
        <time>2021-12-20T11:35:24Z</time>
      </trkpt>
      <trkpt lat="47.50419" lon="6.77417">
        <ele>314.4</ele>
        <time>2021-12-20T11:35:29Z</time>
      </trkpt>
      <trkpt lat="47.50445" lon="6.7744">
        <ele>314.4</ele>
        <time>2021-12-20T11:35:34Z</time>
      </trkpt>
      <trkpt lat="47.5047" lon="6.77463">
        <ele>314.4</ele>
        <time>2021-12-20T11:35:39Z</time>
      </trkpt>
      <trkpt lat="47.50494" lon="6.77485">
        <ele>314.5</ele>
        <time>2021-12-20T11:35:44Z</time>
      </trkpt>
      <trkpt lat="47.50523" lon="6.77505">
        <ele>314.6</ele>
        <time>2021-12-20T11:35:49Z</time>
      </trkpt>
      <trkpt lat="47.5055" lon="6.77523">
        <ele>314.8</ele>
        <time>2021-12-20T11:35:54Z</time>
      </trkpt>
      <trkpt lat="47.50564" lon="6.77551">
        <ele>314.8</ele>
        <time>2021-12-20T11:35:59Z</time>
      </trkpt>
      <trkpt lat="47.50581" lon="6.77541">
        <ele>314.8</ele>
        <time>2021-12-20T11:36:04Z</time>
      </trkpt>
      <trkpt lat="47.50606" lon="6.77533">
        <ele>314.7</ele>
        <time>2021-12-20T11:36:09Z</time>
      </trkpt>
      <trkpt lat="47.50629" lon="6.77526">
        <ele>314.6</ele>
        <time>2021-12-20T11:36:14Z</time>
      </trkpt>
      <trkpt lat="47.50648" lon="6.77526">
        <ele>314.6</ele>
        <time>2021-12-20T11:36:19Z</time>
      </trkpt>
      <trkpt lat="47.50671" lon="6.77533">
        <ele>314.5</ele>
        <time>2021-12-20T11:36:24Z</time>
      </trkpt>
      <trkpt lat="47.50702" lon="6.77528">
        <ele>314.3</ele>
        <time>2021-12-20T11:36:29Z</time>
      </trkpt>
      <trkpt lat="47.50731" lon="6.77541">
        <ele>314.1</ele>
        <time>2021-12-20T11:36:34Z</time>
      </trkpt>
      <trkpt lat="47.50759" lon="6.77563">
        <ele>314</ele>
        <time>2021-12-20T11:36:39Z</time>
      </trkpt>
      <trkpt lat="47.50785" lon="6.77585">
        <ele>314.1</ele>
        <time>2021-12-20T11:36:44Z</time>
      </trkpt>
      <trkpt lat="47.50811" lon="6.77606">
        <ele>314</ele>
        <time>2021-12-20T11:36:49Z</time>
      </trkpt>
      <trkpt lat="47.50834" lon="6.77624">
        <ele>314.1</ele>
        <time>2021-12-20T11:36:54Z</time>
      </trkpt>
      <trkpt lat="47.50874" lon="6.77677">
        <ele>314.1</ele>
        <time>2021-12-20T11:37:03Z</time>
      </trkpt>
      <trkpt lat="47.50892" lon="6.77702">
        <ele>314.2</ele>
        <time>2021-12-20T11:37:08Z</time>
      </trkpt>
      <trkpt lat="47.50915" lon="6.77698">
        <ele>314.4</ele>
        <time>2021-12-20T11:37:13Z</time>
      </trkpt>
      <trkpt lat="47.50935" lon="6.77696">
        <ele>314.6</ele>
        <time>2021-12-20T11:37:18Z</time>
      </trkpt>
      <trkpt lat="47.50947" lon="6.77701">
        <ele>314.7</ele>
        <time>2021-12-20T11:37:23Z</time>
      </trkpt>
      <trkpt lat="47.50966" lon="6.77694">
        <ele>315.1</ele>
        <time>2021-12-20T11:37:33Z</time>
      </trkpt>
      <trkpt lat="47.50983" lon="6.77704">
        <ele>315.7</ele>
        <time>2021-12-20T11:37:38Z</time>
      </trkpt>
      <trkpt lat="47.51005" lon="6.77721">
        <ele>316.2</ele>
        <time>2021-12-20T11:37:43Z</time>
      </trkpt>
      <trkpt lat="47.51024" lon="6.77735">
        <ele>316.6</ele>
        <time>2021-12-20T11:37:48Z</time>
      </trkpt>
      <trkpt lat="47.51041" lon="6.77749">
        <ele>317.1</ele>
        <time>2021-12-20T11:37:53Z</time>
      </trkpt>
      <trkpt lat="47.51053" lon="6.7776">
        <ele>317.4</ele>
        <time>2021-12-20T11:37:58Z</time>
      </trkpt>
      <trkpt lat="47.51064" lon="6.77768">
        <ele>317.8</ele>
        <time>2021-12-20T11:38:03Z</time>
      </trkpt>
      <trkpt lat="47.51082" lon="6.77773">
        <ele>318.2</ele>
        <time>2021-12-20T11:38:08Z</time>
      </trkpt>
      <trkpt lat="47.51099" lon="6.77778">
        <ele>318.9</ele>
        <time>2021-12-20T11:38:13Z</time>
      </trkpt>
      <trkpt lat="47.51117" lon="6.77782">
        <ele>319.6</ele>
        <time>2021-12-20T11:38:18Z</time>
      </trkpt>
      <trkpt lat="47.51134" lon="6.77785">
        <ele>320.5</ele>
        <time>2021-12-20T11:38:23Z</time>
      </trkpt>
      <trkpt lat="47.51151" lon="6.77786">
        <ele>321.6</ele>
        <time>2021-12-20T11:38:28Z</time>
      </trkpt>
      <trkpt lat="47.51167" lon="6.77788">
        <ele>322.8</ele>
        <time>2021-12-20T11:38:33Z</time>
      </trkpt>
      <trkpt lat="47.5118" lon="6.77787">
        <ele>323.8</ele>
        <time>2021-12-20T11:38:38Z</time>
      </trkpt>
      <trkpt lat="47.51193" lon="6.77788">
        <ele>324.9</ele>
        <time>2021-12-20T11:38:43Z</time>
      </trkpt>
      <trkpt lat="47.51206" lon="6.77785">
        <ele>326.1</ele>
        <time>2021-12-20T11:38:48Z</time>
      </trkpt>
      <trkpt lat="47.51217" lon="6.77786">
        <ele>327.1</ele>
        <time>2021-12-20T11:38:53Z</time>
      </trkpt>
      <trkpt lat="47.5123" lon="6.77786">
        <ele>328.2</ele>
        <time>2021-12-20T11:38:58Z</time>
      </trkpt>
      <trkpt lat="47.51241" lon="6.77786">
        <ele>329.1</ele>
        <time>2021-12-20T11:39:03Z</time>
      </trkpt>
      <trkpt lat="47.51253" lon="6.77785">
        <ele>330.2</ele>
        <time>2021-12-20T11:39:08Z</time>
      </trkpt>
      <trkpt lat="47.51262" lon="6.77782">
        <ele>331.1</ele>
        <time>2021-12-20T11:39:13Z</time>
      </trkpt>
      <trkpt lat="47.51272" lon="6.77782">
        <ele>332.1</ele>
        <time>2021-12-20T11:39:18Z</time>
      </trkpt>
      <trkpt lat="47.51281" lon="6.77781">
        <ele>333</ele>
        <time>2021-12-20T11:39:23Z</time>
      </trkpt>
      <trkpt lat="47.5129" lon="6.77781">
        <ele>333.9</ele>
        <time>2021-12-20T11:39:28Z</time>
      </trkpt>
      <trkpt lat="47.51299" lon="6.7778">
        <ele>334.9</ele>
        <time>2021-12-20T11:39:33Z</time>
      </trkpt>
      <trkpt lat="47.5131" lon="6.77779">
        <ele>336.1</ele>
        <time>2021-12-20T11:39:38Z</time>
      </trkpt>
      <trkpt lat="47.5132" lon="6.77776">
        <ele>337.2</ele>
        <time>2021-12-20T11:39:43Z</time>
      </trkpt>
      <trkpt lat="47.51329" lon="6.77774">
        <ele>338.5</ele>
        <time>2021-12-20T11:39:48Z</time>
      </trkpt>
      <trkpt lat="47.51337" lon="6.77778">
        <ele>339.3</ele>
        <time>2021-12-20T11:39:53Z</time>
      </trkpt>
      <trkpt lat="47.51344" lon="6.77779">
        <ele>340.2</ele>
        <time>2021-12-20T11:39:58Z</time>
      </trkpt>
      <trkpt lat="47.51352" lon="6.77775">
        <ele>341.2</ele>
        <time>2021-12-20T11:40:03Z</time>
      </trkpt>
      <trkpt lat="47.51361" lon="6.77768">
        <ele>342.2</ele>
        <time>2021-12-20T11:40:08Z</time>
      </trkpt>
      <trkpt lat="47.51369" lon="6.77764">
        <ele>343</ele>
        <time>2021-12-20T11:40:13Z</time>
      </trkpt>
      <trkpt lat="47.51378" lon="6.77759">
        <ele>344.1</ele>
        <time>2021-12-20T11:40:18Z</time>
      </trkpt>
      <trkpt lat="47.51387" lon="6.77755">
        <ele>345.2</ele>
        <time>2021-12-20T11:40:23Z</time>
      </trkpt>
      <trkpt lat="47.51397" lon="6.77751">
        <ele>346.4</ele>
        <time>2021-12-20T11:40:28Z</time>
      </trkpt>
      <trkpt lat="47.51405" lon="6.77745">
        <ele>347.6</ele>
        <time>2021-12-20T11:40:33Z</time>
      </trkpt>
      <trkpt lat="47.51414" lon="6.7774">
        <ele>348.8</ele>
        <time>2021-12-20T11:40:38Z</time>
      </trkpt>
      <trkpt lat="47.51424" lon="6.77736">
        <ele>350.2</ele>
        <time>2021-12-20T11:40:43Z</time>
      </trkpt>
      <trkpt lat="47.51432" lon="6.77733">
        <ele>351.5</ele>
        <time>2021-12-20T11:40:48Z</time>
      </trkpt>
      <trkpt lat="47.51442" lon="6.7773">
        <ele>352.7</ele>
        <time>2021-12-20T11:40:53Z</time>
      </trkpt>
      <trkpt lat="47.51451" lon="6.7773">
        <ele>353.8</ele>
        <time>2021-12-20T11:40:58Z</time>
      </trkpt>
      <trkpt lat="47.5146" lon="6.77728">
        <ele>355</ele>
        <time>2021-12-20T11:41:03Z</time>
      </trkpt>
      <trkpt lat="47.51468" lon="6.77727">
        <ele>356</ele>
        <time>2021-12-20T11:41:08Z</time>
      </trkpt>
      <trkpt lat="47.51478" lon="6.77726">
        <ele>357.2</ele>
        <time>2021-12-20T11:41:13Z</time>
      </trkpt>
      <trkpt lat="47.51488" lon="6.77722">
        <ele>358.4</ele>
        <time>2021-12-20T11:41:18Z</time>
      </trkpt>
      <trkpt lat="47.51498" lon="6.77718">
        <ele>359.7</ele>
        <time>2021-12-20T11:41:23Z</time>
      </trkpt>
      <trkpt lat="47.51507" lon="6.77716">
        <ele>360.8</ele>
        <time>2021-12-20T11:41:28Z</time>
      </trkpt>
      <trkpt lat="47.51516" lon="6.77716">
        <ele>362</ele>
        <time>2021-12-20T11:41:33Z</time>
      </trkpt>
      <trkpt lat="47.51526" lon="6.77714">
        <ele>363.2</ele>
        <time>2021-12-20T11:41:38Z</time>
      </trkpt>
      <trkpt lat="47.51537" lon="6.77717">
        <ele>364.3</ele>
        <time>2021-12-20T11:41:43Z</time>
      </trkpt>
      <trkpt lat="47.51547" lon="6.7772">
        <ele>365.3</ele>
        <time>2021-12-20T11:41:48Z</time>
      </trkpt>
      <trkpt lat="47.51558" lon="6.77724">
        <ele>366.3</ele>
        <time>2021-12-20T11:41:53Z</time>
      </trkpt>
      <trkpt lat="47.51568" lon="6.77727">
        <ele>367.2</ele>
        <time>2021-12-20T11:41:58Z</time>
      </trkpt>
      <trkpt lat="47.51577" lon="6.77731">
        <ele>368.1</ele>
        <time>2021-12-20T11:42:03Z</time>
      </trkpt>
      <trkpt lat="47.51584" lon="6.77732">
        <ele>368.7</ele>
        <time>2021-12-20T11:42:08Z</time>
      </trkpt>
      <trkpt lat="47.51593" lon="6.77733">
        <ele>369.1</ele>
        <time>2021-12-20T11:42:13Z</time>
      </trkpt>
      <trkpt lat="47.51602" lon="6.77743">
        <ele>370.2</ele>
        <time>2021-12-20T11:42:18Z</time>
      </trkpt>
      <trkpt lat="47.51612" lon="6.77744">
        <ele>371.2</ele>
        <time>2021-12-20T11:42:23Z</time>
      </trkpt>
      <trkpt lat="47.51622" lon="6.77745">
        <ele>372.3</ele>
        <time>2021-12-20T11:42:28Z</time>
      </trkpt>
      <trkpt lat="47.51632" lon="6.77745">
        <ele>373.4</ele>
        <time>2021-12-20T11:42:33Z</time>
      </trkpt>
      <trkpt lat="47.51643" lon="6.77747">
        <ele>374.5</ele>
        <time>2021-12-20T11:42:38Z</time>
      </trkpt>
      <trkpt lat="47.51654" lon="6.77748">
        <ele>375.6</ele>
        <time>2021-12-20T11:42:43Z</time>
      </trkpt>
      <trkpt lat="47.51664" lon="6.77749">
        <ele>376.7</ele>
        <time>2021-12-20T11:42:48Z</time>
      </trkpt>
      <trkpt lat="47.51674" lon="6.77749">
        <ele>377.8</ele>
        <time>2021-12-20T11:42:53Z</time>
      </trkpt>
      <trkpt lat="47.51684" lon="6.77751">
        <ele>378.8</ele>
        <time>2021-12-20T11:42:58Z</time>
      </trkpt>
      <trkpt lat="47.51694" lon="6.77751">
        <ele>379.8</ele>
        <time>2021-12-20T11:43:03Z</time>
      </trkpt>
      <trkpt lat="47.517" lon="6.77745">
        <ele>381.7</ele>
        <time>2021-12-20T11:43:08Z</time>
      </trkpt>
      <trkpt lat="47.51702" lon="6.77732">
        <ele>382.5</ele>
        <time>2021-12-20T11:43:13Z</time>
      </trkpt>
      <trkpt lat="47.51704" lon="6.77721">
        <ele>383.3</ele>
        <time>2021-12-20T11:43:18Z</time>
      </trkpt>
      <trkpt lat="47.51708" lon="6.77707">
        <ele>384.4</ele>
        <time>2021-12-20T11:43:23Z</time>
      </trkpt>
      <trkpt lat="47.51707" lon="6.77691">
        <ele>385.6</ele>
        <time>2021-12-20T11:43:28Z</time>
      </trkpt>
      <trkpt lat="47.51709" lon="6.77672">
        <ele>386.8</ele>
        <time>2021-12-20T11:43:33Z</time>
      </trkpt>
      <trkpt lat="47.5171" lon="6.77653">
        <ele>387.7</ele>
        <time>2021-12-20T11:43:38Z</time>
      </trkpt>
      <trkpt lat="47.51711" lon="6.77634">
        <ele>388.7</ele>
        <time>2021-12-20T11:43:43Z</time>
      </trkpt>
      <trkpt lat="47.51711" lon="6.77615">
        <ele>389.6</ele>
        <time>2021-12-20T11:43:48Z</time>
      </trkpt>
      <trkpt lat="47.51712" lon="6.77596">
        <ele>390.6</ele>
        <time>2021-12-20T11:43:53Z</time>
      </trkpt>
      <trkpt lat="47.51722" lon="6.77587">
        <ele>391.3</ele>
        <time>2021-12-20T11:43:58Z</time>
      </trkpt>
      <trkpt lat="47.51718" lon="6.77563">
        <ele>391.7</ele>
        <time>2021-12-20T11:44:03Z</time>
      </trkpt>
      <trkpt lat="47.51723" lon="6.77531">
        <ele>391.5</ele>
        <time>2021-12-20T11:44:08Z</time>
      </trkpt>
      <trkpt lat="47.51728" lon="6.77496">
        <ele>391.2</ele>
        <time>2021-12-20T11:44:13Z</time>
      </trkpt>
      <trkpt lat="47.51749" lon="6.7748">
        <ele>391.1</ele>
        <time>2021-12-20T11:44:18Z</time>
      </trkpt>
      <trkpt lat="47.51771" lon="6.77484">
        <ele>391</ele>
        <time>2021-12-20T11:44:23Z</time>
      </trkpt>
      <trkpt lat="47.51793" lon="6.77492">
        <ele>390.5</ele>
        <time>2021-12-20T11:44:28Z</time>
      </trkpt>
      <trkpt lat="47.5181" lon="6.77495">
        <ele>390</ele>
        <time>2021-12-20T11:44:33Z</time>
      </trkpt>
      <trkpt lat="47.51802" lon="6.77474">
        <ele>389.4</ele>
        <time>2021-12-20T11:44:38Z</time>
      </trkpt>
      <trkpt lat="47.51803" lon="6.77469">
        <ele>389.3</ele>
        <time>2021-12-20T11:44:44Z</time>
      </trkpt>
    </trkseg>
  </trk>
</gpx>